Air Quality Table

TIMESTAMP NO2 SO2 O3 PM10 PM2.5 CO TEMP HUM AIRPRES WS WD NO BENZENE
2022-11-30 12:00 31.01 µg/m3 0.19 µg/m3 40.05 µg/m3 9.13 µg/m3 3.66 µg/m3 0.34 mg/m3 14.28 °C 77.16 % 1,006.97 mbar 1.73 m/s 267.83 Deg 18.01 µg/m3 1.42 µg/m3
2022-11-30 11:00 37.56 µg/m3 0.32 µg/m3 34.6 µg/m3 11.19 µg/m3 4.2 µg/m3 0.37 mg/m3 13.23 °C 79.87 % 1,007.55 mbar 1.55 m/s 197.65 Deg 34.8 µg/m3 0.89 µg/m3
2022-11-30 10:00 42.43 µg/m3 0.55 µg/m3 27.46 µg/m3 13.23 µg/m3 5.39 µg/m3 0.39 mg/m3 12.82 °C 87.88 % 1,007.41 mbar 1.54 m/s 293.73 Deg 43.82 µg/m3 1.33 µg/m3
2022-11-30 09:00 55.11 µg/m3 0.56 µg/m3 14 µg/m3 7.76 µg/m3 3.95 µg/m3 0.42 mg/m3 12.04 °C 92.15 % 1,006.96 mbar 1.45 m/s 232.13 Deg 58.21 µg/m3 3.25 µg/m3
2022-11-30 08:00 54.51 µg/m3 0.99 µg/m3 9.61 µg/m3 7.21 µg/m3 3.75 µg/m3 0.42 mg/m3 11.67 °C 93.67 % 1,006.89 mbar 1.18 m/s 206.21 Deg 71.88 µg/m3 2.57 µg/m3
2022-11-30 07:00 60.85 µg/m3 0.83 µg/m3 10.26 µg/m3 9.11 µg/m3 4.84 µg/m3 0.41 mg/m3 12.01 °C 94.91 % 1,006.58 mbar 0.88 m/s 253.04 Deg 73.12 µg/m3 2.99 µg/m3
2022-11-30 06:00 25.27 µg/m3 -0.32 µg/m3 44.19 µg/m3 6.64 µg/m3 3.61 µg/m3 0.27 mg/m3 12.32 °C 95.49 % 1,006.49 mbar 1.98 m/s 256.91 Deg 18.55 µg/m3 0.52 µg/m3
2022-11-30 05:00 10.5 µg/m3 -0.03 µg/m3 45.9 µg/m3 7.88 µg/m3 4.13 µg/m3 0.24 mg/m3 12.22 °C 93.27 % 1,006.19 mbar 2.2 m/s 245.93 Deg 2.93 µg/m3 0.7 µg/m3
2022-11-30 04:00 14.64 µg/m3 -0.13 µg/m3 34.85 µg/m3 6.92 µg/m3 3.72 µg/m3 0.26 mg/m3 12.4 °C 89.22 % 1,005.93 mbar 1.01 m/s 218.88 Deg 4.28 µg/m3 0.84 µg/m3
2022-11-30 03:00 25.55 µg/m3 -0.33 µg/m3 41.34 µg/m3 6.51 µg/m3 3.8 µg/m3 0.18 mg/m3 12.53 °C 90.74 % 1,006.06 mbar 1 m/s 236.67 Deg 1.82 µg/m3 0.65 µg/m3
2022-11-30 02:00 11.05 µg/m3 -0.13 µg/m3 43.05 µg/m3 7.2 µg/m3 3.66 µg/m3 0.27 mg/m3 13.01 °C 90.17 % 1,006.04 mbar 0.62 m/s 308.62 Deg 3.69 µg/m3 0.63 µg/m3
2022-11-30 01:00 8.49 µg/m3 -0.38 µg/m3 47.61 µg/m3 7.25 µg/m3 3.09 µg/m3 0.28 mg/m3 12.22 °C 95.08 % 1,006.41 mbar 1.33 m/s 227.55 Deg 1.99 µg/m3 0.58 µg/m3
2022-11-30 00:00 8.24 µg/m3 -0.32 µg/m3 57.87 µg/m3 5.75 µg/m3 2.82 µg/m3 0.29 mg/m3 11.99 °C 95.01 % 1,006.73 mbar 1.78 m/s 219.21 Deg 0.86 µg/m3 0.97 µg/m3
2022-11-29 23:00 7.31 µg/m3 -0.22 µg/m3 58.47 µg/m3 9.16 µg/m3 4.26 µg/m3 0.31 mg/m3 12.01 °C 93.56 % 1,006.71 mbar 2.12 m/s 236.02 Deg 0.83 µg/m3 0.86 µg/m3
2022-11-29 22:00 7.2 µg/m3 -0.22 µg/m3 62.35 µg/m3 11.36 µg/m3 4.49 µg/m3 0.32 mg/m3 13.28 °C 87.7 % 1,006.59 mbar 2.24 m/s 282.23 Deg 1.66 µg/m3 1 µg/m3
2022-11-29 21:00 25.83 µg/m3 0.26 µg/m3 33.29 µg/m3 9.45 µg/m3 4.84 µg/m3 0.36 mg/m3 13.21 °C 93.41 % 1,006.20 mbar 1.06 m/s 230.04 Deg 4.55 µg/m3 1.44 µg/m3
2022-11-29 20:00 27.86 µg/m3 0.1 µg/m3 36.66 µg/m3 10.92 µg/m3 4.9 µg/m3 0.35 mg/m3 13.4 °C 93.21 % 1,005.84 mbar 0.91 m/s 196.71 Deg 6.17 µg/m3 1.42 µg/m3
2022-11-29 19:00 31.41 µg/m3 0.15 µg/m3 40.73 µg/m3 12.15 µg/m3 5.63 µg/m3 0.34 mg/m3 13.33 °C 92.15 % 1,005.68 mbar 0.89 m/s 193.26 Deg 7.49 µg/m3 1.12 µg/m3
2022-11-29 18:00 25.38 µg/m3 -0.05 µg/m3 48.1 µg/m3 21.25 µg/m3 8.09 µg/m3 0.33 mg/m3 14.03 °C 89.88 % 1,005.62 mbar 1.87 m/s 185.53 Deg 7.84 µg/m3 0.84 µg/m3
2022-11-29 17:00 44.53 µg/m3 0.19 µg/m3 30.22 µg/m3 14.94 µg/m3 5.78 µg/m3 0.35 mg/m3 14.5 °C 88.15 % 1,005.40 mbar 0.82 m/s 220.63 Deg 18.88 µg/m3 1.68 µg/m3
2022-11-29 16:00 44.5 µg/m3 -0.14 µg/m3 29.17 µg/m3 17.12 µg/m3 7.12 µg/m3 0.35 mg/m3 14.61 °C 92.67 % 1,005.27 mbar 0.98 m/s 267.3 Deg 16.92 µg/m3 1.36 µg/m3
2022-11-29 15:00 32.59 µg/m3 -0.25 µg/m3 38.01 µg/m3 14.92 µg/m3 6.48 µg/m3 0.31 mg/m3 14.27 °C 92.91 % 1,005.25 mbar 1.28 m/s 203.65 Deg 12.58 µg/m3 1.02 µg/m3
2022-11-29 14:00 23.68 µg/m3 -0.13 µg/m3 47.82 µg/m3 16.13 µg/m3 5.79 µg/m3 0.3 mg/m3 15.25 °C 83.81 % 1,005.69 mbar 1.21 m/s 160.34 Deg 7.65 µg/m3 0.94 µg/m3
2022-11-29 13:00 18.17 µg/m3 -0.2 µg/m3 51.58 µg/m3 15.07 µg/m3 5.6 µg/m3 0.3 mg/m3 15.76 °C 79.56 % 1,005.84 mbar 1.42 m/s 169.88 Deg 7.14 µg/m3 0.87 µg/m3
2022-11-29 12:00 17.66 µg/m3 -0.06 µg/m3 52.4 µg/m3 13.27 µg/m3 5.52 µg/m3 0.31 mg/m3 14.7 °C 83 % 1,006.49 mbar 1.52 m/s 201.19 Deg 5.41 µg/m3 0.81 µg/m3
2022-11-29 11:00 20.23 µg/m3 -0.11 µg/m3 46.83 µg/m3 12.12 µg/m3 5.34 µg/m3 0.37 mg/m3 14.35 °C 85.57 % 1,007.29 mbar 1.47 m/s 164.97 Deg 8.08 µg/m3 0.92 µg/m3
2022-11-29 10:00 27.78 µg/m3 0.11 µg/m3 43.2 µg/m3 15.41 µg/m3 5.93 µg/m3 0.33 mg/m3 13.88 °C 85.54 % 1,007.63 mbar 1.18 m/s 252.99 Deg 10.24 µg/m3 1.29 µg/m3
2022-11-29 09:00 33.68 µg/m3 0.16 µg/m3 26.04 µg/m3 13.85 µg/m3 5.05 µg/m3 0.33 mg/m3 12.84 °C 91.87 % 1,007.77 mbar 0.93 m/s 277.23 Deg 11.48 µg/m3 1.34 µg/m3
2022-11-29 08:00 50.37 µg/m3 0.25 µg/m3 25.56 µg/m3 8.53 µg/m3 3.88 µg/m3 0.35 mg/m3 11.71 °C 99.96 % 1,007.99 mbar 0.73 m/s 255.29 Deg 18.74 µg/m3 1.31 µg/m3
2022-11-29 07:00 34.38 µg/m3 0.01 µg/m3 38.41 µg/m3 7.34 µg/m3 4.44 µg/m3 0.3 mg/m3 11.73 °C 100 % 1,008.26 mbar 2 m/s 167.47 Deg 12.51 µg/m3 1.34 µg/m3
2022-11-29 06:00 28.02 µg/m3 0.1 µg/m3 39.19 µg/m3 11.26 µg/m3 7 µg/m3 0.29 mg/m3 12.15 °C 100 % 1,008.49 mbar 1.21 m/s 116 Deg 8.45 µg/m3 0.86 µg/m3
2022-11-29 05:00 15.98 µg/m3 -0.07 µg/m3 40.99 µg/m3 13.32 µg/m3 8.05 µg/m3 0.28 mg/m3 12.13 °C 99.99 % 1,008.94 mbar 0.95 m/s 219.56 Deg 1.91 µg/m3 0.89 µg/m3
2022-11-29 04:00 13.77 µg/m3 0.03 µg/m3 51.16 µg/m3 14.51 µg/m3 7.37 µg/m3 0.29 mg/m3 13.83 °C 84.48 % 1,008.70 mbar 0.66 m/s 31.05 Deg 0.64 µg/m3 0.79 µg/m3
2022-11-29 03:00 24.28 µg/m3 0.3 µg/m3 55.22 µg/m3 10.99 µg/m3 6.21 µg/m3 0.2 mg/m3 14.94 °C 72.05 % 1,009.39 mbar 0.59 m/s 107.76 Deg -0.01 µg/m3 0.79 µg/m3
2022-11-29 02:00 10.93 µg/m3 0.19 µg/m3 49.51 µg/m3 11.77 µg/m3 6.89 µg/m3 0.32 mg/m3 14.85 °C 72.5 % 1,010.02 mbar 0.47 m/s 168.19 Deg 0.41 µg/m3 1.08 µg/m3
2022-11-29 01:00 20.42 µg/m3 0.41 µg/m3 38.28 µg/m3 13.69 µg/m3 8.41 µg/m3 0.37 mg/m3 14.52 °C 74.38 % 1,010.97 mbar 0.4 m/s 275.58 Deg 2.5 µg/m3 1.33 µg/m3
2022-11-29 00:00 29.29 µg/m3 0.36 µg/m3 25.44 µg/m3 17.04 µg/m3 10.09 µg/m3 0.42 mg/m3 14.12 °C 75.62 % 1,012.04 mbar 0.23 m/s 216.47 Deg 3.19 µg/m3 2.02 µg/m3
2022-11-28 23:00 37.94 µg/m3 0.54 µg/m3 20.04 µg/m3 24 µg/m3 12.34 µg/m3 0.45 mg/m3 13.92 °C 76.76 % 1,012.54 mbar 0.41 m/s 200.32 Deg 6.89 µg/m3 2.68 µg/m3
2022-11-28 22:00 48.49 µg/m3 0.77 µg/m3 13.02 µg/m3 26.1 µg/m3 12.81 µg/m3 0.48 mg/m3 13.7 °C 77.15 % 1,012.93 mbar 0.83 m/s 176.5 Deg 11.03 µg/m3 3.01 µg/m3
2022-11-28 21:00 53.36 µg/m3 0.8 µg/m3 11.86 µg/m3 21.18 µg/m3 11.24 µg/m3 0.46 mg/m3 14.07 °C 74.86 % 1,013.24 mbar 0.88 m/s 190.32 Deg 21.69 µg/m3 3.07 µg/m3
2022-11-28 20:00 46.52 µg/m3 0.57 µg/m3 7.94 µg/m3 31.18 µg/m3 13.92 µg/m3 0.44 mg/m3 13.9 °C 76.42 % 1,013.41 mbar 0.57 m/s 205.27 Deg 28.72 µg/m3 3.34 µg/m3
2022-11-28 19:00 36.41 µg/m3 0.19 µg/m3 26.54 µg/m3 21.72 µg/m3 10.54 µg/m3 0.37 mg/m3 14.7 °C 71.01 % 1,013.40 mbar 1.04 m/s 177.6 Deg 15.65 µg/m3 1.78 µg/m3
2022-11-28 18:00 38.91 µg/m3 0.39 µg/m3 29.66 µg/m3 21.94 µg/m3 9.94 µg/m3 0.37 mg/m3 15.02 °C 70.63 % 1,013.42 mbar 1.04 m/s 173.9 Deg 23.4 µg/m3 1.99 µg/m3
2022-11-28 17:00 51.59 µg/m3 0.57 µg/m3 21.29 µg/m3 27.28 µg/m3 10.72 µg/m3 0.35 mg/m3 15.71 °C 69.83 % 1,013.48 mbar 0.57 m/s 201.16 Deg 34.91 µg/m3 1.63 µg/m3
2022-11-28 16:00 31.21 µg/m3 0.24 µg/m3 43.22 µg/m3 38.57 µg/m3 11.83 µg/m3 0.29 mg/m3 16.99 °C 64.46 % 1,013.64 mbar 1.28 m/s 165.33 Deg 16.65 µg/m3 0.89 µg/m3
2022-11-28 15:00 23.09 µg/m3 0.37 µg/m3 49.89 µg/m3 41.85 µg/m3 11.93 µg/m3 0.29 mg/m3 17.09 °C 64.3 % 1,013.93 mbar 2.03 m/s 65.42 Deg 9.17 µg/m3 1.07 µg/m3
2022-11-28 14:00 18.49 µg/m3 0.21 µg/m3 54.49 µg/m3 40.14 µg/m3 11.54 µg/m3 0.28 mg/m3 16.97 °C 64.51 % 1,014.21 mbar 2.93 m/s 66.91 Deg 13.62 µg/m3 1 µg/m3
2022-11-28 13:00 18.32 µg/m3 0.01 µg/m3 54.04 µg/m3 36.04 µg/m3 10.14 µg/m3 0.28 mg/m3 17.05 °C 62.79 % 1,014.70 mbar 2.7 m/s 122.71 Deg 10.02 µg/m3 0.81 µg/m3
2022-11-28 12:00 13.9 µg/m3 0.15 µg/m3 56.54 µg/m3 40.52 µg/m3 10.91 µg/m3 0.26 mg/m3 16.99 °C 65.06 % 1,015.53 mbar 2.95 m/s 57.48 Deg 5.42 µg/m3 0.89 µg/m3
2022-11-28 11:00 16.06 µg/m3 -0.03 µg/m3 53.34 µg/m3 31.8 µg/m3 9.47 µg/m3 0.27 mg/m3 16.94 °C 66.73 % 1,016.18 mbar 3.1 m/s 64.78 Deg 7.39 µg/m3 1.05 µg/m3
2022-11-28 10:00 13.94 µg/m3 0.04 µg/m3 54.36 µg/m3 32.01 µg/m3 9.92 µg/m3 0.28 mg/m3 16.76 °C 68.85 % 1,016.04 mbar 3.29 m/s 63.17 Deg 6.5 µg/m3 1.31 µg/m3
2022-11-28 09:00 14.15 µg/m3 -0.02 µg/m3 53.13 µg/m3 31.34 µg/m3 10.47 µg/m3 0.27 mg/m3 16.69 °C 71.2 % 1,015.99 mbar 3.45 m/s 69.5 Deg 5.88 µg/m3 1.19 µg/m3
2022-11-28 08:00 15.97 µg/m3 -0.08 µg/m3 53.15 µg/m3 30.95 µg/m3 10.73 µg/m3 0.25 mg/m3 16.48 °C 71.9 % 1,015.68 mbar 3.64 m/s 50.23 Deg 6.8 µg/m3 0.92 µg/m3
2022-11-28 07:00 9.66 µg/m3 -0.05 µg/m3 57.89 µg/m3 30.76 µg/m3 11.6 µg/m3 0.23 mg/m3 16.33 °C 73.22 % 1,015.32 mbar 4.18 m/s 58.08 Deg 2.64 µg/m3 0.92 µg/m3
2022-11-28 06:00 7.65 µg/m3 0.05 µg/m3 62.13 µg/m3 25.82 µg/m3 10.23 µg/m3 0.22 mg/m3 16.7 °C 72.39 % 1,015.42 mbar 5.47 m/s 63.36 Deg 1.9 µg/m3 0.65 µg/m3
2022-11-28 05:00 4.17 µg/m3 -0.06 µg/m3 65.54 µg/m3 26.7 µg/m3 10.26 µg/m3 0.21 mg/m3 16.9 °C 71.09 % 1,015.37 mbar 6.29 m/s 59.46 Deg -0.16 µg/m3 0.68 µg/m3
2022-11-28 04:00 7.72 µg/m3 -0.38 µg/m3 65.9 µg/m3 28.51 µg/m3 11.03 µg/m3 0.21 mg/m3 16.98 °C 73.23 % 1,015.32 mbar 6.63 m/s 62.77 Deg -0.28 µg/m3 0.68 µg/m3
2022-11-28 03:00 19.82 µg/m3 -0.34 µg/m3 65.31 µg/m3 27.51 µg/m3 9.89 µg/m3 0.14 mg/m3 17 °C 72.2 % 1,015.23 mbar 6.58 m/s 63.16 Deg -0.09 µg/m3 0.73 µg/m3
2022-11-28 02:00 0.68 µg/m3 -0.28 µg/m3 66.95 µg/m3 26.87 µg/m3 9.88 µg/m3 0.21 mg/m3 16.92 °C 73.08 % 1,015.17 mbar 7.15 m/s 65.63 Deg -0.42 µg/m3 0.73 µg/m3
2022-11-28 01:00 0.48 µg/m3 -0.41 µg/m3 65.7 µg/m3 30.1 µg/m3 11.72 µg/m3 0.21 mg/m3 16.75 °C 77.5 % 1,015.03 mbar 7.9 m/s 64.31 Deg -0.17 µg/m3 0.73 µg/m3
2022-11-28 00:00 0.23 µg/m3 -0.14 µg/m3 66.19 µg/m3 33.12 µg/m3 13 µg/m3 0.21 mg/m3 16.78 °C 79.36 % 1,015.02 mbar 8.23 m/s 64.78 Deg -0.07 µg/m3 0.73 µg/m3
2022-11-27 23:00 0.79 µg/m3 -0.09 µg/m3 65.77 µg/m3 30.07 µg/m3 12.4 µg/m3 0.21 mg/m3 16.85 °C 79.09 % 1,014.56 mbar 9.54 m/s 64.35 Deg -0.11 µg/m3 0.73 µg/m3
2022-11-27 22:00 0.6 µg/m3 -0.21 µg/m3 65.36 µg/m3 32.97 µg/m3 14.05 µg/m3 0.21 mg/m3 16.82 °C 81.14 % 1,014.28 mbar 9.87 m/s 59.66 Deg -0.08 µg/m3 0.7 µg/m3
2022-11-27 21:00 0.82 µg/m3 -0.24 µg/m3 64.92 µg/m3 33.04 µg/m3 14.48 µg/m3 0.22 mg/m3 16.91 °C 79.8 % 1,013.50 mbar 10.79 m/s 61.66 Deg 0.15 µg/m3 0.76 µg/m3
2022-11-27 20:00 1.54 µg/m3 -0.49 µg/m3 64.22 µg/m3 30.32 µg/m3 13.87 µg/m3 0.22 mg/m3 16.7 °C 81.69 % 1,012.99 mbar 11.74 m/s 60.03 Deg 0.43 µg/m3 0.79 µg/m3
2022-11-27 19:00 1.2 µg/m3 -0.18 µg/m3 53.91 µg/m3 29.77 µg/m3 14.1 µg/m3 0.23 mg/m3 16.48 °C 84.42 % 1,012.14 mbar 12.45 m/s 61.62 Deg 0.32 µg/m3 0.73 µg/m3
2022-11-27 18:00 1.45 µg/m3 -0.18 µg/m3 62.54 µg/m3 25.94 µg/m3 13.55 µg/m3 0.23 mg/m3 15.66 °C 91.37 % 1,011.30 mbar 13.34 m/s 60.4 Deg 0.45 µg/m3 0.76 µg/m3
2022-11-27 17:00 2.53 µg/m3 -0.35 µg/m3 61.26 µg/m3 24.9 µg/m3 13.64 µg/m3 0.23 mg/m3 14.92 °C 99.58 % 1,010.39 mbar 13.92 m/s 57.38 Deg 1.9 µg/m3 0.81 µg/m3
2022-11-27 16:00 2.15 µg/m3 -0.42 µg/m3 63.62 µg/m3 23.68 µg/m3 13.41 µg/m3 0.22 mg/m3 15.66 °C 94.25 % 1,009.76 mbar 14.17 m/s 58.32 Deg 1.19 µg/m3 1.47 µg/m3
2022-11-27 15:00 1.67 µg/m3 -0.4 µg/m3 64.24 µg/m3 23.41 µg/m3 13.79 µg/m3 0.2 mg/m3 16.09 °C 90.22 % 1,008.92 mbar 15.17 m/s 56.32 Deg 1.07 µg/m3 0.65 µg/m3
2022-11-27 14:00 1.97 µg/m3 -0.36 µg/m3 65.89 µg/m3 24.8 µg/m3 13.62 µg/m3 0.21 mg/m3 16.31 °C 90.05 % 1,008.37 mbar 14.56 m/s 54.59 Deg 0.74 µg/m3 0.58 µg/m3
2022-11-27 13:00 2.37 µg/m3 -0.37 µg/m3 67.73 µg/m3 24.01 µg/m3 13.94 µg/m3 0.2 mg/m3 15.93 °C 94.1 % 1,007.92 mbar 13.69 m/s 55.49 Deg 0.74 µg/m3 0.56 µg/m3
2022-11-27 12:00 3.4 µg/m3 -0.31 µg/m3 66.66 µg/m3 23.31 µg/m3 13.89 µg/m3 0.2 mg/m3 16.49 °C 92.68 % 1,007.55 mbar 13.58 m/s 53.26 Deg 1.28 µg/m3 0.58 µg/m3
2022-11-27 11:00 1.96 µg/m3 -0.28 µg/m3 67.14 µg/m3 21.73 µg/m3 12.91 µg/m3 0.2 mg/m3 17 °C 91.26 % 1,007.02 mbar 13.66 m/s 52.08 Deg 0.49 µg/m3 0.5 µg/m3
2022-11-27 10:00 3.68 µg/m3 -0.21 µg/m3 64.64 µg/m3 21.26 µg/m3 11.68 µg/m3 0.2 mg/m3 17.79 °C 87.25 % 1,005.97 mbar 10.78 m/s 56.84 Deg 1.1 µg/m3 0.52 µg/m3
2022-11-27 09:00 2.41 µg/m3 -0.31 µg/m3 65.96 µg/m3 11.81 µg/m3 7.01 µg/m3 0.2 mg/m3 17.06 °C 83.02 % 1,005.32 mbar 14.92 m/s 44.35 Deg 0.34 µg/m3 0.63 µg/m3
2022-11-27 08:00 3.4 µg/m3 -0.24 µg/m3 65.6 µg/m3 17.67 µg/m3 9.73 µg/m3 0.19 mg/m3 17.28 °C 86.43 % 1,005.07 mbar 12.13 m/s 57.01 Deg 0.52 µg/m3 0.47 µg/m3
2022-11-27 07:00 3.37 µg/m3 -0.4 µg/m3 65.5 µg/m3 14.5 µg/m3 7.55 µg/m3 0.19 mg/m3 17.37 °C 88.68 % 1,003.56 mbar 8.76 m/s 47.91 Deg 0.24 µg/m3 0.42 µg/m3
2022-11-27 06:00 3.14 µg/m3 -0.26 µg/m3 66.14 µg/m3 7.24 µg/m3 3.42 µg/m3 0.19 mg/m3 15.7 °C 88.42 % 1,004.58 mbar 5.28 m/s 26.29 Deg -0.2 µg/m3 0.42 µg/m3
2022-11-27 05:00 4.97 µg/m3 -0.26 µg/m3 65.56 µg/m3 5.87 µg/m3 2.66 µg/m3 0.19 mg/m3 16.18 °C 85.4 % 1,005.09 mbar 6.57 m/s 40.34 Deg -0.26 µg/m3 0.37 µg/m3
2022-11-27 04:00 8.19 µg/m3 -0.04 µg/m3 60.33 µg/m3 6.66 µg/m3 2.84 µg/m3 0.19 mg/m3 15.75 °C 88.42 % 1,005.81 mbar 5.51 m/s 25.7 Deg -0.31 µg/m3 0.42 µg/m3
2022-11-27 03:00 19.39 µg/m3 -0.16 µg/m3 63.12 µg/m3 5.6 µg/m3 2.47 µg/m3 0.14 mg/m3 15.62 °C 86.36 % 1,006.41 mbar 6.06 m/s 27.38 Deg -0.24 µg/m3 0.34 µg/m3
2022-11-27 02:00 1.39 µg/m3 -0.32 µg/m3 63.58 µg/m3 5.74 µg/m3 2.59 µg/m3 0.23 mg/m3 15.58 °C 85.95 % 1,006.50 mbar 7.49 m/s 40.69 Deg 0.06 µg/m3 0.39 µg/m3
2022-11-27 01:00 1.17 µg/m3 -0.02 µg/m3 66.06 µg/m3 4.64 µg/m3 2.07 µg/m3 0.24 mg/m3 15.31 °C 85.36 % 1,006.89 mbar 5.15 m/s 30.47 Deg 0.32 µg/m3 0.47 µg/m3
2022-11-27 00:00 1.56 µg/m3 -0.14 µg/m3 64.34 µg/m3 4.99 µg/m3 2.27 µg/m3 0.24 mg/m3 16.69 °C 76.45 % 1,006.81 mbar 8.06 m/s 46.72 Deg 0.17 µg/m3 0.31 µg/m3
2022-11-26 23:00 3.64 µg/m3 -0.13 µg/m3 59.81 µg/m3 7.95 µg/m3 3.31 µg/m3 0.25 mg/m3 16.35 °C 82.97 % 1,006.98 mbar 5.66 m/s 122.55 Deg 0.72 µg/m3 0.39 µg/m3
2022-11-26 22:00 7.19 µg/m3 -0.25 µg/m3 55.69 µg/m3 4.21 µg/m3 1.66 µg/m3 0.26 mg/m3 15.68 °C 84.24 % 1,007.07 mbar 2.03 m/s 224.83 Deg 0.82 µg/m3 0.47 µg/m3
2022-11-26 21:00 7.02 µg/m3 -0.22 µg/m3 60.16 µg/m3 10.35 µg/m3 4.2 µg/m3 0.27 mg/m3 15.74 °C 82.02 % 1,007.32 mbar 2.44 m/s 219.07 Deg 1.25 µg/m3 0.73 µg/m3
2022-11-26 20:00 11.08 µg/m3 -0.36 µg/m3 56.4 µg/m3 10.15 µg/m3 4.18 µg/m3 0.28 mg/m3 15.96 °C 79.02 % 1,007.84 mbar 1.88 m/s 290.17 Deg 1.28 µg/m3 0.68 µg/m3
2022-11-26 19:00 8.71 µg/m3 -0.33 µg/m3 56.85 µg/m3 10.56 µg/m3 4.83 µg/m3 0.27 mg/m3 15.94 °C 79.97 % 1,008.33 mbar 2.13 m/s 282.43 Deg 1.27 µg/m3 0.79 µg/m3
2022-11-26 18:00 11.36 µg/m3 -0.35 µg/m3 55.14 µg/m3 11.22 µg/m3 4.89 µg/m3 0.27 mg/m3 16.11 °C 78.97 % 1,008.54 mbar 2.02 m/s 293.86 Deg 2.51 µg/m3 0.76 µg/m3
2022-11-26 17:00 10.3 µg/m3 -0.11 µg/m3 58.38 µg/m3 7.57 µg/m3 3.52 µg/m3 0.27 mg/m3 16.41 °C 77.53 % 1,008.74 mbar 2.75 m/s 304.29 Deg 2.5 µg/m3 0.73 µg/m3
2022-11-26 16:00 11.93 µg/m3 -0.18 µg/m3 56.04 µg/m3 6.25 µg/m3 2.66 µg/m3 0.27 mg/m3 16.37 °C 84.44 % 1,009.30 mbar 1.98 m/s 301.72 Deg 3.19 µg/m3 0.65 µg/m3
2022-11-26 15:00 13.1 µg/m3 -0.06 µg/m3 47.27 µg/m3 7.85 µg/m3 2.84 µg/m3 0.27 mg/m3 15.59 °C 90.83 % 1,009.37 mbar 2.17 m/s 283.89 Deg 5.13 µg/m3 0.63 µg/m3
2022-11-26 14:00 16.62 µg/m3 0.1 µg/m3 52.61 µg/m3 7.62 µg/m3 3.01 µg/m3 0.27 mg/m3 15.49 °C 91.48 % 1,010.32 mbar 2.8 m/s 244.78 Deg 7.24 µg/m3 0.5 µg/m3
2022-11-26 13:00 12.66 µg/m3 -0.07 µg/m3 52.98 µg/m3 8.35 µg/m3 3.92 µg/m3 0.28 mg/m3 16.81 °C 84.59 % 1,010.92 mbar 2.76 m/s 335.06 Deg 3.46 µg/m3 0.82 µg/m3
2022-11-26 12:00 20.44 µg/m3 -0.06 µg/m3 39.65 µg/m3 10.25 µg/m3 5.18 µg/m3 0.31 mg/m3 16.87 °C 90.3 % 1,011.38 mbar 0.81 m/s 202.34 Deg 9.15 µg/m3 1.1 µg/m3
2022-11-26 11:00 27.21 µg/m3 0.3 µg/m3 32.97 µg/m3 11.22 µg/m3 5.8 µg/m3 0.3 mg/m3 15.7 °C 94.47 % 1,012.02 mbar 1.59 m/s 248.68 Deg 14.66 µg/m3 0.61 µg/m3
2022-11-26 10:00 28.02 µg/m3 0.14 µg/m3 34.05 µg/m3 17.53 µg/m3 8.2 µg/m3 0.3 mg/m3 15.56 °C 93.29 % 1,013.00 mbar 2.23 m/s 195.16 Deg 15.55 µg/m3 0.81 µg/m3
2022-11-26 09:00 33.56 µg/m3 0.21 µg/m3 30.36 µg/m3 16.28 µg/m3 7.41 µg/m3 0.31 mg/m3 17.91 °C 88.3 % 1,012.64 mbar 1.82 m/s 197.8 Deg 16.42 µg/m3 0.94 µg/m3
2022-11-26 08:00 24.48 µg/m3 0.36 µg/m3 43.13 µg/m3 16.51 µg/m3 6.72 µg/m3 0.3 mg/m3 19.12 °C 83.61 % 1,012.93 mbar 2.29 m/s 203.23 Deg 10.43 µg/m3 1.31 µg/m3
2022-11-26 07:00 26.05 µg/m3 0.18 µg/m3 40.4 µg/m3 14.39 µg/m3 6.18 µg/m3 0.3 mg/m3 18.45 °C 83.43 % 1,013.96 mbar 1.71 m/s 218.34 Deg 7.31 µg/m3 0.79 µg/m3
2022-11-26 06:00 28.8 µg/m3 0.16 µg/m3 32.5 µg/m3 13.15 µg/m3 6.02 µg/m3 0.29 mg/m3 17.41 °C 85.9 % 1,014.23 mbar 1.05 m/s 232.49 Deg 8.61 µg/m3 0.58 µg/m3
2022-11-26 05:00 16.82 µg/m3 0.28 µg/m3 48.3 µg/m3 10.26 µg/m3 4.94 µg/m3 0.28 mg/m3 17.16 °C 84.43 % 1,014.89 mbar 1.15 m/s 186.74 Deg 2.84 µg/m3 0.52 µg/m3
2022-11-26 04:00 19.03 µg/m3 0.16 µg/m3 41.56 µg/m3 9.93 µg/m3 4.93 µg/m3 0.3 mg/m3 16.82 °C 83.84 % 1,016.02 mbar 0.27 m/s 219.49 Deg 2.79 µg/m3 0.58 µg/m3
2022-11-26 03:00 33.3 µg/m3 0.53 µg/m3 35.73 µg/m3 10.87 µg/m3 5.29 µg/m3 0.23 mg/m3 16.04 °C 84.5 % 1,017.09 mbar 1.05 m/s 222.35 Deg 1.81 µg/m3 0.61 µg/m3
2022-11-26 02:00 6.25 µg/m3 0.56 µg/m3 55.2 µg/m3 14.09 µg/m3 5.88 µg/m3 0.36 mg/m3 15.65 °C 83.62 % 1,017.56 mbar 0.8 m/s 221.84 Deg 0.91 µg/m3 0.81 µg/m3
2022-11-26 01:00 22.58 µg/m3 0.94 µg/m3 28.02 µg/m3 14.39 µg/m3 6.67 µg/m3 0.41 mg/m3 15.07 °C 84.36 % 1,017.80 mbar 0.82 m/s 238.93 Deg 5.04 µg/m3 1.28 µg/m3
2022-11-26 00:00 26.88 µg/m3 1.64 µg/m3 24.57 µg/m3 20.71 µg/m3 9.88 µg/m3 0.47 mg/m3 15.1 °C 83.2 % 1,018.48 mbar 0.81 m/s 216.5 Deg 6.95 µg/m3 2.17 µg/m3
2022-11-25 23:00 36.9 µg/m3 1.56 µg/m3 18.26 µg/m3 22.04 µg/m3 11.04 µg/m3 0.5 mg/m3 14.79 °C 84.63 % 1,018.94 mbar 0.41 m/s 222.51 Deg 10.86 µg/m3 2.17 µg/m3
2022-11-25 22:00 58.05 µg/m3 2.03 µg/m3 5.36 µg/m3 40.23 µg/m3 16.39 µg/m3 0.51 mg/m3 14.7 °C 84.42 % 1,019.40 mbar 0.19 m/s 158.15 Deg 34.58 µg/m3 2.54 µg/m3
2022-11-25 21:00 44.99 µg/m3 1.44 µg/m3 12.47 µg/m3 42.05 µg/m3 18.69 µg/m3 0.56 mg/m3 14.56 °C 83.98 % 1,019.62 mbar 0.87 m/s 241.73 Deg 37.35 µg/m3 3.43 µg/m3
2022-11-25 20:00 51.44 µg/m3 1.44 µg/m3 7.87 µg/m3 35.78 µg/m3 13.38 µg/m3 0.52 mg/m3 14.36 °C 85.71 % 1,019.35 mbar 0.81 m/s 245.23 Deg 60.19 µg/m3 3.59 µg/m3
2022-11-25 19:00 70.39 µg/m3 1.65 µg/m3 4.43 µg/m3 100.81 µg/m3 26.51 µg/m3 0.62 mg/m3 15.51 °C 82.67 % 1,019.21 mbar 0.12 m/s 277.95 Deg 113.28 µg/m3 3.54 µg/m3
2022-11-25 18:00 63.8 µg/m3 0.84 µg/m3 13.22 µg/m3 54.76 µg/m3 14.45 µg/m3 0.42 mg/m3 16.54 °C 77.77 % 1,019.31 mbar 0.58 m/s 220.72 Deg 68.06 µg/m3 2.59 µg/m3
2022-11-25 17:00 45.9 µg/m3 0.22 µg/m3 31.98 µg/m3 49.8 µg/m3 13.08 µg/m3 0.33 mg/m3 17.84 °C 72.31 % 1,019.11 mbar 0.91 m/s 243.77 Deg 26.61 µg/m3 1.4 µg/m3
2022-11-25 16:00 21.92 µg/m3 -0.02 µg/m3 55.32 µg/m3 18.85 µg/m3 8.17 µg/m3 0.32 mg/m3 18.76 °C 66.47 % 1,019.19 mbar 1.92 m/s 229.48 Deg 7.69 µg/m3 0.82 µg/m3
2022-11-25 15:00 15.29 µg/m3 0.03 µg/m3 59.29 µg/m3 20.06 µg/m3 8.03 µg/m3 0.31 mg/m3 18.76 °C 64.06 % 1,018.85 mbar 2.51 m/s 43.46 Deg 5.54 µg/m3 0.86 µg/m3
2022-11-25 14:00 16.37 µg/m3 -0.02 µg/m3 59.41 µg/m3 22.22 µg/m3 8.11 µg/m3 0.31 mg/m3 19.21 °C 62.55 % 1,019.49 mbar 2.53 m/s 225.52 Deg 7.42 µg/m3 1.7 µg/m3
2022-11-25 13:00 15.85 µg/m3 -0.05 µg/m3 58.56 µg/m3 19.95 µg/m3 7.59 µg/m3 0.32 mg/m3 19.32 °C 59.9 % 1,020.01 mbar 2.44 m/s 294.28 Deg 7.18 µg/m3 1 µg/m3
2022-11-25 12:00 16.73 µg/m3 0.11 µg/m3 57.45 µg/m3 24.7 µg/m3 8.49 µg/m3 0.32 mg/m3 18.81 °C 63.02 % 1,020.15 mbar 2.11 m/s 270.12 Deg 12.43 µg/m3 0.73 µg/m3
2022-11-25 11:00 18.29 µg/m3 0.05 µg/m3 53.98 µg/m3 21.04 µg/m3 8.37 µg/m3 0.31 mg/m3 18.55 °C 66.17 % 1,020.50 mbar 1.75 m/s 95.04 Deg 10.59 µg/m3 0.73 µg/m3
2022-11-25 10:00 20.98 µg/m3 0.16 µg/m3 47.45 µg/m3 23.31 µg/m3 8.81 µg/m3 0.34 mg/m3 18.27 °C 68.02 % 1,020.57 mbar 1.82 m/s 308.61 Deg 10.07 µg/m3 1.15 µg/m3
2022-11-25 09:00 29.07 µg/m3 0.13 µg/m3 36.83 µg/m3 57.33 µg/m3 13.12 µg/m3 0.35 mg/m3 17.29 °C 72.11 % 1,020.16 mbar 1.51 m/s 271.98 Deg 15.09 µg/m3 1.13 µg/m3
2022-11-25 08:00 32.01 µg/m3 0.01 µg/m3 31.94 µg/m3 41.38 µg/m3 11.25 µg/m3 0.33 mg/m3 16.08 °C 75.95 % 1,019.75 mbar 1.79 m/s 239.96 Deg 16.1 µg/m3 1.24 µg/m3
2022-11-25 07:00 37.07 µg/m3 -0.05 µg/m3 28.1 µg/m3 39.28 µg/m3 10.86 µg/m3 0.3 mg/m3 15.94 °C 76.69 % 1,019.20 mbar 1.71 m/s 263.38 Deg 19.34 µg/m3 0.81 µg/m3
2022-11-25 06:00 29.66 µg/m3 -0.19 µg/m3 36.21 µg/m3 19.37 µg/m3 7.96 µg/m3 0.27 mg/m3 15.95 °C 76.88 % 1,018.70 mbar 1.37 m/s 273.83 Deg 14.53 µg/m3 0.49 µg/m3
2022-11-25 05:00 11.84 µg/m3 -0.29 µg/m3 62.62 µg/m3 18.74 µg/m3 8.07 µg/m3 0.24 mg/m3 16.49 °C 78.43 % 1,018.46 mbar 1.32 m/s 270.96 Deg 0.25 µg/m3 0.44 µg/m3
2022-11-25 04:00 14.56 µg/m3 -0.57 µg/m3 55.33 µg/m3 19.01 µg/m3 8.41 µg/m3 0.24 mg/m3 16.67 °C 80.61 % 1,018.31 mbar 1.69 m/s 272.64 Deg 0.24 µg/m3 0.42 µg/m3
2022-11-25 03:00 23.07 µg/m3 -0.57 µg/m3 58.54 µg/m3 20.19 µg/m3 8.74 µg/m3 0.17 mg/m3 16.68 °C 80.3 % 1,018.13 mbar 1.21 m/s 277.85 Deg 0.1 µg/m3 0.47 µg/m3
2022-11-25 02:00 2.14 µg/m3 -0.38 µg/m3 62.02 µg/m3 20.14 µg/m3 9.02 µg/m3 0.24 mg/m3 17.03 °C 78.53 % 1,017.89 mbar 1.7 m/s 280.11 Deg -0.23 µg/m3 0.42 µg/m3
2022-11-25 01:00 5.4 µg/m3 -0.32 µg/m3 58.82 µg/m3 22.63 µg/m3 9.75 µg/m3 0.24 mg/m3 17.22 °C 77.81 % 1,017.86 mbar 1.77 m/s 297.38 Deg -0.06 µg/m3 0.45 µg/m3
2022-11-25 00:00 4.78 µg/m3 -0.41 µg/m3 60.24 µg/m3 23.67 µg/m3 10.98 µg/m3 0.24 mg/m3 17.3 °C 78.29 % 1,017.79 mbar 1.77 m/s 302 Deg -0.11 µg/m3 0.47 µg/m3
2022-11-24 23:00 5.87 µg/m3 -0.38 µg/m3 61.42 µg/m3 26.61 µg/m3 12.32 µg/m3 0.24 mg/m3 17.41 °C 78.88 % 1,017.40 mbar 1.31 m/s 295.96 Deg 0.17 µg/m3 0.52 µg/m3
2022-11-24 22:00 6.05 µg/m3 -0.03 µg/m3 64.33 µg/m3 26.89 µg/m3 12.67 µg/m3 0.24 mg/m3 17.71 °C 78.56 % 1,017.10 mbar 2.22 m/s 304.45 Deg 0.46 µg/m3 0.58 µg/m3
2022-11-24 21:00 5.41 µg/m3 -0.23 µg/m3 64.56 µg/m3 27.97 µg/m3 13.11 µg/m3 0.24 mg/m3 17.75 °C 78.96 % 1,016.72 mbar 2.76 m/s 313.13 Deg 0.57 µg/m3 0.52 µg/m3
2022-11-24 20:00 8.11 µg/m3 -0.22 µg/m3 65.02 µg/m3 26.24 µg/m3 12.7 µg/m3 0.25 mg/m3 17.88 °C 77.21 % 1,016.17 mbar 2.89 m/s 294.04 Deg 1.86 µg/m3 0.66 µg/m3
2022-11-24 19:00 10.11 µg/m3 -0.27 µg/m3 62.71 µg/m3 27.35 µg/m3 13.12 µg/m3 0.25 mg/m3 18 °C 77.55 % 1,015.71 mbar 2.81 m/s 295.21 Deg 2.22 µg/m3 0.84 µg/m3
2022-11-24 18:00 10.49 µg/m3 -0.28 µg/m3 63.91 µg/m3 29.41 µg/m3 13.02 µg/m3 0.24 mg/m3 18.24 °C 75.58 % 1,015.34 mbar 3.32 m/s 284.3 Deg 2.49 µg/m3 0.79 µg/m3
2022-11-24 17:00 9.06 µg/m3 -0.24 µg/m3 63.26 µg/m3 23.81 µg/m3 11.49 µg/m3 0.24 mg/m3 18.75 °C 72.02 % 1,014.82 mbar 4.07 m/s 292.69 Deg 2.9 µg/m3 0.58 µg/m3
2022-11-24 16:00 9.96 µg/m3 -0.36 µg/m3 62.38 µg/m3 25.86 µg/m3 11.17 µg/m3 0.26 mg/m3 19.31 °C 71.23 % 1,014.24 mbar 4.14 m/s 300.17 Deg 3.57 µg/m3 0.47 µg/m3
2022-11-24 15:00 9.47 µg/m3 -0.08 µg/m3 60.41 µg/m3 23.02 µg/m3 9.85 µg/m3 0.26 mg/m3 19.71 °C 72.35 % 1,014.11 mbar 4.22 m/s 300.49 Deg 3.89 µg/m3 0.55 µg/m3
2022-11-24 14:00 9.37 µg/m3 -0.3 µg/m3 62.44 µg/m3 17.33 µg/m3 7.86 µg/m3 0.25 mg/m3 19.95 °C 69.91 % 1,014.19 mbar 4.49 m/s 291.14 Deg 3.9 µg/m3 0.42 µg/m3
2022-11-24 13:00 9.51 µg/m3 -0.29 µg/m3 56.1 µg/m3 16.56 µg/m3 7.36 µg/m3 0.25 mg/m3 19.94 °C 69.37 % 1,014.32 mbar 4.93 m/s 299.91 Deg 4.71 µg/m3 0.56 µg/m3
2022-11-24 12:00 8.98 µg/m3 -0.19 µg/m3 52.7 µg/m3 22.47 µg/m3 8.75 µg/m3 0.26 mg/m3 19.89 °C 75.08 % 1,014.61 mbar 4.59 m/s 292.84 Deg 4.48 µg/m3 0.5 µg/m3
2022-11-24 11:00 9.65 µg/m3 -0.23 µg/m3 49.53 µg/m3 23.44 µg/m3 8.93 µg/m3 0.24 mg/m3 19.71 °C 79.56 % 1,014.77 mbar 4.76 m/s 282.05 Deg 5.63 µg/m3 0.76 µg/m3
2022-11-24 10:00 10.8 µg/m3 -0.25 µg/m3 45.59 µg/m3 23.62 µg/m3 9.2 µg/m3 0.23 mg/m3 19.68 °C 79.48 % 1,014.54 mbar 3.86 m/s 293.51 Deg 6.15 µg/m3 0.5 µg/m3
2022-11-24 09:00 10.8 µg/m3 -0.22 µg/m3 43.42 µg/m3 18.13 µg/m3 8.19 µg/m3 0.23 mg/m3 19.12 °C 81.31 % 1,013.98 mbar 3.7 m/s 308.08 Deg 6.6 µg/m3 0.55 µg/m3
2022-11-24 08:00 9.54 µg/m3 -0.28 µg/m3 43.96 µg/m3 17.03 µg/m3 8.9 µg/m3 0.22 mg/m3 18.79 °C 81.34 % 1,013.14 mbar 3.91 m/s 299.98 Deg 4.53 µg/m3 0.58 µg/m3
2022-11-24 07:00 8.11 µg/m3 -0.36 µg/m3 44.85 µg/m3 22.17 µg/m3 12.64 µg/m3 0.2 mg/m3 18.93 °C 83.85 % 1,012.21 mbar 4.15 m/s 302.03 Deg 3.75 µg/m3 0.42 µg/m3
2022-11-24 06:00 6.19 µg/m3 -0.45 µg/m3 48.71 µg/m3 25.78 µg/m3 14.86 µg/m3 0.2 mg/m3 19.25 °C 84.99 % 1,011.29 mbar 4.49 m/s 294.46 Deg 1.05 µg/m3 0.26 µg/m3
2022-11-24 05:00 5.67 µg/m3 -0.43 µg/m3 50.53 µg/m3 23.37 µg/m3 14.62 µg/m3 0.19 mg/m3 19.22 °C 86.62 % 1,010.80 mbar 4.59 m/s 297.49 Deg -0.1 µg/m3 0.23 µg/m3
2022-11-24 04:00 10.09 µg/m3 -0.3 µg/m3 49.66 µg/m3 22.76 µg/m3 13.81 µg/m3 0.19 mg/m3 18.74 °C 90.01 % 1,010.70 mbar 3.79 m/s 296.94 Deg 0.06 µg/m3 0.23 µg/m3
2022-11-24 03:00 22.37 µg/m3 -0.3 µg/m3 50.04 µg/m3 24.02 µg/m3 14.06 µg/m3 0.13 mg/m3 19.12 °C 86.58 % 1,010.70 mbar 4.32 m/s 296.18 Deg -0.05 µg/m3 0.26 µg/m3
2022-11-24 02:00 1.63 µg/m3 -0.34 µg/m3 50.25 µg/m3 18.7 µg/m3 11.7 µg/m3 0.18 mg/m3 18.91 °C 88.3 % 1,010.60 mbar 4.85 m/s 291.3 Deg -0.26 µg/m3 0.28 µg/m3
2022-11-24 01:00 1.24 µg/m3 -0.53 µg/m3 51.55 µg/m3 16.18 µg/m3 9.98 µg/m3 0.19 mg/m3 18.45 °C 91.44 % 1,010.48 mbar 4.63 m/s 278.76 Deg 0.12 µg/m3 0.28 µg/m3
2022-11-24 00:00 0.87 µg/m3 -0.46 µg/m3 52.37 µg/m3 8.17 µg/m3 4.98 µg/m3 0.19 mg/m3 18.47 °C 89.75 % 1,010.78 mbar 4.5 m/s 282.01 Deg -0.1 µg/m3 0.34 µg/m3
2022-11-23 23:00 1.17 µg/m3 -0.29 µg/m3 51.6 µg/m3 6.02 µg/m3 3.21 µg/m3 0.2 mg/m3 18.05 °C 90.06 % 1,010.84 mbar 4.18 m/s 278.98 Deg 0.16 µg/m3 0.37 µg/m3
2022-11-23 22:00 1.85 µg/m3 -0.27 µg/m3 51.89 µg/m3 4.27 µg/m3 2.48 µg/m3 0.2 mg/m3 17.01 °C 93.35 % 1,010.86 mbar 5.04 m/s 275.23 Deg 0.41 µg/m3 0.42 µg/m3
2022-11-23 21:00 2.37 µg/m3 -0.43 µg/m3 57.14 µg/m3 10.39 µg/m3 5.76 µg/m3 0.21 mg/m3 18.08 °C 86.79 % 1,010.67 mbar 6.02 m/s 272.18 Deg 0.26 µg/m3 0.44 µg/m3
2022-11-23 20:00 3.87 µg/m3 -0.47 µg/m3 61.27 µg/m3 11.74 µg/m3 6.04 µg/m3 0.21 mg/m3 19.23 °C 75.66 % 1,010.31 mbar 5.36 m/s 285.73 Deg 0.92 µg/m3 0.44 µg/m3
2022-11-23 19:00 4.3 µg/m3 -0.22 µg/m3 64.07 µg/m3 15.99 µg/m3 7.59 µg/m3 0.21 mg/m3 18.83 °C 76.31 % 1,010.01 mbar 5.41 m/s 276.29 Deg 1.09 µg/m3 0.56 µg/m3
2022-11-23 18:00 6.71 µg/m3 -0.25 µg/m3 62.69 µg/m3 14.81 µg/m3 7.31 µg/m3 0.22 mg/m3 18.89 °C 71.66 % 1,009.75 mbar 5.46 m/s 279.26 Deg 2.63 µg/m3 0.65 µg/m3
2022-11-23 17:00 5.91 µg/m3 -0.33 µg/m3 61.42 µg/m3 12.83 µg/m3 6.29 µg/m3 0.21 mg/m3 18.54 °C 72.86 % 1,009.41 mbar 5.74 m/s 275.83 Deg 2.33 µg/m3 0.61 µg/m3
2022-11-23 16:00 7.03 µg/m3 -0.31 µg/m3 61.04 µg/m3 13.07 µg/m3 6 µg/m3 0.2 mg/m3 18.78 °C 71 % 1,009.01 mbar 5.84 m/s 283.86 Deg 3.33 µg/m3 0.47 µg/m3
2022-11-23 15:00 6.9 µg/m3 -0.06 µg/m3 60.86 µg/m3 14.78 µg/m3 6.64 µg/m3 0.19 mg/m3 18.97 °C 68.88 % 1,008.65 mbar 6.48 m/s 272.78 Deg 3.32 µg/m3 0.66 µg/m3
2022-11-23 14:00 7.17 µg/m3 -0.15 µg/m3 63.76 µg/m3 16.6 µg/m3 7.41 µg/m3 0.19 mg/m3 18.87 °C 70.83 % 1,008.90 mbar 5.78 m/s 287.38 Deg 3.16 µg/m3 0.58 µg/m3
2022-11-23 13:00 7.26 µg/m3 0.02 µg/m3 60.2 µg/m3 16.4 µg/m3 7.19 µg/m3 0.18 mg/m3 19.24 °C 64.02 % 1,009.08 mbar 6.52 m/s 274.29 Deg 4.16 µg/m3 0.5 µg/m3
2022-11-23 12:00 5.79 µg/m3 -0.13 µg/m3 42.94 µg/m3 14.3 µg/m3 6.37 µg/m3 0.21 mg/m3 18.55 °C 69.02 % 1,009.69 mbar 6.44 m/s 275.45 Deg 2.65 µg/m3 0.58 µg/m3
2022-11-23 11:00 7.14 µg/m3 0.33 µg/m3 48.4 µg/m3 15.91 µg/m3 7.18 µg/m3 0.23 mg/m3 18.49 °C 66.39 % 1,009.95 mbar 6.88 m/s 273.61 Deg 3.84 µg/m3 0.6 µg/m3
2022-11-23 10:00 8.73 µg/m3 -0.36 µg/m3 57.61 µg/m3 18.76 µg/m3 7.79 µg/m3 0.22 mg/m3 18.45 °C 62.67 % 1,010.06 mbar 5.69 m/s 277.09 Deg 4.94 µg/m3 0.49 µg/m3
2022-11-23 09:00 8.46 µg/m3 -0.22 µg/m3 60.06 µg/m3 19.19 µg/m3 7.39 µg/m3 0.21 mg/m3 17.92 °C 62.12 % 1,009.85 mbar 5.91 m/s 283.61 Deg 4.46 µg/m3 0.58 µg/m3
2022-11-23 08:00 8.99 µg/m3 -0.23 µg/m3 61.88 µg/m3 17.67 µg/m3 7.34 µg/m3 0.21 mg/m3 17.39 °C 63.98 % 1,009.44 mbar 5.43 m/s 288.79 Deg 3.95 µg/m3 0.55 µg/m3
2022-11-23 07:00 9.02 µg/m3 -0.45 µg/m3 63.25 µg/m3 17.36 µg/m3 7.11 µg/m3 0.2 mg/m3 17.25 °C 61.52 % 1,009.11 mbar 5.21 m/s 291.43 Deg 3.46 µg/m3 0.5 µg/m3
2022-11-23 06:00 4.46 µg/m3 -0.36 µg/m3 67.96 µg/m3 15.8 µg/m3 6.79 µg/m3 0.19 mg/m3 17.04 °C 61.83 % 1,009.07 mbar 5.14 m/s 287.34 Deg 0.87 µg/m3 0.37 µg/m3
2022-11-23 05:00 3.69 µg/m3 -0.24 µg/m3 67.78 µg/m3 14.21 µg/m3 6.47 µg/m3 0.2 mg/m3 17.03 °C 60.27 % 1,009.30 mbar 5 m/s 284.1 Deg -0.21 µg/m3 0.39 µg/m3
2022-11-23 04:00 7.34 µg/m3 -0.15 µg/m3 65.77 µg/m3 15.87 µg/m3 6.78 µg/m3 0.2 mg/m3 17.06 °C 61.44 % 1,009.48 mbar 5.03 m/s 286.78 Deg -0.31 µg/m3 0.42 µg/m3
2022-11-23 03:00 19.18 µg/m3 -0.35 µg/m3 66.3 µg/m3 14.55 µg/m3 6.61 µg/m3 0.15 mg/m3 16.5 °C 66.96 % 1,009.68 mbar 4.8 m/s 285.18 Deg -0.37 µg/m3 0.39 µg/m3
2022-11-23 02:00 0.91 µg/m3 -0.39 µg/m3 57.94 µg/m3 15.9 µg/m3 7 µg/m3 0.23 mg/m3 15.49 °C 75.3 % 1,010.04 mbar 4.33 m/s 287.6 Deg -0.37 µg/m3 0.42 µg/m3
2022-11-23 01:00 0.54 µg/m3 -0.5 µg/m3 66.91 µg/m3 17.29 µg/m3 8.67 µg/m3 0.22 mg/m3 12.87 °C 94.69 % 1,010.68 mbar 6.1 m/s 264.51 Deg -0.15 µg/m3 0.42 µg/m3
2022-11-23 00:00 0.53 µg/m3 -0.3 µg/m3 69.88 µg/m3 15.09 µg/m3 7.13 µg/m3 0.21 mg/m3 16.56 °C 63.33 % 1,010.86 mbar 6.48 m/s 272.33 Deg -0.27 µg/m3 0.39 µg/m3
2022-11-22 23:00 1.06 µg/m3 -0.41 µg/m3 69.46 µg/m3 15.81 µg/m3 7.46 µg/m3 0.21 mg/m3 17.79 °C 60.18 % 1,010.65 mbar 5.77 m/s 278.71 Deg 0.09 µg/m3 0.42 µg/m3
2022-11-22 22:00 0.91 µg/m3 -0.07 µg/m3 70.47 µg/m3 15.37 µg/m3 7.15 µg/m3 0.21 mg/m3 17.64 °C 60.08 % 1,010.67 mbar 6.08 m/s 272.01 Deg 0.05 µg/m3 0.39 µg/m3
2022-11-22 21:00 1.58 µg/m3 -0.22 µg/m3 71.94 µg/m3 15.63 µg/m3 6.94 µg/m3 0.21 mg/m3 17.56 °C 58.33 % 1,010.33 mbar 5.75 m/s 277.06 Deg 0.37 µg/m3 0.39 µg/m3
2022-11-22 20:00 2.4 µg/m3 -0.23 µg/m3 68.39 µg/m3 15.32 µg/m3 6.5 µg/m3 0.22 mg/m3 17.77 °C 55.3 % 1,010.06 mbar 5.92 m/s 282.17 Deg 0.62 µg/m3 0.47 µg/m3
2022-11-22 19:00 2.97 µg/m3 -0.16 µg/m3 68.19 µg/m3 16.13 µg/m3 7.42 µg/m3 0.22 mg/m3 17.53 °C 59.05 % 1,009.91 mbar 5.44 m/s 287.39 Deg 0.89 µg/m3 0.47 µg/m3
2022-11-22 18:00 3.79 µg/m3 -0.47 µg/m3 67.04 µg/m3 17.62 µg/m3 8.22 µg/m3 0.22 mg/m3 17.48 °C 59.52 % 1,009.69 mbar 5.97 m/s 285.47 Deg 1.55 µg/m3 0.47 µg/m3
2022-11-22 17:00 5.27 µg/m3 -0.23 µg/m3 66.36 µg/m3 16.71 µg/m3 7.43 µg/m3 0.23 mg/m3 17.4 °C 62.98 % 1,009.08 mbar 5.95 m/s 284.47 Deg 2.42 µg/m3 0.58 µg/m3
2022-11-22 16:00 5.78 µg/m3 -0.2 µg/m3 66.66 µg/m3 22.63 µg/m3 10.39 µg/m3 0.23 mg/m3 17.7 °C 67.31 % 1,008.63 mbar 6.27 m/s 286.26 Deg 2.48 µg/m3 0.5 µg/m3
2022-11-22 15:00 5.81 µg/m3 -0.47 µg/m3 63.23 µg/m3 22.63 µg/m3 8.8 µg/m3 0.22 mg/m3 19.02 °C 58.76 % 1,007.75 mbar 7.6 m/s 274.55 Deg 2.81 µg/m3 0.58 µg/m3
2022-11-22 14:00 7.26 µg/m3 -0.03 µg/m3 57.4 µg/m3 31.68 µg/m3 11.77 µg/m3 0.21 mg/m3 17.97 °C 75.9 % 1,007.81 mbar 6.8 m/s 265.48 Deg 2.33 µg/m3 0.5 µg/m3
2022-11-22 13:00 4.85 µg/m3 -0.25 µg/m3 61.88 µg/m3 63.16 µg/m3 19.29 µg/m3 0.23 mg/m3 19.36 °C 65.32 % 1,007.96 mbar 9.77 m/s 268.12 Deg 1.9 µg/m3 0.44 µg/m3
2022-11-22 12:00 5.99 µg/m3 -0.17 µg/m3 63.6 µg/m3 85.27 µg/m3 24.45 µg/m3 0.25 mg/m3 20.39 °C 63.35 % 1,008.11 mbar 10.91 m/s 255.24 Deg 2.28 µg/m3 0.52 µg/m3
2022-11-22 11:00 6.83 µg/m3 -0.08 µg/m3 63.41 µg/m3 59.27 µg/m3 18.38 µg/m3 0.25 mg/m3 20.05 °C 62.38 % 1,008.32 mbar 10.55 m/s 239.37 Deg 2.81 µg/m3 0.52 µg/m3
2022-11-22 10:00 9.53 µg/m3 -0.08 µg/m3 61.57 µg/m3 61.55 µg/m3 17.79 µg/m3 0.24 mg/m3 19.81 °C 62.31 % 1,008.05 mbar 9.96 m/s 251.2 Deg 4.47 µg/m3 0.58 µg/m3
2022-11-22 09:00 10.25 µg/m3 0.01 µg/m3 59.78 µg/m3 37.13 µg/m3 12.43 µg/m3 0.24 mg/m3 19.52 °C 62.57 % 1,008.09 mbar 9.97 m/s 244.75 Deg 4.83 µg/m3 0.47 µg/m3
2022-11-22 08:00 11.31 µg/m3 -0.21 µg/m3 60.04 µg/m3 29.38 µg/m3 10.62 µg/m3 0.24 mg/m3 18.8 °C 66.16 % 1,008.31 mbar 9.07 m/s 241.87 Deg 4.55 µg/m3 0.63 µg/m3
2022-11-22 07:00 13.27 µg/m3 -0.35 µg/m3 60.58 µg/m3 29.62 µg/m3 10.57 µg/m3 0.23 mg/m3 18.53 °C 64.24 % 1,009.07 mbar 8.87 m/s 241.65 Deg 6.12 µg/m3 0.55 µg/m3
2022-11-22 06:00 8.47 µg/m3 -0.14 µg/m3 69.18 µg/m3 33.03 µg/m3 11.64 µg/m3 0.22 mg/m3 18.29 °C 61.04 % 1,009.59 mbar 7.93 m/s 238.34 Deg 2.99 µg/m3 0.42 µg/m3
2022-11-22 05:00 4.49 µg/m3 -0.2 µg/m3 73.77 µg/m3 33.11 µg/m3 11.67 µg/m3 0.21 mg/m3 18.35 °C 57.66 % 1,010.32 mbar 7.5 m/s 242.09 Deg 0.21 µg/m3 0.42 µg/m3
2022-11-22 04:00 7.43 µg/m3 -0.21 µg/m3 74.43 µg/m3 28.91 µg/m3 9.66 µg/m3 0.21 mg/m3 18.62 °C 54.88 % 1,011.62 mbar 7.02 m/s 244.01 Deg 0.04 µg/m3 0.42 µg/m3
2022-11-22 03:00 19.13 µg/m3 -0.15 µg/m3 73.79 µg/m3 29.06 µg/m3 9.34 µg/m3 0.14 mg/m3 19.07 °C 55.78 % 1,012.63 mbar 6.99 m/s 248.35 Deg -0.04 µg/m3 0.42 µg/m3
2022-11-22 02:00 0.95 µg/m3 -0.08 µg/m3 70.73 µg/m3 23.43 µg/m3 6.86 µg/m3 0.2 mg/m3 18.83 °C 55.88 % 1,013.14 mbar 5.59 m/s 245.05 Deg -0.17 µg/m3 0.42 µg/m3
2022-11-22 01:00 1.41 µg/m3 0.02 µg/m3 69.82 µg/m3 9.5 µg/m3 3.18 µg/m3 0.22 mg/m3 18.63 °C 57.04 % 1,014.17 mbar 5.24 m/s 244.95 Deg 0.08 µg/m3 0.39 µg/m3
2022-11-22 00:00 2.34 µg/m3 -0.11 µg/m3 69.14 µg/m3 8.51 µg/m3 2.83 µg/m3 0.22 mg/m3 18.01 °C 61.13 % 1,014.89 mbar 4.33 m/s 239.57 Deg 0.25 µg/m3 0.55 µg/m3
2022-11-21 23:00 5.18 µg/m3 -0.05 µg/m3 64.12 µg/m3 8.31 µg/m3 3.06 µg/m3 0.23 mg/m3 17.83 °C 65.41 % 1,015.36 mbar 3.8 m/s 240.77 Deg 0.79 µg/m3 0.58 µg/m3
2022-11-21 22:00 5.31 µg/m3 0.01 µg/m3 65.91 µg/m3 9.84 µg/m3 3.68 µg/m3 0.23 mg/m3 17.92 °C 64.95 % 1,015.61 mbar 3.97 m/s 239.98 Deg 0.63 µg/m3 0.52 µg/m3
2022-11-21 21:00 7.37 µg/m3 -0.03 µg/m3 64.57 µg/m3 14.62 µg/m3 4.5 µg/m3 0.22 mg/m3 17.84 °C 66.68 % 1,015.48 mbar 3.98 m/s 249.07 Deg 0.96 µg/m3 0.63 µg/m3
2022-11-21 20:00 6.13 µg/m3 -0.18 µg/m3 65.59 µg/m3 14.63 µg/m3 4.56 µg/m3 0.23 mg/m3 18.07 °C 67.85 % 1,015.52 mbar 4.02 m/s 262.47 Deg 0.74 µg/m3 0.47 µg/m3
2022-11-21 19:00 6.8 µg/m3 -0.31 µg/m3 65.92 µg/m3 13.74 µg/m3 4.73 µg/m3 0.23 mg/m3 18.14 °C 66.3 % 1,015.88 mbar 4.03 m/s 273.85 Deg 1.61 µg/m3 0.73 µg/m3
2022-11-21 18:00 9.52 µg/m3 -0.05 µg/m3 66.91 µg/m3 14.08 µg/m3 5.1 µg/m3 0.24 mg/m3 18.17 °C 66.71 % 1,015.87 mbar 3.74 m/s 283.19 Deg 2.56 µg/m3 0.66 µg/m3
2022-11-21 17:00 7.38 µg/m3 -0.09 µg/m3 66.51 µg/m3 10.71 µg/m3 4.76 µg/m3 0.23 mg/m3 18.44 °C 67.02 % 1,015.72 mbar 4.49 m/s 286.99 Deg 2.92 µg/m3 0.56 µg/m3
2022-11-21 16:00 7.78 µg/m3 -0.24 µg/m3 64.22 µg/m3 12.26 µg/m3 5.45 µg/m3 0.23 mg/m3 18.44 °C 69.34 % 1,015.65 mbar 4.96 m/s 290.25 Deg 3.31 µg/m3 0.5 µg/m3
2022-11-21 15:00 7.49 µg/m3 -0.04 µg/m3 61.52 µg/m3 12.61 µg/m3 5.77 µg/m3 0.23 mg/m3 17.58 °C 76.54 % 1,015.74 mbar 4.46 m/s 283.98 Deg 2.75 µg/m3 0.44 µg/m3
2022-11-21 14:00 9.61 µg/m3 -0.12 µg/m3 62.03 µg/m3 12.63 µg/m3 5.63 µg/m3 0.22 mg/m3 17.68 °C 73.62 % 1,015.92 mbar 4.27 m/s 296.78 Deg 3.65 µg/m3 0.47 µg/m3
2022-11-21 13:00 7.78 µg/m3 -0.09 µg/m3 61.74 µg/m3 13.07 µg/m3 5.84 µg/m3 0.21 mg/m3 17.93 °C 73.13 % 1,016.14 mbar 4.24 m/s 294.8 Deg 3.44 µg/m3 0.58 µg/m3
2022-11-21 12:00 11.53 µg/m3 -0.09 µg/m3 59.86 µg/m3 12.97 µg/m3 5.84 µg/m3 0.19 mg/m3 16.61 °C 80.12 % 1,016.82 mbar 3.7 m/s 323.97 Deg 5.3 µg/m3 0.42 µg/m3
2022-11-21 11:00 9.41 µg/m3 0.11 µg/m3 61.43 µg/m3 13.18 µg/m3 6.34 µg/m3 0.21 mg/m3 16.73 °C 76.65 % 1,017.09 mbar 3.54 m/s 295.74 Deg 3.29 µg/m3 0.42 µg/m3
2022-11-21 10:00 9.76 µg/m3 0.05 µg/m3 61.79 µg/m3 23.96 µg/m3 8.11 µg/m3 0.21 mg/m3 18.14 °C 59.79 % 1,016.78 mbar 4.11 m/s 299.65 Deg 3.46 µg/m3 0.65 µg/m3
2022-11-21 09:00 11.12 µg/m3 0.34 µg/m3 52.99 µg/m3 18.65 µg/m3 6.8 µg/m3 0.22 mg/m3 17.94 °C 53.04 % 1,016.39 mbar 4.5 m/s 296.19 Deg 4.24 µg/m3 0.63 µg/m3
2022-11-21 08:00 11.98 µg/m3 -0.04 µg/m3 60.66 µg/m3 18.88 µg/m3 7.53 µg/m3 0.22 mg/m3 17.15 °C 58.23 % 1,015.87 mbar 3.76 m/s 303.12 Deg 4.54 µg/m3 0.5 µg/m3
2022-11-21 07:00 9.46 µg/m3 0.15 µg/m3 61.78 µg/m3 18.06 µg/m3 8.25 µg/m3 0.22 mg/m3 16.49 °C 70.17 % 1,015.29 mbar 4.14 m/s 312.71 Deg 3.22 µg/m3 0.61 µg/m3
2022-11-21 06:00 5.58 µg/m3 -0.01 µg/m3 63.51 µg/m3 15.08 µg/m3 7.06 µg/m3 0.21 mg/m3 16.22 °C 75.52 % 1,014.70 mbar 2.75 m/s 307.39 Deg 0.48 µg/m3 0.42 µg/m3
2022-11-21 05:00 5.5 µg/m3 0.18 µg/m3 65.78 µg/m3 13.8 µg/m3 5.54 µg/m3 0.19 mg/m3 16.48 °C 71.38 % 1,014.17 mbar 2.59 m/s 296.08 Deg 0.19 µg/m3 0.42 µg/m3
2022-11-21 04:00 7.83 µg/m3 0.15 µg/m3 67.6 µg/m3 13.85 µg/m3 5.87 µg/m3 0.19 mg/m3 16.59 °C 70.21 % 1,013.87 mbar 2.69 m/s 291.58 Deg -0.18 µg/m3 0.39 µg/m3
2022-11-21 03:00 18.81 µg/m3 0.08 µg/m3 69.43 µg/m3 12.01 µg/m3 5.47 µg/m3 0.15 mg/m3 16.83 °C 69.38 % 1,013.77 mbar 4.9 m/s 287.84 Deg -0.05 µg/m3 0.37 µg/m3
2022-11-21 02:00 0.84 µg/m3 0.35 µg/m3 70.43 µg/m3 11.9 µg/m3 5.04 µg/m3 0.25 mg/m3 17.13 °C 67.6 % 1,013.78 mbar 4.88 m/s 289.6 Deg -0.16 µg/m3 0.37 µg/m3
2022-11-21 01:00 0.32 µg/m3 -0.03 µg/m3 67.26 µg/m3 14.45 µg/m3 7.31 µg/m3 0.25 mg/m3 16.45 °C 71.91 % 1,013.99 mbar 4.54 m/s 305.05 Deg -0.05 µg/m3 0.31 µg/m3
2022-11-21 00:00 0.62 µg/m3 0.16 µg/m3 69.17 µg/m3 16.59 µg/m3 7.9 µg/m3 0.25 mg/m3 17.54 °C 66.61 % 1,013.89 mbar 5.24 m/s 296.67 Deg 0.04 µg/m3 0.31 µg/m3
2022-11-20 23:00 1.31 µg/m3 0.4 µg/m3 68.1 µg/m3 18.07 µg/m3 8.31 µg/m3 0.26 mg/m3 18.22 °C 60.86 % 1,013.49 mbar 5.19 m/s 291.24 Deg 0.26 µg/m3 0.37 µg/m3
2022-11-20 22:00 1.78 µg/m3 0.37 µg/m3 67.86 µg/m3 18.7 µg/m3 8.07 µg/m3 0.26 mg/m3 18.35 °C 58.72 % 1,013.00 mbar 5.62 m/s 293.63 Deg 0.43 µg/m3 0.39 µg/m3
2022-11-20 21:00 1.38 µg/m3 0.37 µg/m3 67.4 µg/m3 16.94 µg/m3 7.33 µg/m3 0.27 mg/m3 18.24 °C 61.89 % 1,012.26 mbar 5.28 m/s 297.51 Deg 0.5 µg/m3 0.42 µg/m3
2022-11-20 20:00 2.61 µg/m3 0.45 µg/m3 68.42 µg/m3 13.83 µg/m3 5.96 µg/m3 0.27 mg/m3 18.01 °C 64.22 % 1,011.65 mbar 5.02 m/s 295.91 Deg 0.72 µg/m3 0.39 µg/m3
2022-11-20 19:00 3.5 µg/m3 0.47 µg/m3 66.27 µg/m3 13.17 µg/m3 5.18 µg/m3 0.28 mg/m3 17.75 °C 64.69 % 1,010.95 mbar 5 m/s 278.29 Deg 1.27 µg/m3 0.49 µg/m3
2022-11-20 18:00 4.16 µg/m3 0.66 µg/m3 66.09 µg/m3 11.74 µg/m3 4.85 µg/m3 0.29 mg/m3 17.31 °C 66.62 % 1,010.02 mbar 4.79 m/s 293.43 Deg 1.16 µg/m3 0.42 µg/m3
2022-11-20 17:00 4.61 µg/m3 0.7 µg/m3 67.35 µg/m3 8.38 µg/m3 3.59 µg/m3 0.29 mg/m3 16.47 °C 71.13 % 1,009.48 mbar 5.07 m/s 283.78 Deg 1.52 µg/m3 0.37 µg/m3
2022-11-20 16:00 3.5 µg/m3 0.86 µg/m3 65.09 µg/m3 7.05 µg/m3 3.01 µg/m3 0.3 mg/m3 17.08 °C 68.13 % 1,008.68 mbar 5.74 m/s 282.05 Deg 1.48 µg/m3 0.44 µg/m3
2022-11-20 15:00 3.48 µg/m3 1.12 µg/m3 63.9 µg/m3 11.33 µg/m3 4.09 µg/m3 0.32 mg/m3 16.66 °C 74.14 % 1,008.31 mbar 5.83 m/s 278.29 Deg 0.84 µg/m3 0.44 µg/m3
2022-11-20 14:00 11.23 µg/m3 2.12 µg/m3 56.34 µg/m3 15.17 µg/m3 5.84 µg/m3 0.29 mg/m3 14.12 °C 92.15 % 1,008.29 mbar 4.04 m/s 256.9 Deg 4.5 µg/m3 0.63 µg/m3
2022-11-20 13:00 5.88 µg/m3 7.43 µg/m3 63.93 µg/m3 9.62 µg/m3 3.44 µg/m3 0.2 mg/m3 16.29 °C 72.55 % 1,008.63 mbar 4.06 m/s 283.88 Deg 1.84 µg/m3 0.63 µg/m3
2022-11-20 12:00 6.17 µg/m3 7.43 µg/m3 67.69 µg/m3 14.16 µg/m3 5.72 µg/m3 0.22 mg/m3 12.83 °C 89.72 % 1,009.36 mbar 5.69 m/s 286 Deg 2.26 µg/m3 0.68 µg/m3
2022-11-20 11:00 5.86 µg/m3 8.35 µg/m3 63.69 µg/m3 11.6 µg/m3 4.37 µg/m3 0.23 mg/m3 16.32 °C 76.79 % 1,008.89 mbar 4.91 m/s 299.77 Deg 1.66 µg/m3 0.7 µg/m3
2022-11-20 10:00 5.55 µg/m3 8.14 µg/m3 61.65 µg/m3 20.57 µg/m3 7.38 µg/m3 0.24 mg/m3 17.26 °C 79.86 % 1,008.09 mbar 4.98 m/s 319.13 Deg 1.33 µg/m3 0.56 µg/m3
2022-11-20 09:00 5.92 µg/m3 8.63 µg/m3 56.99 µg/m3 174.52 µg/m3 44.82 µg/m3 0.24 mg/m3 19.12 °C 67.35 % 1,006.75 mbar 6.49 m/s 254.37 Deg 2.11 µg/m3 0.68 µg/m3
2022-11-20 08:00 11 µg/m3 9.52 µg/m3 42.11 µg/m3 148.77 µg/m3 39.53 µg/m3 0.27 mg/m3 18.71 °C 80.22 % 1,006.04 mbar 4.24 m/s 220.83 Deg 2.01 µg/m3 0.98 µg/m3
2022-11-20 07:00 21.68 µg/m3 9.89 µg/m3 27.42 µg/m3 18.26 µg/m3 6.72 µg/m3 0.29 mg/m3 17.58 °C 86.3 % 1,006.28 mbar 1.2 m/s 175.41 Deg 9.77 µg/m3 1.94 µg/m3
2022-11-20 06:00 28.54 µg/m3 9.85 µg/m3 23.49 µg/m3 16.97 µg/m3 5.75 µg/m3 0.26 mg/m3 17.08 °C 86.87 % 1,007.03 mbar 0.41 m/s 277.25 Deg 17.62 µg/m3 1.13 µg/m3
2022-11-20 05:00 9.65 µg/m3 9.75 µg/m3 51.86 µg/m3 17.42 µg/m3 6.09 µg/m3 0.23 mg/m3 18.15 °C 80.91 % 1,007.76 mbar 0.93 m/s 204.19 Deg 3.75 µg/m3 0.56 µg/m3
2022-11-20 04:00 17.62 µg/m3 9.91 µg/m3 40.29 µg/m3 17.29 µg/m3 6.5 µg/m3 0.24 mg/m3 17.79 °C 83.11 % 1,008.00 mbar 1.04 m/s 218.3 Deg 1.71 µg/m3 0.6 µg/m3
2022-11-20 03:00 31.15 µg/m3 10.27 µg/m3 45.9 µg/m3 18.84 µg/m3 7.16 µg/m3 0.18 mg/m3 18.47 °C 80.64 % 1,008.32 mbar 0.78 m/s 220.69 Deg 2.93 µg/m3 0.63 µg/m3
2022-11-20 02:00 7.65 µg/m3 10.4 µg/m3 51.52 µg/m3 21.41 µg/m3 7.36 µg/m3 0.28 mg/m3 18.92 °C 79.41 % 1,008.93 mbar 0.86 m/s 263.12 Deg 0.72 µg/m3 0.84 µg/m3
2022-11-20 01:00 4.53 µg/m3 10.73 µg/m3 60.28 µg/m3 20.06 µg/m3 7.06 µg/m3 0.27 mg/m3 19.48 °C 78.06 % 1,009.02 mbar 1.51 m/s 336.74 Deg 0.95 µg/m3 1 µg/m3
2022-11-20 00:00 5.82 µg/m3 10.3 µg/m3 58.71 µg/m3 19.54 µg/m3 6.91 µg/m3 0.26 mg/m3 19.88 °C 78.26 % 1,009.32 mbar 2.09 m/s 346.65 Deg 0.62 µg/m3 0.63 µg/m3
2022-11-19 23:00 4.43 µg/m3 9.46 µg/m3 51.54 µg/m3 122.06 µg/m3 32 µg/m3 0.26 mg/m3 20.83 °C 78.64 % 1,009.17 mbar 3.56 m/s 146.78 Deg 0.49 µg/m3 0.68 µg/m3
2022-11-19 22:00 3.62 µg/m3 9.9 µg/m3 47.74 µg/m3 118.39 µg/m3 32.01 µg/m3 0.28 mg/m3 21.86 °C 74.09 % 1,009.09 mbar 4.53 m/s 268.28 Deg 0.87 µg/m3 0.6 µg/m3
2022-11-19 21:00 7.25 µg/m3 11.01 µg/m3 45.05 µg/m3 152.79 µg/m3 39.62 µg/m3 0.31 mg/m3 22.41 °C 74.43 % 1,008.52 mbar 4.97 m/s 246.13 Deg 2.25 µg/m3 0.91 µg/m3
2022-11-19 20:00 10.57 µg/m3 11.21 µg/m3 47.28 µg/m3 142.65 µg/m3 37.09 µg/m3 0.34 mg/m3 22.27 °C 78.4 % 1,008.16 mbar 4.43 m/s 235.65 Deg 3.13 µg/m3 1.15 µg/m3
2022-11-19 19:00 18.25 µg/m3 11.6 µg/m3 52.39 µg/m3 86.39 µg/m3 25.65 µg/m3 0.36 mg/m3 22.53 °C 76.78 % 1,007.73 mbar 4.24 m/s 237 Deg 5.87 µg/m3 2.26 µg/m3
2022-11-19 18:00 26.7 µg/m3 11.9 µg/m3 46.11 µg/m3 55.91 µg/m3 17.52 µg/m3 0.37 mg/m3 22.38 °C 81.02 % 1,007.44 mbar 3.15 m/s 227.28 Deg 8.14 µg/m3 3.04 µg/m3
2022-11-19 17:00 23.49 µg/m3 12.1 µg/m3 45.17 µg/m3 46.39 µg/m3 14.2 µg/m3 0.37 mg/m3 22.42 °C 80.48 % 1,007.46 mbar 3.13 m/s 233.83 Deg 7.53 µg/m3 1.87 µg/m3
2022-11-19 16:00 19.96 µg/m3 11.77 µg/m3 40.55 µg/m3 38.6 µg/m3 12.33 µg/m3 0.35 mg/m3 22.98 °C 79.6 % 1,007.30 mbar 3.3 m/s 229.13 Deg 8.85 µg/m3 1.84 µg/m3
2022-11-19 15:00 15.39 µg/m3 11.81 µg/m3 40.08 µg/m3 35.78 µg/m3 10.43 µg/m3 0.34 mg/m3 23.43 °C 76.93 % 1,007.75 mbar 4.56 m/s 236.62 Deg 8.68 µg/m3 1.47 µg/m3
2022-11-19 14:00 14.36 µg/m3 11.65 µg/m3 41.7 µg/m3 26.12 µg/m3 8.28 µg/m3 0.34 mg/m3 23.85 °C 72.37 % 1,007.95 mbar 5.15 m/s 236.33 Deg 9.1 µg/m3 1.05 µg/m3
2022-11-19 13:00 14.22 µg/m3 11.46 µg/m3 43.47 µg/m3 27.69 µg/m3 8.41 µg/m3 0.35 mg/m3 24.04 °C 72.73 % 1,008.07 mbar 5.56 m/s 237.54 Deg 7.9 µg/m3 1.68 µg/m3
2022-11-19 12:00 18.83 µg/m3 11.41 µg/m3 50.35 µg/m3 38.91 µg/m3 13.2 µg/m3 0.38 mg/m3 23.81 °C 75.61 % 1,008.60 mbar 5.29 m/s 238.44 Deg 8.29 µg/m3 3.36 µg/m3
2022-11-19 11:00 20.27 µg/m3 10.36 µg/m3 44.34 µg/m3 48.84 µg/m3 16.8 µg/m3 0.38 mg/m3 23.63 °C 78.15 % 1,009.04 mbar 4.8 m/s 234.61 Deg 10.96 µg/m3 3.08 µg/m3
2022-11-19 10:00 22.39 µg/m3 10.38 µg/m3 36.23 µg/m3 62.97 µg/m3 20.82 µg/m3 0.37 mg/m3 22.99 °C 82.62 % 1,009.04 mbar 4.34 m/s 227.43 Deg 12.89 µg/m3 1.81 µg/m3
2022-11-19 09:00 26.89 µg/m3 9.99 µg/m3 33.46 µg/m3 73.47 µg/m3 22.11 µg/m3 0.35 mg/m3 22.21 °C 84.84 % 1,008.75 mbar 3.06 m/s 222.58 Deg 14.22 µg/m3 1.78 µg/m3
2022-11-19 08:00 32.76 µg/m3 10.05 µg/m3 25.91 µg/m3 58.74 µg/m3 17.89 µg/m3 0.32 mg/m3 21.25 °C 89.03 % 1,008.77 mbar 2.27 m/s 218.02 Deg 18.02 µg/m3 1.73 µg/m3
2022-11-19 07:00 28.49 µg/m3 9.78 µg/m3 28.66 µg/m3 60.06 µg/m3 17.55 µg/m3 0.3 mg/m3 20.68 °C 89.76 % 1,008.72 mbar 2.19 m/s 214.94 Deg 13.24 µg/m3 1.21 µg/m3
2022-11-19 06:00 19.38 µg/m3 9.69 µg/m3 35.07 µg/m3 77.41 µg/m3 21.94 µg/m3 0.29 mg/m3 20.38 °C 89.43 % 1,008.65 mbar 1.88 m/s 205.49 Deg 6.38 µg/m3 0.82 µg/m3
2022-11-19 05:00 9.87 µg/m3 9.78 µg/m3 42.84 µg/m3 73.51 µg/m3 20.17 µg/m3 0.28 mg/m3 20.59 °C 89.61 % 1,008.69 mbar 1.97 m/s 209.01 Deg 1.12 µg/m3 0.73 µg/m3
2022-11-19 04:00 16.4 µg/m3 9.36 µg/m3 41 µg/m3 65.86 µg/m3 17.88 µg/m3 0.29 mg/m3 20.3 °C 91.27 % 1,008.97 mbar 1.78 m/s 228 Deg 1.98 µg/m3 0.68 µg/m3
2022-11-19 03:00 28.25 µg/m3 9.62 µg/m3 36.15 µg/m3 57.49 µg/m3 15.28 µg/m3 0.2 mg/m3 19.95 °C 91.33 % 1,009.17 mbar 1.42 m/s 225.79 Deg 2.03 µg/m3 0.63 µg/m3
2022-11-19 02:00 15.69 µg/m3 9.54 µg/m3 24.99 µg/m3 33.23 µg/m3 10.36 µg/m3 0.3 mg/m3 19.88 °C 92.3 % 1,009.55 mbar 1.45 m/s 220.46 Deg 4.7 µg/m3 1.08 µg/m3
2022-11-19 01:00 10.17 µg/m3 9.78 µg/m3 32.95 µg/m3 30.43 µg/m3 9.33 µg/m3 0.33 mg/m3 19.26 °C 90.75 % 1,009.72 mbar 1.29 m/s 250 Deg 3.4 µg/m3 0.89 µg/m3
2022-11-19 00:00 24.81 µg/m3 9.98 µg/m3 24.8 µg/m3 27.09 µg/m3 8.28 µg/m3 0.4 mg/m3 19.24 °C 87.6 % 1,010.11 mbar 1.21 m/s 246.61 Deg 12.16 µg/m3 2.59 µg/m3
2022-11-18 23:00 14.33 µg/m3 9.9 µg/m3 40.7 µg/m3 25.37 µg/m3 7.74 µg/m3 0.4 mg/m3 20.13 °C 84.12 % 1,010.34 mbar 1.37 m/s 229.38 Deg 5.47 µg/m3 1.45 µg/m3
2022-11-18 22:00 14.84 µg/m3 10.02 µg/m3 41.85 µg/m3 27.04 µg/m3 8.4 µg/m3 0.38 mg/m3 20.38 °C 84.03 % 1,010.47 mbar 1.67 m/s 240.24 Deg 4.08 µg/m3 1.15 µg/m3
2022-11-18 21:00 18.71 µg/m3 10.08 µg/m3 39.3 µg/m3 28.62 µg/m3 9.04 µg/m3 0.36 mg/m3 20.7 °C 83.5 % 1,010.55 mbar 2.24 m/s 238.54 Deg 5.76 µg/m3 2.03 µg/m3
2022-11-18 20:00 22.86 µg/m3 9.81 µg/m3 30.76 µg/m3 40.53 µg/m3 12.06 µg/m3 0.35 mg/m3 20.8 °C 86.27 % 1,010.46 mbar 2.19 m/s 243.85 Deg 7.21 µg/m3 1.57 µg/m3
2022-11-18 19:00 24.3 µg/m3 9.9 µg/m3 30.17 µg/m3 48.83 µg/m3 14.24 µg/m3 0.35 mg/m3 21.26 °C 86.21 % 1,010.09 mbar 2.48 m/s 240.68 Deg 7.42 µg/m3 1.52 µg/m3
2022-11-18 18:00 31.77 µg/m3 9.16 µg/m3 30.38 µg/m3 60.55 µg/m3 16.53 µg/m3 0.33 mg/m3 21.35 °C 87.28 % 1,009.69 mbar 2.38 m/s 242.82 Deg 13.68 µg/m3 1.7 µg/m3
2022-11-18 17:00 21 µg/m3 8.29 µg/m3 43.38 µg/m3 66.97 µg/m3 17.44 µg/m3 0.3 mg/m3 22.11 °C 81.93 % 1,009.37 mbar 3.68 m/s 248.63 Deg 7.46 µg/m3 1.05 µg/m3
2022-11-18 16:00 12.97 µg/m3 7.84 µg/m3 49.18 µg/m3 49.3 µg/m3 13.31 µg/m3 0.28 mg/m3 22.8 °C 76.86 % 1,009.20 mbar 5.42 m/s 257.59 Deg 5.04 µg/m3 0.63 µg/m3
2022-11-18 15:00 12.44 µg/m3 7.78 µg/m3 53.74 µg/m3 30.23 µg/m3 9.12 µg/m3 0.28 mg/m3 23.2 °C 74.78 % 1,009.29 mbar 5.93 m/s 257.84 Deg 4.6 µg/m3 0.76 µg/m3
2022-11-18 14:00 11.09 µg/m3 7.71 µg/m3 52.08 µg/m3 26.06 µg/m3 8 µg/m3 0.28 mg/m3 23.44 °C 73.72 % 1,009.26 mbar 5.41 m/s 259.43 Deg 4.8 µg/m3 0.68 µg/m3
2022-11-18 13:00 9.56 µg/m3 7.25 µg/m3 53.04 µg/m3 20.92 µg/m3 7.22 µg/m3 0.27 mg/m3 23.61 °C 71.74 % 1,009.48 mbar 5.1 m/s 270.19 Deg 4.63 µg/m3 0.91 µg/m3
2022-11-18 12:00 11.01 µg/m3 6.48 µg/m3 52.62 µg/m3 20.21 µg/m3 7.12 µg/m3 0.27 mg/m3 23.64 °C 71.61 % 1,010.02 mbar 5 m/s 269.83 Deg 6.45 µg/m3 0.7 µg/m3
2022-11-18 11:00 10.82 µg/m3 5.32 µg/m3 51.68 µg/m3 18.33 µg/m3 6.51 µg/m3 0.26 mg/m3 23.44 °C 70.72 % 1,010.41 mbar 5.17 m/s 272.65 Deg 5.2 µg/m3 0.79 µg/m3
2022-11-18 10:00 14.84 µg/m3 3.57 µg/m3 49.96 µg/m3 19.72 µg/m3 6.88 µg/m3 0.26 mg/m3 22.74 °C 76.25 % 1,010.07 mbar 5.75 m/s 256.18 Deg 7.94 µg/m3 0.87 µg/m3
2022-11-18 09:00 12.2 µg/m3 2.48 µg/m3 51.2 µg/m3 20.56 µg/m3 6.64 µg/m3 0.26 mg/m3 22.25 °C 76.74 % 1,009.87 mbar 5.91 m/s 260.14 Deg 4.55 µg/m3 0.79 µg/m3
2022-11-18 08:00 16.07 µg/m3 0 µg/m3 46.6 µg/m3 17.62 µg/m3 5.93 µg/m3 0.25 mg/m3 21.56 °C 78.51 % 1,009.37 mbar 5.27 m/s 262.25 Deg 5.85 µg/m3 0.86 µg/m3
2022-11-18 07:00 16.02 µg/m3 0.19 µg/m3 46.14 µg/m3 12.97 µg/m3 5.19 µg/m3 0.24 mg/m3 21.1 °C 80.04 % 1,008.94 mbar 4.82 m/s 262.24 Deg 6.02 µg/m3 0.65 µg/m3
2022-11-18 06:00 8.46 µg/m3 0.41 µg/m3 49.83 µg/m3 11 µg/m3 5.24 µg/m3 0.22 mg/m3 20.88 °C 79.78 % 1,008.78 mbar 4.91 m/s 262.34 Deg 1.8 µg/m3 0.58 µg/m3
2022-11-18 05:00 5.7 µg/m3 0.21 µg/m3 56.6 µg/m3 11.54 µg/m3 5.83 µg/m3 0.21 mg/m3 21.05 °C 76.69 % 1,008.83 mbar 4.2 m/s 282.56 Deg -0.21 µg/m3 0.42 µg/m3
2022-11-18 04:00 9.1 µg/m3 0.25 µg/m3 60.68 µg/m3 9.19 µg/m3 4.9 µg/m3 0.19 mg/m3 21.16 °C 79.56 % 1,008.84 mbar 5.62 m/s 272.02 Deg 0.18 µg/m3 0.42 µg/m3
2022-11-18 03:00 22.66 µg/m3 0.04 µg/m3 65.44 µg/m3 9.69 µg/m3 4.53 µg/m3 0.14 mg/m3 20.98 °C 79.02 % 1,008.97 mbar 5.83 m/s 260.19 Deg -0.13 µg/m3 0.42 µg/m3
2022-11-18 02:00 2.15 µg/m3 0.1 µg/m3 63.9 µg/m3 9.92 µg/m3 4.84 µg/m3 0.21 mg/m3 20.55 °C 78.92 % 1,009.09 mbar 4.74 m/s 261.25 Deg 0.01 µg/m3 0.52 µg/m3
2022-11-18 01:00 2.91 µg/m3 0.25 µg/m3 62.26 µg/m3 10.99 µg/m3 4.98 µg/m3 0.22 mg/m3 20.24 °C 79.5 % 1,009.38 mbar 3.8 m/s 265.71 Deg 0.11 µg/m3 0.56 µg/m3
2022-11-18 00:00 5 µg/m3 0.24 µg/m3 58.36 µg/m3 11.5 µg/m3 4.9 µg/m3 0.25 mg/m3 19.99 °C 77.62 % 1,009.74 mbar 2.71 m/s 265.46 Deg 0.33 µg/m3 0.44 µg/m3
2022-11-17 23:00 4.45 µg/m3 0.16 µg/m3 57.39 µg/m3 12.94 µg/m3 5.04 µg/m3 0.24 mg/m3 19.91 °C 77.19 % 1,009.89 mbar 2.55 m/s 265.47 Deg 0.12 µg/m3 0.47 µg/m3
2022-11-17 22:00 4.78 µg/m3 0.22 µg/m3 59.1 µg/m3 13.55 µg/m3 5.36 µg/m3 0.24 mg/m3 20.3 °C 77.27 % 1,009.84 mbar 2.5 m/s 282.79 Deg 0.69 µg/m3 0.56 µg/m3
2022-11-17 21:00 7.47 µg/m3 0.26 µg/m3 59.92 µg/m3 15.84 µg/m3 6.06 µg/m3 0.26 mg/m3 20.43 °C 77.65 % 1,009.63 mbar 2.22 m/s 279.85 Deg 1.02 µg/m3 1.05 µg/m3
2022-11-17 20:00 8.92 µg/m3 0.4 µg/m3 60.41 µg/m3 15.78 µg/m3 6.26 µg/m3 0.27 mg/m3 20.2 °C 77.56 % 1,009.43 mbar 2.23 m/s 280.11 Deg 1.01 µg/m3 0.65 µg/m3
2022-11-17 19:00 9.07 µg/m3 0.07 µg/m3 60.24 µg/m3 17.97 µg/m3 7.12 µg/m3 0.27 mg/m3 20.37 °C 78.59 % 1,009.02 mbar 2.67 m/s 291.59 Deg 1.74 µg/m3 0.86 µg/m3
2022-11-17 18:00 12.56 µg/m3 0.33 µg/m3 51.74 µg/m3 20.23 µg/m3 7.85 µg/m3 0.29 mg/m3 20.5 °C 81.62 % 1,008.60 mbar 2.57 m/s 291.22 Deg 4.08 µg/m3 1.15 µg/m3
2022-11-17 17:00 11.75 µg/m3 0.22 µg/m3 53.74 µg/m3 19.89 µg/m3 7.11 µg/m3 0.28 mg/m3 20.74 °C 79.14 % 1,008.25 mbar 3.13 m/s 285.02 Deg 5.28 µg/m3 0.77 µg/m3
2022-11-17 16:00 10.41 µg/m3 0.28 µg/m3 54.6 µg/m3 15.13 µg/m3 6.12 µg/m3 0.28 mg/m3 21 °C 77.53 % 1,008.04 mbar 3.8 m/s 282.97 Deg 4.43 µg/m3 0.76 µg/m3
2022-11-17 15:00 13.22 µg/m3 0.45 µg/m3 48.83 µg/m3 11.15 µg/m3 5.55 µg/m3 0.29 mg/m3 20.85 °C 83.61 % 1,007.79 mbar 3.28 m/s 274.54 Deg 6.21 µg/m3 1.05 µg/m3
2022-11-17 14:00 13.81 µg/m3 0.44 µg/m3 43.13 µg/m3 14.48 µg/m3 6.43 µg/m3 0.28 mg/m3 20.29 °C 86.07 % 1,007.92 mbar 3.09 m/s 279 Deg 7.06 µg/m3 0.89 µg/m3
2022-11-17 13:00 15.27 µg/m3 0.42 µg/m3 50.61 µg/m3 23.16 µg/m3 10.3 µg/m3 0.32 mg/m3 18.98 °C 92.6 % 1,008.20 mbar 4.43 m/s 263.83 Deg 6.37 µg/m3 0.87 µg/m3
2022-11-17 12:00 17.62 µg/m3 0.43 µg/m3 59.41 µg/m3 28.24 µg/m3 10.01 µg/m3 0.36 mg/m3 22.7 °C 69.22 % 1,008.15 mbar 4.46 m/s 256.67 Deg 6.73 µg/m3 1.05 µg/m3
2022-11-17 11:00 14.52 µg/m3 0.7 µg/m3 56.21 µg/m3 30.95 µg/m3 10.72 µg/m3 0.42 mg/m3 22.4 °C 69.36 % 1,008.56 mbar 4.23 m/s 258.16 Deg 6 µg/m3 1 µg/m3
2022-11-17 10:00 24.26 µg/m3 0.8 µg/m3 45.04 µg/m3 34.11 µg/m3 11.86 µg/m3 0.48 mg/m3 22 °C 72.33 % 1,008.48 mbar 3.5 m/s 256.76 Deg 11.5 µg/m3 1.42 µg/m3
2022-11-17 09:00 52.91 µg/m3 1.72 µg/m3 14.56 µg/m3 51.53 µg/m3 16.71 µg/m3 0.67 mg/m3 20.69 °C 75.4 % 1,008.19 mbar 1.45 m/s 234.18 Deg 80.67 µg/m3 3.25 µg/m3
2022-11-17 08:00 62.21 µg/m3 1.69 µg/m3 11.1 µg/m3 42.1 µg/m3 15.29 µg/m3 0.62 mg/m3 19.29 °C 77.6 % 1,007.83 mbar 0.83 m/s 221.66 Deg 107.52 µg/m3 3.57 µg/m3
2022-11-17 07:00 62.42 µg/m3 1.46 µg/m3 13.49 µg/m3 39.6 µg/m3 14.17 µg/m3 0.56 mg/m3 18.63 °C 79.58 % 1,007.29 mbar 1.01 m/s 227.23 Deg 105.77 µg/m3 2.68 µg/m3
2022-11-17 06:00 34.31 µg/m3 0.61 µg/m3 32.23 µg/m3 32.47 µg/m3 11.58 µg/m3 0.34 mg/m3 18.79 °C 78.34 % 1,007.14 mbar 1.09 m/s 226.36 Deg 25.78 µg/m3 1.23 µg/m3
2022-11-17 05:00 14.93 µg/m3 0.24 µg/m3 44.38 µg/m3 30.21 µg/m3 10.25 µg/m3 0.29 mg/m3 18.59 °C 81.01 % 1,007.24 mbar 1.18 m/s 219.23 Deg 5.25 µg/m3 0.92 µg/m3
2022-11-17 04:00 13.79 µg/m3 0.26 µg/m3 43.14 µg/m3 30.15 µg/m3 10.25 µg/m3 0.27 mg/m3 18.47 °C 86.47 % 1,007.45 mbar 1.23 m/s 224.32 Deg 1.91 µg/m3 0.76 µg/m3
2022-11-17 03:00 26.44 µg/m3 0.27 µg/m3 44.44 µg/m3 30.49 µg/m3 10.7 µg/m3 0.17 mg/m3 18.61 °C 87.2 % 1,007.62 mbar 1.03 m/s 220.25 Deg 1.56 µg/m3 0.76 µg/m3
2022-11-17 02:00 5.53 µg/m3 0.27 µg/m3 46.22 µg/m3 30.01 µg/m3 10.44 µg/m3 0.23 mg/m3 19.02 °C 85.54 % 1,007.65 mbar 1.09 m/s 218.07 Deg 0.68 µg/m3 0.87 µg/m3
2022-11-17 01:00 7.37 µg/m3 0.6 µg/m3 43.91 µg/m3 31.82 µg/m3 11.54 µg/m3 0.24 mg/m3 19.19 °C 83.75 % 1,007.82 mbar 1.44 m/s 220.38 Deg 1.1 µg/m3 1.28 µg/m3
2022-11-17 00:00 8.72 µg/m3 0.36 µg/m3 45.86 µg/m3 29.08 µg/m3 10.36 µg/m3 0.28 mg/m3 19.45 °C 82.38 % 1,008.20 mbar 2.21 m/s 225.48 Deg 2.22 µg/m3 0.61 µg/m3
2022-11-16 23:00 10.31 µg/m3 0.45 µg/m3 42.07 µg/m3 29.68 µg/m3 10.81 µg/m3 0.28 mg/m3 19.06 °C 82.82 % 1,008.41 mbar 2.3 m/s 243.69 Deg 2.73 µg/m3 0.89 µg/m3
2022-11-16 22:00 13.27 µg/m3 0.51 µg/m3 37.44 µg/m3 35.62 µg/m3 11.94 µg/m3 0.3 mg/m3 18.73 °C 82.49 % 1,008.62 mbar 2.07 m/s 253.4 Deg 3.23 µg/m3 0.94 µg/m3
2022-11-16 21:00 24.84 µg/m3 1.13 µg/m3 29.92 µg/m3 36.53 µg/m3 12.85 µg/m3 0.33 mg/m3 18.71 °C 80.88 % 1,008.62 mbar 1.59 m/s 242.49 Deg 8.36 µg/m3 1.63 µg/m3
2022-11-16 20:00 32.32 µg/m3 1.18 µg/m3 25.66 µg/m3 40.5 µg/m3 14.2 µg/m3 0.33 mg/m3 19.11 °C 77.95 % 1,008.51 mbar 1.52 m/s 240.5 Deg 13.52 µg/m3 2.26 µg/m3
2022-11-16 19:00 30.59 µg/m3 0.86 µg/m3 33.31 µg/m3 38.12 µg/m3 13.12 µg/m3 0.3 mg/m3 19.83 °C 78.58 % 1,008.57 mbar 1.82 m/s 229.22 Deg 11.46 µg/m3 1.52 µg/m3
2022-11-16 18:00 32.21 µg/m3 0.47 µg/m3 34.94 µg/m3 44.67 µg/m3 13.97 µg/m3 0.26 mg/m3 20.23 °C 80.49 % 1,008.62 mbar 2.14 m/s 238.26 Deg 13.76 µg/m3 1.76 µg/m3
2022-11-16 17:00 28.66 µg/m3 0.52 µg/m3 42.04 µg/m3 57.06 µg/m3 15.49 µg/m3 0.22 mg/m3 21.2 °C 76.54 % 1,008.47 mbar 3.36 m/s 260.45 Deg 10.85 µg/m3 1.05 µg/m3
2022-11-16 16:00 25.12 µg/m3 0.67 µg/m3 51.82 µg/m3 43.26 µg/m3 13.75 µg/m3 0.19 mg/m3 22.2 °C 71.96 % 1,008.58 mbar 4.63 m/s 259.59 Deg 6.24 µg/m3 0.68 µg/m3
2022-11-16 15:00 39.45 µg/m3 0.89 µg/m3 54.26 µg/m3 48.59 µg/m3 14.59 µg/m3 0.29 mg/m3 22.87 °C 65.9 % 1,008.71 mbar 4.56 m/s 256.78 Deg 5.19 µg/m3 0.79 µg/m3
2022-11-16 14:00 0 µg/m3 0.97 µg/m3 52.79 µg/m3 48.05 µg/m3 14.9 µg/m3 0 mg/m3 23.01 °C 65.26 % 1,009.18 mbar 5.24 m/s 259.61 Deg 0 µg/m3 0.81 µg/m3
2022-11-16 13:00 0 µg/m3 0.69 µg/m3 0 µg/m3 56.71 µg/m3 17.57 µg/m3 0.32 mg/m3 23.38 °C 62.15 % 1,009.81 mbar 4.88 m/s 258.27 Deg 0 µg/m3 0.86 µg/m3
2022-11-16 12:00 0 µg/m3 0.65 µg/m3 0 µg/m3 56.11 µg/m3 17.94 µg/m3 0.34 mg/m3 23.49 °C 63.04 % 1,010.80 mbar 4.55 m/s 246.76 Deg 0 µg/m3 5.95 µg/m3
2022-11-16 11:00 0 µg/m3 0.98 µg/m3 0 µg/m3 41.92 µg/m3 14.88 µg/m3 0.41 mg/m3 23.28 °C 67.66 % 1,011.57 mbar 3.96 m/s 237.82 Deg 0 µg/m3 2.94 µg/m3
2022-11-16 10:00 0 µg/m3 0.96 µg/m3 0 µg/m3 37.92 µg/m3 13.72 µg/m3 0.44 mg/m3 22.81 °C 69.81 % 1,011.87 mbar 3.55 m/s 234.46 Deg 0 µg/m3 2.99 µg/m3
2022-11-16 09:00 0 µg/m3 1.25 µg/m3 0 µg/m3 33.13 µg/m3 12.05 µg/m3 0.49 mg/m3 21.81 °C 74.95 % 1,012.00 mbar 2.42 m/s 228.98 Deg 0 µg/m3 3.2 µg/m3
2022-11-16 08:00 0 µg/m3 1.42 µg/m3 0 µg/m3 37.87 µg/m3 12.72 µg/m3 0.6 mg/m3 20.45 °C 79.63 % 1,012.07 mbar 1.94 m/s 219.73 Deg 0 µg/m3 4.15 µg/m3
2022-11-16 07:00 43.67 µg/m3 0.78 µg/m3 29.52 µg/m3 22.71 µg/m3 9.38 µg/m3 0.37 mg/m3 20.03 °C 78.46 % 1,012.34 mbar 2.92 m/s 221.73 Deg 33.65 µg/m3 1.92 µg/m3
2022-11-16 06:00 27.48 µg/m3 0.46 µg/m3 43.21 µg/m3 17.83 µg/m3 7.11 µg/m3 0.29 mg/m3 19.96 °C 75.56 % 1,012.57 mbar 3.31 m/s 229.33 Deg 10.23 µg/m3 1.31 µg/m3
2022-11-16 05:00 12.42 µg/m3 0.43 µg/m3 50.36 µg/m3 11.89 µg/m3 5.82 µg/m3 0.26 mg/m3 19.73 °C 76.02 % 1,012.69 mbar 3.27 m/s 231.52 Deg 1.65 µg/m3 0.66 µg/m3
2022-11-16 04:00 14.55 µg/m3 0.58 µg/m3 49.4 µg/m3 11.03 µg/m3 5.38 µg/m3 0.27 mg/m3 19.68 °C 75.07 % 1,013.17 mbar 2.46 m/s 225.18 Deg 0.85 µg/m3 0.56 µg/m3
2022-11-16 03:00 26.46 µg/m3 0.33 µg/m3 54.47 µg/m3 10.19 µg/m3 4.98 µg/m3 0.18 mg/m3 19.68 °C 72.22 % 1,013.85 mbar 2.22 m/s 222.43 Deg 0.75 µg/m3 0.65 µg/m3
2022-11-16 02:00 9.76 µg/m3 0.45 µg/m3 51.25 µg/m3 9.82 µg/m3 5.06 µg/m3 0.3 mg/m3 19.81 °C 69.62 % 1,014.43 mbar 1.93 m/s 206.13 Deg 1.1 µg/m3 0.47 µg/m3
2022-11-16 01:00 10.3 µg/m3 0.45 µg/m3 47.46 µg/m3 10.66 µg/m3 5.26 µg/m3 0.34 mg/m3 19.87 °C 71.99 % 1,015.17 mbar 2.16 m/s 207.08 Deg 1.37 µg/m3 1.02 µg/m3
2022-11-16 00:00 20.01 µg/m3 0.82 µg/m3 47.25 µg/m3 13.58 µg/m3 6.71 µg/m3 0.38 mg/m3 19.61 °C 75.3 % 1,015.79 mbar 1.89 m/s 205.41 Deg 2.89 µg/m3 1.54 µg/m3
2022-11-15 23:00 22.13 µg/m3 0.82 µg/m3 45.07 µg/m3 15.88 µg/m3 7.02 µg/m3 0.4 mg/m3 19.64 °C 74.97 % 1,016.22 mbar 1.92 m/s 208.65 Deg 3.48 µg/m3 2.07 µg/m3
2022-11-15 22:00 29.18 µg/m3 0.92 µg/m3 40.5 µg/m3 20.21 µg/m3 10.02 µg/m3 0.4 mg/m3 19.68 °C 74.81 % 1,016.70 mbar 1.45 m/s 204.28 Deg 6.11 µg/m3 2.13 µg/m3
2022-11-15 21:00 35.39 µg/m3 1.16 µg/m3 29.81 µg/m3 19.08 µg/m3 9.46 µg/m3 0.4 mg/m3 19.85 °C 75.68 % 1,016.89 mbar 1.7 m/s 204.4 Deg 8.16 µg/m3 3.22 µg/m3
2022-11-15 20:00 40.24 µg/m3 0.98 µg/m3 9.58 µg/m3 27.72 µg/m3 9.28 µg/m3 0.45 mg/m3 18.4 °C 82.88 % 1,016.97 mbar 0.44 m/s 250.27 Deg 23.42 µg/m3 2.92 µg/m3
2022-11-15 19:00 40.95 µg/m3 1.29 µg/m3 11.96 µg/m3 24.87 µg/m3 9.47 µg/m3 0.42 mg/m3 18.57 °C 82.64 % 1,016.98 mbar 0.45 m/s 267.23 Deg 23.35 µg/m3 2.57 µg/m3
2022-11-15 18:00 47.51 µg/m3 1.06 µg/m3 15.03 µg/m3 27.77 µg/m3 8.77 µg/m3 0.39 mg/m3 19.61 °C 78.56 % 1,016.85 mbar 0.7 m/s 231.08 Deg 29.19 µg/m3 2.18 µg/m3
2022-11-15 17:00 37.06 µg/m3 0.69 µg/m3 29.92 µg/m3 18.28 µg/m3 6.35 µg/m3 0.25 mg/m3 21.31 °C 72.1 % 1,016.99 mbar 1.94 m/s 221.54 Deg 19.36 µg/m3 1.15 µg/m3
2022-11-15 16:00 28.33 µg/m3 0.54 µg/m3 38.75 µg/m3 20.37 µg/m3 6.22 µg/m3 0.15 mg/m3 22.23 °C 68.13 % 1,017.33 mbar 2.77 m/s 242.15 Deg 12.94 µg/m3 0.79 µg/m3
2022-11-15 15:00 21.63 µg/m3 0.5 µg/m3 45.15 µg/m3 18.06 µg/m3 5.33 µg/m3 0.12 mg/m3 22.51 °C 66.37 % 1,017.51 mbar 3.07 m/s 253.15 Deg 10.38 µg/m3 0.81 µg/m3
2022-11-15 14:00 14.68 µg/m3 0.72 µg/m3 47.48 µg/m3 12.79 µg/m3 4.71 µg/m3 0.11 mg/m3 22.48 °C 66.82 % 1,018.03 mbar 3.36 m/s 261.6 Deg 6.41 µg/m3 0.92 µg/m3
2022-11-15 13:00 22.21 µg/m3 0.63 µg/m3 43.62 µg/m3 16.44 µg/m3 5.34 µg/m3 0.12 mg/m3 22.52 °C 66.36 % 1,018.67 mbar 3.08 m/s 251.65 Deg 10.73 µg/m3 0.76 µg/m3
2022-11-15 12:00 18.88 µg/m3 0.58 µg/m3 46.81 µg/m3 20.99 µg/m3 6.89 µg/m3 0.08 mg/m3 22.25 °C 68.28 % 1,019.35 mbar 3.06 m/s 262.26 Deg 6.17 µg/m3 1.21 µg/m3
2022-11-15 11:00 33.78 µg/m3 0.72 µg/m3 40.64 µg/m3 26.8 µg/m3 8.31 µg/m3 0.07 mg/m3 22.12 °C 69.84 % 1,019.77 mbar 2.5 m/s 257.82 Deg 12.66 µg/m3 1.1 µg/m3
2022-11-15 10:00 0 µg/m3 1.09 µg/m3 0 µg/m3 29.16 µg/m3 9.47 µg/m3 0 mg/m3 21.85 °C 73.46 % 1,019.88 mbar 2 m/s 258.88 Deg 0 µg/m3 3.34 µg/m3
2022-11-15 09:00 0 µg/m3 2.05 µg/m3 0 µg/m3 27.1 µg/m3 11.14 µg/m3 0 mg/m3 20.08 °C 81.37 % 1,019.82 mbar 0.51 m/s 222.92 Deg 0 µg/m3 4.6 µg/m3
2022-11-15 08:00 71.85 µg/m3 102.93 µg/m3 6.77 µg/m3 24.26 µg/m3 11.11 µg/m3 0.37 mg/m3 18.35 °C 84.94 % 1,019.62 mbar 0.72 m/s 213.73 Deg 141.44 µg/m3 6.3 µg/m3
2022-11-15 07:00 64.13 µg/m3 1.97 µg/m3 6.29 µg/m3 19.22 µg/m3 10.99 µg/m3 0.38 mg/m3 17.46 °C 88.02 % 1,019.37 mbar 0.75 m/s 226.12 Deg 117.29 µg/m3 4.3 µg/m3
2022-11-15 06:00 64.77 µg/m3 1.28 µg/m3 10.97 µg/m3 15.64 µg/m3 8.4 µg/m3 0.27 mg/m3 17.54 °C 88.15 % 1,019.35 mbar 0.05 m/s 233.25 Deg 83.12 µg/m3 2.36 µg/m3
2022-11-15 05:00 23.93 µg/m3 0.37 µg/m3 40.43 µg/m3 11.39 µg/m3 5.99 µg/m3 0.13 mg/m3 17.88 °C 87.08 % 1,019.51 mbar 0.04 m/s 196.32 Deg 2.38 µg/m3 1.15 µg/m3
2022-11-15 04:00 25.17 µg/m3 0.37 µg/m3 37.35 µg/m3 10.98 µg/m3 5.8 µg/m3 0.11 mg/m3 17.58 °C 89.45 % 1,019.70 mbar 0.09 m/s 128.92 Deg 6.33 µg/m3 1.1 µg/m3
2022-11-15 03:00 32.7 µg/m3 0.45 µg/m3 37.19 µg/m3 11.37 µg/m3 6.04 µg/m3 0.07 mg/m3 17.31 °C 90.78 % 1,019.88 mbar 0.64 m/s 241.55 Deg 16.66 µg/m3 1.18 µg/m3
2022-11-15 02:00 15.55 µg/m3 0.3 µg/m3 31.65 µg/m3 11.11 µg/m3 5.78 µg/m3 0.15 mg/m3 17.33 °C 90.53 % 1,020.21 mbar 0.79 m/s 228.86 Deg 4.67 µg/m3 1.24 µg/m3
2022-11-15 01:00 20.5 µg/m3 0.56 µg/m3 34.12 µg/m3 12.96 µg/m3 6.15 µg/m3 0.12 mg/m3 17.91 °C 87.32 % 1,020.36 mbar 0.37 m/s 206.42 Deg 21.17 µg/m3 1.1 µg/m3
2022-11-15 00:00 13.92 µg/m3 0.49 µg/m3 39.21 µg/m3 12.17 µg/m3 5.71 µg/m3 0.14 mg/m3 17.86 °C 83.92 % 1,020.69 mbar 0.94 m/s 231.51 Deg 3.09 µg/m3 1.03 µg/m3
2022-11-14 23:00 19.11 µg/m3 0.49 µg/m3 36.04 µg/m3 10.88 µg/m3 5.75 µg/m3 0.15 mg/m3 18.05 °C 83.65 % 1,020.90 mbar 1.15 m/s 242.84 Deg 8.16 µg/m3 1.12 µg/m3
2022-11-14 22:00 12.05 µg/m3 0.61 µg/m3 34.49 µg/m3 13.61 µg/m3 7.38 µg/m3 0.14 mg/m3 18.2 °C 87.66 % 1,021.09 mbar 1.44 m/s 256.7 Deg 1.85 µg/m3 1.1 µg/m3
2022-11-14 21:00 29.96 µg/m3 0.59 µg/m3 13.89 µg/m3 21.07 µg/m3 7.81 µg/m3 0.18 mg/m3 17.73 °C 89.74 % 1,021.12 mbar 0.97 m/s 238.89 Deg 17.35 µg/m3 2.31 µg/m3
2022-11-14 20:00 32.04 µg/m3 1.03 µg/m3 14.59 µg/m3 21.46 µg/m3 9.12 µg/m3 0.19 mg/m3 17.29 °C 85.55 % 1,020.96 mbar 0.69 m/s 256.3 Deg 15.7 µg/m3 2.41 µg/m3
2022-11-14 19:00 42.29 µg/m3 1.17 µg/m3 10.23 µg/m3 29.1 µg/m3 9.69 µg/m3 0.25 mg/m3 17.59 °C 82.78 % 1,020.82 mbar 0.65 m/s 232.06 Deg 39.6 µg/m3 2.75 µg/m3
2022-11-14 18:00 45.28 µg/m3 0.89 µg/m3 12.33 µg/m3 30.66 µg/m3 9.24 µg/m3 0.22 mg/m3 18.19 °C 79.82 % 1,020.44 mbar 0.91 m/s 260.14 Deg 27.82 µg/m3 2.73 µg/m3
2022-11-14 17:00 39.42 µg/m3 0.77 µg/m3 20.01 µg/m3 28.84 µg/m3 8.03 µg/m3 0.2 mg/m3 20.11 °C 71.54 % 1,020.30 mbar 0.7 m/s 187.95 Deg 16.92 µg/m3 1.52 µg/m3
2022-11-14 16:00 39.78 µg/m3 0.81 µg/m3 21.85 µg/m3 23.5 µg/m3 7.46 µg/m3 0.19 mg/m3 21.28 °C 69.82 % 1,020.48 mbar 1.02 m/s 203.66 Deg 22.19 µg/m3 1.33 µg/m3
2022-11-14 15:00 33.98 µg/m3 1.09 µg/m3 29.14 µg/m3 65.94 µg/m3 13.19 µg/m3 0.18 mg/m3 20.18 °C 71.69 % 1,020.46 mbar 1.13 m/s 226.79 Deg 18.89 µg/m3 1.6 µg/m3
2022-11-14 14:00 33.98 µg/m3 0.65 µg/m3 29.38 µg/m3 16.26 µg/m3 6.87 µg/m3 0.17 mg/m3 18.45 °C 82.43 % 1,020.67 mbar 2.23 m/s 177.18 Deg 13.82 µg/m3 1.15 µg/m3
2022-11-14 13:00 39.32 µg/m3 0.53 µg/m3 26.3 µg/m3 25.49 µg/m3 8.58 µg/m3 0.16 mg/m3 17.63 °C 89.65 % 1,021.20 mbar 1.23 m/s 143.91 Deg 14.86 µg/m3 1.12 µg/m3
2022-11-14 12:00 25.7 µg/m3 0.7 µg/m3 41.22 µg/m3 19.13 µg/m3 7.87 µg/m3 0.13 mg/m3 17.86 °C 82.41 % 1,022.36 mbar 2.26 m/s 87.83 Deg 11.94 µg/m3 0.76 µg/m3
2022-11-14 11:00 24.54 µg/m3 0.52 µg/m3 44.19 µg/m3 25.2 µg/m3 10.57 µg/m3 0.12 mg/m3 15.89 °C 87.37 % 1,022.02 mbar 2.76 m/s 172.28 Deg 10.37 µg/m3 0.65 µg/m3
2022-11-14 10:00 18.07 µg/m3 0.72 µg/m3 43.79 µg/m3 17.59 µg/m3 6.43 µg/m3 0.13 mg/m3 20.4 °C 75.02 % 1,021.64 mbar 4.1 m/s 160.25 Deg 6.33 µg/m3 1.42 µg/m3
2022-11-14 09:00 48.23 µg/m3 1.23 µg/m3 19.01 µg/m3 26.39 µg/m3 8.18 µg/m3 0.22 mg/m3 21.25 °C 77.54 % 1,021.08 mbar 1.01 m/s 177.26 Deg 34.7 µg/m3 2.87 µg/m3
2022-11-14 08:00 50.32 µg/m3 1.11 µg/m3 10.62 µg/m3 20.81 µg/m3 7.45 µg/m3 0.22 mg/m3 18.79 °C 85.79 % 1,020.58 mbar 0.86 m/s 272.93 Deg 33.07 µg/m3 2.73 µg/m3
2022-11-14 07:00 58.08 µg/m3 1.74 µg/m3 6.17 µg/m3 17.75 µg/m3 8.04 µg/m3 0.32 mg/m3 18.28 °C 85.76 % 1,020.17 mbar 0.73 m/s 205.46 Deg 94.28 µg/m3 3.73 µg/m3
2022-11-14 06:00 33.55 µg/m3 0.51 µg/m3 17.1 µg/m3 13.49 µg/m3 6.17 µg/m3 0.19 mg/m3 18.09 °C 87.37 % 1,020.10 mbar 0.68 m/s 207.8 Deg 15.89 µg/m3 1.26 µg/m3
2022-11-14 05:00 16.04 µg/m3 0.55 µg/m3 32.39 µg/m3 10.35 µg/m3 5.3 µg/m3 0.12 mg/m3 17.73 °C 89.33 % 1,020.07 mbar 0.65 m/s 205.36 Deg 2.49 µg/m3 0.58 µg/m3
2022-11-14 04:00 18.33 µg/m3 0.34 µg/m3 33.12 µg/m3 10.34 µg/m3 5.19 µg/m3 0.12 mg/m3 17.57 °C 88.08 % 1,020.07 mbar 0.98 m/s 208.78 Deg 1.83 µg/m3 0.65 µg/m3
2022-11-14 03:00 27.53 µg/m3 0.28 µg/m3 35.93 µg/m3 9.01 µg/m3 5.15 µg/m3 0.09 mg/m3 16.79 °C 89.67 % 1,020.23 mbar 0.37 m/s 132.27 Deg -0.08 µg/m3 0.84 µg/m3
2022-11-14 02:00 15.13 µg/m3 0.46 µg/m3 30.37 µg/m3 10.03 µg/m3 5.31 µg/m3 0.14 mg/m3 17.17 °C 87.8 % 1,020.40 mbar 0.33 m/s 202.14 Deg 2.64 µg/m3 0.89 µg/m3
2022-11-14 01:00 10.78 µg/m3 0.37 µg/m3 37.79 µg/m3 14.32 µg/m3 6.19 µg/m3 0.15 mg/m3 17.48 °C 85.12 % 1,020.42 mbar 0.78 m/s 202.05 Deg 0.38 µg/m3 0.82 µg/m3
2022-11-14 00:00 15.04 µg/m3 0.49 µg/m3 42.83 µg/m3 9.39 µg/m3 4.91 µg/m3 0.16 mg/m3 18.34 °C 82.02 % 1,020.48 mbar 1.79 m/s 205.52 Deg 2.86 µg/m3 0.81 µg/m3
2022-11-13 23:00 14.93 µg/m3 0.77 µg/m3 38.53 µg/m3 8.62 µg/m3 4.14 µg/m3 0.17 mg/m3 18.1 °C 82.08 % 1,020.80 mbar 2.34 m/s 187.82 Deg 2.34 µg/m3 0.89 µg/m3
2022-11-13 22:00 30.9 µg/m3 1.39 µg/m3 19.99 µg/m3 15.64 µg/m3 6.72 µg/m3 0.26 mg/m3 17.76 °C 83.69 % 1,021.18 mbar 1.25 m/s 188.62 Deg 11.04 µg/m3 7.72 µg/m3
2022-11-13 21:00 39.38 µg/m3 1.32 µg/m3 13.98 µg/m3 24.55 µg/m3 10.86 µg/m3 0.29 mg/m3 17.32 °C 84.34 % 1,021.20 mbar 0.43 m/s 243.13 Deg 19.42 µg/m3 5.22 µg/m3
2022-11-13 20:00 55.29 µg/m3 1.59 µg/m3 8 µg/m3 27.02 µg/m3 10.65 µg/m3 0.32 mg/m3 17.69 °C 82.91 % 1,020.85 mbar 0.31 m/s 207.05 Deg 42.98 µg/m3 4.95 µg/m3
2022-11-13 19:00 57.05 µg/m3 1.23 µg/m3 12.07 µg/m3 33.04 µg/m3 11.05 µg/m3 0.4 mg/m3 17.78 °C 83.56 % 1,020.63 mbar 0.32 m/s 218.13 Deg 54.19 µg/m3 2.94 µg/m3
2022-11-13 18:00 41.2 µg/m3 0.78 µg/m3 34.92 µg/m3 18.42 µg/m3 7.76 µg/m3 0.22 mg/m3 19.3 °C 74.76 % 1,020.14 mbar 1.23 m/s 162.79 Deg 16.11 µg/m3 2.24 µg/m3
2022-11-13 17:00 44.58 µg/m3 0.55 µg/m3 39.17 µg/m3 22.84 µg/m3 9.14 µg/m3 0.21 mg/m3 20.54 °C 72.36 % 1,019.96 mbar 0.65 m/s 121.78 Deg 12.86 µg/m3 1.68 µg/m3
2022-11-13 16:00 19.24 µg/m3 0.65 µg/m3 59.25 µg/m3 15.87 µg/m3 6.8 µg/m3 0.15 mg/m3 21.44 °C 66.73 % 1,019.89 mbar 1.18 m/s 207.49 Deg 4.65 µg/m3 1.29 µg/m3
2022-11-13 15:00 14.88 µg/m3 0.32 µg/m3 60.37 µg/m3 11.35 µg/m3 6.13 µg/m3 0.15 mg/m3 21.22 °C 65.95 % 1,019.72 mbar 2.08 m/s 259.1 Deg 3.46 µg/m3 0.84 µg/m3
2022-11-13 14:00 13.56 µg/m3 0.55 µg/m3 56.56 µg/m3 14.11 µg/m3 6.69 µg/m3 0.15 mg/m3 21.23 °C 66.32 % 1,019.59 mbar 2.25 m/s 261.58 Deg 3.96 µg/m3 1.34 µg/m3
2022-11-13 13:00 19.79 µg/m3 0.75 µg/m3 52.49 µg/m3 16.1 µg/m3 6.72 µg/m3 0.17 mg/m3 21 °C 70.58 % 1,019.80 mbar 1.46 m/s 263.35 Deg 6.28 µg/m3 2.86 µg/m3
2022-11-13 12:00 23.96 µg/m3 0.53 µg/m3 44.18 µg/m3 18.75 µg/m3 7.12 µg/m3 0.18 mg/m3 20.22 °C 73.78 % 1,020.16 mbar 1.24 m/s 255.11 Deg 6.8 µg/m3 1.92 µg/m3
2022-11-13 11:00 24.64 µg/m3 0.74 µg/m3 36.1 µg/m3 12.25 µg/m3 5.29 µg/m3 0.18 mg/m3 20.28 °C 73.49 % 1,020.29 mbar 0.77 m/s 248.93 Deg 7.67 µg/m3 1.89 µg/m3
2022-11-13 10:00 32.93 µg/m3 1.08 µg/m3 26 µg/m3 11.72 µg/m3 5.4 µg/m3 0.2 mg/m3 19.64 °C 80.6 % 1,019.88 mbar 0.53 m/s 242.61 Deg 15.11 µg/m3 2.47 µg/m3
2022-11-13 09:00 35.25 µg/m3 0.87 µg/m3 23.26 µg/m3 7.89 µg/m3 4.11 µg/m3 0.18 mg/m3 18.19 °C 85.27 % 1,019.50 mbar 0.69 m/s 202.55 Deg 17.63 µg/m3 1.54 µg/m3
2022-11-13 08:00 39.62 µg/m3 0.67 µg/m3 20.57 µg/m3 8.99 µg/m3 4.83 µg/m3 0.16 mg/m3 17.09 °C 89.49 % 1,018.95 mbar 0.55 m/s 229.98 Deg 13.31 µg/m3 1.99 µg/m3
2022-11-13 07:00 35.87 µg/m3 0.53 µg/m3 26.82 µg/m3 9.81 µg/m3 4.9 µg/m3 0.16 mg/m3 16.66 °C 92.3 % 1,018.54 mbar 0.27 m/s 241.05 Deg 10.8 µg/m3 1.66 µg/m3
2022-11-13 06:00 15.7 µg/m3 0.31 µg/m3 45.99 µg/m3 9.48 µg/m3 4.75 µg/m3 0.14 mg/m3 16.27 °C 93.68 % 1,018.00 mbar 0.96 m/s 206.89 Deg 3.21 µg/m3 0.61 µg/m3
2022-11-13 05:00 10.7 µg/m3 0.27 µg/m3 52.62 µg/m3 12.32 µg/m3 5.89 µg/m3 0.12 mg/m3 16.95 °C 92.75 % 1,017.87 mbar 1.01 m/s 134.44 Deg -0.03 µg/m3 0.52 µg/m3
2022-11-13 04:00 12.47 µg/m3 0.24 µg/m3 58.99 µg/m3 10.07 µg/m3 4.6 µg/m3 0.11 mg/m3 17.56 °C 84.98 % 1,017.87 mbar 3.32 m/s 104.83 Deg -0.25 µg/m3 0.58 µg/m3
2022-11-13 03:00 32.17 µg/m3 0.16 µg/m3 48.52 µg/m3 10.44 µg/m3 6.21 µg/m3 0.09 mg/m3 17.24 °C 92.34 % 1,017.95 mbar 1.42 m/s 160.04 Deg 0.31 µg/m3 0.68 µg/m3
2022-11-13 02:00 10.15 µg/m3 0.46 µg/m3 47.7 µg/m3 12.18 µg/m3 6.72 µg/m3 0.12 mg/m3 16.68 °C 95.01 % 1,017.93 mbar 2.07 m/s 175.65 Deg 0.21 µg/m3 0.76 µg/m3
2022-11-13 01:00 14 µg/m3 0.52 µg/m3 45.14 µg/m3 11.2 µg/m3 6.26 µg/m3 0.13 mg/m3 16.57 °C 94.49 % 1,018.19 mbar 2.02 m/s 172.98 Deg 0.85 µg/m3 1.03 µg/m3
2022-11-13 00:00 27.12 µg/m3 0.68 µg/m3 23.57 µg/m3 13.87 µg/m3 9.17 µg/m3 0.18 mg/m3 16.69 °C 94.75 % 1,018.62 mbar 0.82 m/s 210.11 Deg 3.19 µg/m3 1.97 µg/m3
2022-11-12 23:00 32.4 µg/m3 0.68 µg/m3 14.68 µg/m3 13.73 µg/m3 9.38 µg/m3 0.21 mg/m3 16.76 °C 95.2 % 1,018.97 mbar 0.15 m/s 315.48 Deg 7.32 µg/m3 2.5 µg/m3
2022-11-12 22:00 37.24 µg/m3 0.87 µg/m3 21.68 µg/m3 13.12 µg/m3 8.9 µg/m3 0.22 mg/m3 16.88 °C 94.22 % 1,019.16 mbar 0.41 m/s 218.11 Deg 13.74 µg/m3 1.73 µg/m3
2022-11-12 21:00 28.01 µg/m3 0.48 µg/m3 32.8 µg/m3 12.9 µg/m3 8.16 µg/m3 0.18 mg/m3 16.81 °C 94.75 % 1,019.15 mbar 0.59 m/s 244.04 Deg 5.24 µg/m3 1.61 µg/m3
2022-11-12 20:00 19.89 µg/m3 0.53 µg/m3 44.23 µg/m3 9.07 µg/m3 6.01 µg/m3 0.17 mg/m3 16.18 °C 96.84 % 1,019.34 mbar 1.98 m/s 199.41 Deg 3.72 µg/m3 0.91 µg/m3
2022-11-12 19:00 19.33 µg/m3 0.68 µg/m3 45.1 µg/m3 11.93 µg/m3 7.15 µg/m3 0.16 mg/m3 15.42 °C 100 % 1,019.61 mbar 2.68 m/s 182.44 Deg 4.32 µg/m3 1.19 µg/m3
2022-11-12 18:00 39.17 µg/m3 0.82 µg/m3 28.22 µg/m3 18.26 µg/m3 10.66 µg/m3 0.19 mg/m3 16.16 °C 97.09 % 1,019.82 mbar 1.89 m/s 164.13 Deg 23.87 µg/m3 2.05 µg/m3
2022-11-12 17:00 37.35 µg/m3 0.84 µg/m3 24.02 µg/m3 14.12 µg/m3 8.67 µg/m3 0.2 mg/m3 16.54 °C 97.91 % 1,020.15 mbar 0.96 m/s 232.74 Deg 15.97 µg/m3 5.07 µg/m3
2022-11-12 16:00 34.59 µg/m3 0.85 µg/m3 43.27 µg/m3 21.13 µg/m3 11.1 µg/m3 0.14 mg/m3 15.72 °C 99.77 % 1,020.78 mbar 2.14 m/s 247.78 Deg 15.79 µg/m3 1.36 µg/m3
2022-11-12 15:00 13.71 µg/m3 0.76 µg/m3 60.38 µg/m3 18.14 µg/m3 10.98 µg/m3 0.14 mg/m3 19.27 °C 81.56 % 1,020.99 mbar 2.79 m/s 95.52 Deg 4.5 µg/m3 1.1 µg/m3
2022-11-12 14:00 17.99 µg/m3 1.12 µg/m3 58.47 µg/m3 17.57 µg/m3 10.08 µg/m3 0.15 mg/m3 21.16 °C 67.85 % 1,021.59 mbar 2.32 m/s 267.76 Deg 5.62 µg/m3 1.23 µg/m3
2022-11-12 13:00 19.96 µg/m3 0.97 µg/m3 55.54 µg/m3 16.39 µg/m3 10.01 µg/m3 0.15 mg/m3 20.32 °C 74.94 % 1,022.56 mbar 2.09 m/s 222.41 Deg 6.03 µg/m3 1.5 µg/m3
2022-11-12 12:00 27.36 µg/m3 0.94 µg/m3 49.4 µg/m3 19.26 µg/m3 10 µg/m3 0.16 mg/m3 20.62 °C 71.6 % 1,023.33 mbar 0.86 m/s 104.28 Deg 7.8 µg/m3 1.4 µg/m3
2022-11-12 11:00 33.66 µg/m3 1.01 µg/m3 48.16 µg/m3 20.37 µg/m3 10.28 µg/m3 0.15 mg/m3 20.4 °C 73.37 % 1,023.97 mbar 1.03 m/s 47.03 Deg 15.19 µg/m3 1.21 µg/m3
2022-11-12 10:00 30.9 µg/m3 1.17 µg/m3 45.28 µg/m3 24.36 µg/m3 12.12 µg/m3 0.18 mg/m3 20.67 °C 71.3 % 1,024.00 mbar 1.23 m/s 199.83 Deg 13.94 µg/m3 1.6 µg/m3
2022-11-12 09:00 37.75 µg/m3 1.15 µg/m3 28.27 µg/m3 26.39 µg/m3 11.84 µg/m3 0.19 mg/m3 20.03 °C 73.51 % 1,024.00 mbar 1.01 m/s 164.32 Deg 20.64 µg/m3 2.47 µg/m3
2022-11-12 08:00 55.37 µg/m3 1.13 µg/m3 11.36 µg/m3 49.68 µg/m3 18.02 µg/m3 0.23 mg/m3 18.16 °C 79.11 % 1,023.78 mbar 0.73 m/s 216.81 Deg 55.27 µg/m3 2.65 µg/m3
2022-11-12 07:00 59.35 µg/m3 1.06 µg/m3 21.59 µg/m3 24.37 µg/m3 11.12 µg/m3 0.21 mg/m3 18.82 °C 76.68 % 1,023.57 mbar 0.52 m/s 183.03 Deg 32.13 µg/m3 1.7 µg/m3
2022-11-12 06:00 21.15 µg/m3 0.73 µg/m3 51.69 µg/m3 15 µg/m3 9.02 µg/m3 0.12 mg/m3 18.72 °C 77.55 % 1,023.77 mbar 1.04 m/s 137.38 Deg 1.16 µg/m3 0.91 µg/m3
2022-11-12 05:00 13.2 µg/m3 0.52 µg/m3 56.15 µg/m3 13.52 µg/m3 8.22 µg/m3 0.12 mg/m3 18.49 °C 78.96 % 1,024.07 mbar 1 m/s 134.63 Deg 0.41 µg/m3 0.7 µg/m3
2022-11-12 04:00 21.79 µg/m3 0.47 µg/m3 58.02 µg/m3 12.65 µg/m3 7.84 µg/m3 0.12 mg/m3 18.93 °C 76.8 % 1,024.40 mbar 0.86 m/s 154.73 Deg 1.97 µg/m3 0.79 µg/m3
2022-11-12 03:00 26.65 µg/m3 0.42 µg/m3 66.79 µg/m3 14.16 µg/m3 7.94 µg/m3 0.08 mg/m3 19.67 °C 74.85 % 1,024.96 mbar 1.69 m/s 205.36 Deg -0.04 µg/m3 0.76 µg/m3
2022-11-12 02:00 8.29 µg/m3 0.46 µg/m3 64.23 µg/m3 14.94 µg/m3 8.3 µg/m3 0.14 mg/m3 19.53 °C 76.41 % 1,025.38 mbar 1.71 m/s 118.93 Deg -0.17 µg/m3 0.94 µg/m3
2022-11-12 01:00 12.76 µg/m3 0.95 µg/m3 57.68 µg/m3 15.39 µg/m3 8.57 µg/m3 0.15 mg/m3 19.39 °C 76.07 % 1,025.59 mbar 1.65 m/s 111.13 Deg 0.18 µg/m3 2.57 µg/m3
2022-11-12 00:00 20.47 µg/m3 0.49 µg/m3 54.92 µg/m3 15.33 µg/m3 8.61 µg/m3 0.15 mg/m3 19.39 °C 76.55 % 1,025.76 mbar 1.11 m/s 90.1 Deg 1.48 µg/m3 1.1 µg/m3
2022-11-11 23:00 7.6 µg/m3 0.61 µg/m3 67.42 µg/m3 16.4 µg/m3 8.49 µg/m3 0.14 mg/m3 19.9 °C 75.09 % 1,025.91 mbar 1.81 m/s 182.67 Deg -0.04 µg/m3 1.08 µg/m3
2022-11-11 22:00 15.01 µg/m3 0.44 µg/m3 59.03 µg/m3 15.99 µg/m3 8.78 µg/m3 0.14 mg/m3 20.06 °C 75.64 % 1,025.97 mbar 1.49 m/s 103.13 Deg 0.75 µg/m3 1.31 µg/m3
2022-11-11 21:00 27.17 µg/m3 0.49 µg/m3 49.49 µg/m3 15.51 µg/m3 8.78 µg/m3 0.16 mg/m3 20.01 °C 77.05 % 1,025.75 mbar 0.87 m/s 127.16 Deg 1.15 µg/m3 1.68 µg/m3
2022-11-11 20:00 15.52 µg/m3 0.74 µg/m3 59.28 µg/m3 15.07 µg/m3 7.88 µg/m3 0.15 mg/m3 20.29 °C 76.3 % 1,025.47 mbar 2.1 m/s 62.01 Deg 1.58 µg/m3 1.31 µg/m3
2022-11-11 19:00 22.96 µg/m3 0.73 µg/m3 50.1 µg/m3 11.86 µg/m3 5.4 µg/m3 0.17 mg/m3 20.16 °C 75.51 % 1,025.48 mbar 1.55 m/s 111.44 Deg 1.77 µg/m3 1.45 µg/m3
2022-11-11 18:00 37.37 µg/m3 0.55 µg/m3 44.67 µg/m3 13.56 µg/m3 5.89 µg/m3 0.24 mg/m3 20.19 °C 73.54 % 1,025.20 mbar 1.34 m/s 202.52 Deg 7.28 µg/m3 1.84 µg/m3
2022-11-11 17:00 25.65 µg/m3 0.68 µg/m3 55.8 µg/m3 15.88 µg/m3 5.26 µg/m3 0.18 mg/m3 20.63 °C 72.52 % 1,025.16 mbar 1.96 m/s 70.09 Deg 7.82 µg/m3 1.65 µg/m3
2022-11-11 16:00 27.3 µg/m3 0.76 µg/m3 56.24 µg/m3 20.34 µg/m3 5.62 µg/m3 0.17 mg/m3 21.01 °C 70.22 % 1,025.21 mbar 2.36 m/s 67.68 Deg 15.31 µg/m3 0.79 µg/m3
2022-11-11 15:00 19.47 µg/m3 0.72 µg/m3 63.25 µg/m3 17.96 µg/m3 5.22 µg/m3 0.14 mg/m3 21.26 °C 67.88 % 1,025.18 mbar 2.99 m/s 60.76 Deg 7.28 µg/m3 0.81 µg/m3
2022-11-11 14:00 18.59 µg/m3 0.77 µg/m3 62.92 µg/m3 13.27 µg/m3 4.67 µg/m3 0.15 mg/m3 21.2 °C 67.83 % 1,025.23 mbar 3.11 m/s 67.43 Deg 9.03 µg/m3 1.02 µg/m3
2022-11-11 13:00 22.56 µg/m3 1.04 µg/m3 57.83 µg/m3 12.92 µg/m3 4.5 µg/m3 0.15 mg/m3 21.24 °C 66.45 % 1,025.56 mbar 2.82 m/s 133.89 Deg 9.03 µg/m3 1 µg/m3
2022-11-11 12:00 24.92 µg/m3 0.93 µg/m3 57.25 µg/m3 18.71 µg/m3 5.48 µg/m3 0.17 mg/m3 21.2 °C 66.64 % 1,025.85 mbar 2.58 m/s 69.72 Deg 7.85 µg/m3 1.92 µg/m3
2022-11-11 11:00 25.16 µg/m3 0.77 µg/m3 56.75 µg/m3 13.6 µg/m3 4.75 µg/m3 0.1 mg/m3 20.96 °C 71.83 % 1,025.98 mbar 2.59 m/s 67.45 Deg 8.74 µg/m3 1.47 µg/m3
2022-11-11 10:00 25.55 µg/m3 0.86 µg/m3 45.99 µg/m3 18.19 µg/m3 5.78 µg/m3 0.15 mg/m3 20.71 °C 73.85 % 1,025.98 mbar 2.29 m/s 127.82 Deg 8.63 µg/m3 1.57 µg/m3
2022-11-11 09:00 48.87 µg/m3 1.13 µg/m3 22.4 µg/m3 27.79 µg/m3 9.67 µg/m3 0.19 mg/m3 20.06 °C 77.78 % 1,025.63 mbar 1.09 m/s 228.78 Deg 22.6 µg/m3 1.65 µg/m3
2022-11-11 08:00 61.78 µg/m3 1.47 µg/m3 10.93 µg/m3 17.16 µg/m3 7.32 µg/m3 0.26 mg/m3 18.51 °C 81.24 % 1,025.06 mbar 0.67 m/s 153.27 Deg 47.1 µg/m3 3.2 µg/m3
2022-11-11 07:00 71.57 µg/m3 1.61 µg/m3 7.25 µg/m3 17.02 µg/m3 7.22 µg/m3 0.34 mg/m3 17.41 °C 82.09 % 1,024.58 mbar 0.34 m/s 219.94 Deg 117.69 µg/m3 2.91 µg/m3
2022-11-11 06:00 58.42 µg/m3 1.3 µg/m3 10.2 µg/m3 13.26 µg/m3 6.1 µg/m3 0.23 mg/m3 17.1 °C 83.48 % 1,024.34 mbar 0.21 m/s 184.23 Deg 69.05 µg/m3 2.17 µg/m3
2022-11-11 05:00 25.6 µg/m3 0.64 µg/m3 26.92 µg/m3 7.31 µg/m3 4.51 µg/m3 0.14 mg/m3 16.15 °C 86.24 % 1,024.42 mbar 0.63 m/s 239.22 Deg 8.61 µg/m3 1.07 µg/m3
2022-11-11 04:00 27.34 µg/m3 0.59 µg/m3 28.16 µg/m3 8.64 µg/m3 4.95 µg/m3 0.14 mg/m3 16.1 °C 86.9 % 1,024.26 mbar 0.57 m/s 227.24 Deg 8.06 µg/m3 1.29 µg/m3
2022-11-11 03:00 39.4 µg/m3 0.65 µg/m3 24.47 µg/m3 7.72 µg/m3 4.36 µg/m3 0.1 mg/m3 15.91 °C 87.39 % 1,024.20 mbar 0.52 m/s 234.46 Deg 5.42 µg/m3 1.15 µg/m3
2022-11-11 02:00 19.72 µg/m3 0.82 µg/m3 20.17 µg/m3 8.57 µg/m3 5.02 µg/m3 0.16 mg/m3 15.97 °C 86.61 % 1,024.39 mbar 0.58 m/s 229.15 Deg 2.85 µg/m3 2.05 µg/m3
2022-11-11 01:00 20.05 µg/m3 0.78 µg/m3 21.64 µg/m3 9.27 µg/m3 4.75 µg/m3 0.16 mg/m3 16.3 °C 85.29 % 1,024.34 mbar 0.73 m/s 226.61 Deg 2.34 µg/m3 1.26 µg/m3
2022-11-11 00:00 35.53 µg/m3 1.19 µg/m3 13.63 µg/m3 9.48 µg/m3 4.55 µg/m3 0.22 mg/m3 16.25 °C 85.07 % 1,024.36 mbar 0.71 m/s 231.14 Deg 19.01 µg/m3 1.89 µg/m3
2022-11-10 23:00 34.83 µg/m3 1.32 µg/m3 10.29 µg/m3 11.89 µg/m3 5.29 µg/m3 0.21 mg/m3 16.4 °C 85.1 % 1,024.22 mbar 0.77 m/s 233.88 Deg 14.03 µg/m3 2.89 µg/m3
2022-11-10 22:00 41.2 µg/m3 1.09 µg/m3 8.18 µg/m3 13.48 µg/m3 5.97 µg/m3 0.24 mg/m3 16.93 °C 84.11 % 1,023.88 mbar 0.5 m/s 225.57 Deg 21.59 µg/m3 2.76 µg/m3
2022-11-10 21:00 47.61 µg/m3 1.31 µg/m3 7.93 µg/m3 14.22 µg/m3 6.17 µg/m3 0.23 mg/m3 17.08 °C 83.84 % 1,023.25 mbar 0.69 m/s 242.04 Deg 18.87 µg/m3 3.2 µg/m3
2022-11-10 20:00 56.88 µg/m3 1.4 µg/m3 6.54 µg/m3 23.76 µg/m3 8.2 µg/m3 0.31 mg/m3 17.32 °C 83.05 % 1,022.79 mbar 0.45 m/s 239.8 Deg 51.01 µg/m3 4.22 µg/m3
2022-11-10 19:00 47.98 µg/m3 0.84 µg/m3 27.78 µg/m3 21.4 µg/m3 8.21 µg/m3 0.21 mg/m3 18.95 °C 76.3 % 1,022.21 mbar 0.99 m/s 174.28 Deg 23.93 µg/m3 1.84 µg/m3
2022-11-10 18:00 46.07 µg/m3 1.09 µg/m3 24.98 µg/m3 18.55 µg/m3 7.37 µg/m3 0.2 mg/m3 19.59 °C 74.41 % 1,021.72 mbar 1.03 m/s 159.01 Deg 26.67 µg/m3 2.54 µg/m3
2022-11-10 17:00 61.26 µg/m3 0.85 µg/m3 30.1 µg/m3 21.67 µg/m3 6.28 µg/m3 0.19 mg/m3 20.47 °C 71.62 % 1,021.41 mbar 0.7 m/s 123.06 Deg 33.77 µg/m3 1.54 µg/m3
2022-11-10 16:00 37.22 µg/m3 0.65 µg/m3 48.29 µg/m3 22.85 µg/m3 5.78 µg/m3 0.16 mg/m3 21.14 °C 69.4 % 1,021.26 mbar 1.35 m/s 114.88 Deg 28.15 µg/m3 1.52 µg/m3
2022-11-10 15:00 24.4 µg/m3 0.54 µg/m3 57.75 µg/m3 20.69 µg/m3 5.55 µg/m3 0.14 mg/m3 21.21 °C 69.91 % 1,021.08 mbar 2.28 m/s 65.54 Deg 7.4 µg/m3 1.02 µg/m3
2022-11-10 14:00 22.38 µg/m3 0.64 µg/m3 57.7 µg/m3 19.71 µg/m3 5.31 µg/m3 0.13 mg/m3 21.34 °C 70.36 % 1,021.03 mbar 2.36 m/s 67.63 Deg 9.21 µg/m3 0.81 µg/m3
2022-11-10 13:00 18.53 µg/m3 0.73 µg/m3 57.28 µg/m3 12.03 µg/m3 3.96 µg/m3 0.14 mg/m3 21.27 °C 72.43 % 1,021.18 mbar 3.02 m/s 66.27 Deg 6.11 µg/m3 2.18 µg/m3
2022-11-10 12:00 24.22 µg/m3 1.12 µg/m3 53.37 µg/m3 14.77 µg/m3 4.99 µg/m3 0.17 mg/m3 21.05 °C 74.43 % 1,021.29 mbar 2.75 m/s 67.04 Deg 9.6 µg/m3 1.52 µg/m3
2022-11-10 11:00 26.14 µg/m3 1.05 µg/m3 49.86 µg/m3 30.23 µg/m3 7.69 µg/m3 0.11 mg/m3 20.9 °C 74.78 % 1,021.30 mbar 1.97 m/s 68.79 Deg 7.41 µg/m3 1.29 µg/m3
2022-11-10 10:00 39.16 µg/m3 1.18 µg/m3 30.66 µg/m3 27.42 µg/m3 7.77 µg/m3 0.17 mg/m3 20.97 °C 74.61 % 1,021.08 mbar 1.04 m/s 158.13 Deg 15.93 µg/m3 2.2 µg/m3
2022-11-10 09:00 66.11 µg/m3 2.1 µg/m3 8.87 µg/m3 27.01 µg/m3 8.77 µg/m3 0.32 mg/m3 19.94 °C 79.47 % 1,020.75 mbar 0.21 m/s 279.82 Deg 81.09 µg/m3 4.09 µg/m3
2022-11-10 08:00 69.77 µg/m3 2.06 µg/m3 5.5 µg/m3 18.4 µg/m3 7.61 µg/m3 0.37 mg/m3 18.41 °C 83.99 % 1,020.24 mbar 0.33 m/s 194.25 Deg 103.55 µg/m3 4.95 µg/m3
2022-11-10 07:00 66.65 µg/m3 1.94 µg/m3 4.43 µg/m3 16.84 µg/m3 7.28 µg/m3 0.37 mg/m3 17.62 °C 86.21 % 1,019.81 mbar 0.56 m/s 182.14 Deg 129.08 µg/m3 3.67 µg/m3
2022-11-10 06:00 51.65 µg/m3 0.77 µg/m3 12.04 µg/m3 9.37 µg/m3 4.73 µg/m3 0.18 mg/m3 17.12 °C 88.02 % 1,019.52 mbar 0.13 m/s 257.88 Deg 22.46 µg/m3 1.71 µg/m3
2022-11-10 05:00 37.36 µg/m3 0.56 µg/m3 17.29 µg/m3 8.11 µg/m3 3.75 µg/m3 0.14 mg/m3 17.02 °C 86.95 % 1,019.45 mbar 0 m/s 287.61 Deg 12.86 µg/m3 0.65 µg/m3
2022-11-10 04:00 32.3 µg/m3 0.56 µg/m3 29.73 µg/m3 9.25 µg/m3 4.31 µg/m3 0.14 mg/m3 16.93 °C 85.46 % 1,019.43 mbar 0 m/s 276.56 Deg 12.21 µg/m3 0.81 µg/m3
2022-11-10 03:00 43.07 µg/m3 0.68 µg/m3 31.56 µg/m3 8.27 µg/m3 4.22 µg/m3 0.08 mg/m3 16.76 °C 83.27 % 1,019.54 mbar 0 m/s 135.64 Deg 5.73 µg/m3 1.18 µg/m3
2022-11-10 02:00 25.54 µg/m3 0.67 µg/m3 24.69 µg/m3 9.47 µg/m3 4.73 µg/m3 0.14 mg/m3 17.1 °C 80.93 % 1,019.78 mbar 0.1 m/s 134.41 Deg 0.62 µg/m3 1.1 µg/m3
2022-11-10 01:00 26.45 µg/m3 0.94 µg/m3 20.81 µg/m3 10.66 µg/m3 4.85 µg/m3 0.15 mg/m3 16.82 °C 83.65 % 1,019.83 mbar 0.2 m/s 188.83 Deg 2.46 µg/m3 1.52 µg/m3
2022-11-10 00:00 38.18 µg/m3 1.32 µg/m3 19.15 µg/m3 11.59 µg/m3 5.57 µg/m3 0.2 mg/m3 17.74 °C 81.07 % 1,019.97 mbar 0.72 m/s 171.93 Deg 4.5 µg/m3 3.36 µg/m3
2022-11-09 23:00 38.66 µg/m3 1.17 µg/m3 18.48 µg/m3 15.28 µg/m3 6.72 µg/m3 0.24 mg/m3 17.36 °C 81.81 % 1,020.03 mbar 0.51 m/s 148.09 Deg 5.91 µg/m3 2.73 µg/m3
2022-11-09 22:00 43.01 µg/m3 1.29 µg/m3 16.28 µg/m3 17.84 µg/m3 8.41 µg/m3 0.23 mg/m3 16.67 °C 80.63 % 1,020.01 mbar 0.13 m/s 167.02 Deg 11.26 µg/m3 2.81 µg/m3
2022-11-09 21:00 54.43 µg/m3 1.88 µg/m3 7.16 µg/m3 29.76 µg/m3 13.52 µg/m3 0.31 mg/m3 17.06 °C 76.6 % 1,019.86 mbar 0 m/s 221.95 Deg 24.7 µg/m3 5.74 µg/m3
2022-11-09 20:00 66.27 µg/m3 2.01 µg/m3 7.12 µg/m3 50.86 µg/m3 26.51 µg/m3 0.36 mg/m3 17.79 °C 73.91 % 1,019.77 mbar 0.15 m/s 121.32 Deg 51.05 µg/m3 4.97 µg/m3
2022-11-09 19:00 60.56 µg/m3 1.21 µg/m3 18.81 µg/m3 30.59 µg/m3 13.6 µg/m3 0.22 mg/m3 18.7 °C 69.76 % 1,019.56 mbar 0.7 m/s 133.7 Deg 28.77 µg/m3 2.1 µg/m3
2022-11-09 18:00 50.36 µg/m3 1.05 µg/m3 26.83 µg/m3 15.25 µg/m3 5.49 µg/m3 0.19 mg/m3 19.38 °C 68.46 % 1,019.40 mbar 1.72 m/s 177.22 Deg 22.73 µg/m3 1.57 µg/m3
2022-11-09 17:00 44.32 µg/m3 1.07 µg/m3 37.81 µg/m3 17.12 µg/m3 5.97 µg/m3 0.18 mg/m3 20.88 °C 63.76 % 1,019.42 mbar 1.35 m/s 188.28 Deg 15.5 µg/m3 1.5 µg/m3
2022-11-09 16:00 34.51 µg/m3 0.94 µg/m3 47.93 µg/m3 17.62 µg/m3 5.91 µg/m3 0.16 mg/m3 22.29 °C 58.39 % 1,019.46 mbar 0.88 m/s 206.37 Deg 13.61 µg/m3 0.97 µg/m3
2022-11-09 15:00 24.28 µg/m3 0.73 µg/m3 54.36 µg/m3 17.09 µg/m3 5.12 µg/m3 0.14 mg/m3 22.35 °C 60.35 % 1,019.61 mbar 1.71 m/s 197.48 Deg 8.48 µg/m3 0.58 µg/m3
2022-11-09 14:00 27.45 µg/m3 0.76 µg/m3 49.73 µg/m3 18.73 µg/m3 5.86 µg/m3 0.14 mg/m3 22.3 °C 61.32 % 1,019.70 mbar 1.44 m/s 208.25 Deg 12.41 µg/m3 1.15 µg/m3
2022-11-09 13:00 27.15 µg/m3 0.77 µg/m3 50.68 µg/m3 20.53 µg/m3 6.21 µg/m3 0.15 mg/m3 21.96 °C 63.88 % 1,020.26 mbar 1.6 m/s 207.59 Deg 8.95 µg/m3 0.97 µg/m3
2022-11-09 12:00 28.36 µg/m3 1.34 µg/m3 49.35 µg/m3 19.86 µg/m3 6.9 µg/m3 0.14 mg/m3 21.93 °C 63.65 % 1,020.82 mbar 1.62 m/s 207.32 Deg 11.31 µg/m3 1.15 µg/m3
2022-11-09 11:00 44.63 µg/m3 1.46 µg/m3 40.52 µg/m3 38.06 µg/m3 17.43 µg/m3 0.16 mg/m3 21.7 °C 65.99 % 1,021.01 mbar 1.14 m/s 180.62 Deg 20.68 µg/m3 2.05 µg/m3
2022-11-09 10:00 44.3 µg/m3 1.37 µg/m3 32.94 µg/m3 27.36 µg/m3 8.17 µg/m3 0.17 mg/m3 21.15 °C 68.27 % 1,020.92 mbar 0.83 m/s 154.19 Deg 15.36 µg/m3 2.2 µg/m3
2022-11-09 09:00 60.13 µg/m3 1.54 µg/m3 18.85 µg/m3 28.73 µg/m3 8.12 µg/m3 0.21 mg/m3 19.9 °C 73.27 % 1,020.74 mbar 0.9 m/s 165.23 Deg 37.14 µg/m3 1.87 µg/m3
2022-11-09 08:00 66.22 µg/m3 1.65 µg/m3 9.67 µg/m3 24.06 µg/m3 7.45 µg/m3 0.25 mg/m3 17.78 °C 78.94 % 1,020.21 mbar 0.95 m/s 175.48 Deg 49.06 µg/m3 3.25 µg/m3
2022-11-09 07:00 71.81 µg/m3 1.77 µg/m3 5.46 µg/m3 18.19 µg/m3 7.29 µg/m3 0.3 mg/m3 15.83 °C 83.72 % 1,019.93 mbar 0.14 m/s 198.97 Deg 72.46 µg/m3 4.01 µg/m3
2022-11-09 06:00 61.86 µg/m3 1.22 µg/m3 12.79 µg/m3 13.78 µg/m3 6.05 µg/m3 0.22 mg/m3 15.75 °C 82.71 % 1,019.91 mbar 0.02 m/s 259.03 Deg 56.58 µg/m3 1.42 µg/m3
2022-11-09 05:00 38.5 µg/m3 0.34 µg/m3 33.35 µg/m3 11.13 µg/m3 4.71 µg/m3 0.13 mg/m3 15.71 °C 81.91 % 1,019.98 mbar 0.1 m/s 194.94 Deg 9.74 µg/m3 0.98 µg/m3
2022-11-09 04:00 24.12 µg/m3 0.32 µg/m3 46.73 µg/m3 11.1 µg/m3 4.04 µg/m3 0.12 mg/m3 15.54 °C 81.06 % 1,019.98 mbar 0.51 m/s 242.43 Deg 6.86 µg/m3 0.68 µg/m3
2022-11-09 03:00 38.85 µg/m3 0.4 µg/m3 36.39 µg/m3 7.54 µg/m3 3.45 µg/m3 0.08 mg/m3 15.74 °C 81.27 % 1,020.13 mbar 0.17 m/s 258.35 Deg 5.52 µg/m3 0.81 µg/m3
2022-11-09 02:00 25.94 µg/m3 0.58 µg/m3 27.27 µg/m3 6.44 µg/m3 3.03 µg/m3 0.11 mg/m3 16.03 °C 83.19 % 1,020.38 mbar 0.03 m/s 115.64 Deg 4.87 µg/m3 1.47 µg/m3
2022-11-09 01:00 23.92 µg/m3 0.64 µg/m3 35.54 µg/m3 5.97 µg/m3 2.94 µg/m3 0.18 mg/m3 15.99 °C 83.9 % 1,020.44 mbar 0.06 m/s 266.3 Deg 2.98 µg/m3 1.39 µg/m3
2022-11-09 00:00 27.72 µg/m3 0.77 µg/m3 23.46 µg/m3 10.75 µg/m3 4.08 µg/m3 0.15 mg/m3 15.95 °C 83.67 % 1,020.61 mbar 0.56 m/s 249.61 Deg 13.51 µg/m3 1.33 µg/m3
2022-11-08 23:00 42.3 µg/m3 1.19 µg/m3 15.89 µg/m3 10.46 µg/m3 4.7 µg/m3 0.19 mg/m3 16.21 °C 83.72 % 1,020.66 mbar 0 m/s 205.04 Deg 24.2 µg/m3 1.82 µg/m3
2022-11-08 22:00 37.92 µg/m3 1.17 µg/m3 17.92 µg/m3 11.55 µg/m3 4.64 µg/m3 0.24 mg/m3 16.13 °C 84.79 % 1,020.44 mbar 0.33 m/s 229.79 Deg 18.43 µg/m3 2.52 µg/m3
2022-11-08 21:00 42.81 µg/m3 1.43 µg/m3 16.25 µg/m3 18.82 µg/m3 6.63 µg/m3 0.23 mg/m3 16.55 °C 82.52 % 1,020.25 mbar 0.31 m/s 230.59 Deg 26.73 µg/m3 3.15 µg/m3
2022-11-08 20:00 63.14 µg/m3 1.26 µg/m3 5.68 µg/m3 21.27 µg/m3 6.41 µg/m3 0.29 mg/m3 17.13 °C 80.18 % 1,020.06 mbar 0.09 m/s 210.79 Deg 62.31 µg/m3 2.71 µg/m3
2022-11-08 19:00 69.28 µg/m3 1.34 µg/m3 8.14 µg/m3 21.05 µg/m3 7.12 µg/m3 0.26 mg/m3 17.79 °C 77.77 % 1,019.79 mbar 0.03 m/s 232.28 Deg 52.05 µg/m3 2.66 µg/m3
2022-11-08 18:00 43.39 µg/m3 0.89 µg/m3 34.01 µg/m3 17.64 µg/m3 8.33 µg/m3 0.2 mg/m3 18.95 °C 72.85 % 1,019.62 mbar 1.03 m/s 202.79 Deg 19.8 µg/m3 1.81 µg/m3
2022-11-08 17:00 31.78 µg/m3 0.57 µg/m3 48.89 µg/m3 13.01 µg/m3 4.42 µg/m3 0.15 mg/m3 20.33 °C 66.86 % 1,019.58 mbar 1.63 m/s 268.49 Deg 8.76 µg/m3 0.79 µg/m3
2022-11-08 16:00 18.48 µg/m3 0.49 µg/m3 58.05 µg/m3 8.73 µg/m3 2.85 µg/m3 0.12 mg/m3 20.88 °C 65.5 % 1,019.80 mbar 2.5 m/s 277.71 Deg 6.44 µg/m3 0.5 µg/m3
2022-11-08 15:00 22.38 µg/m3 0.43 µg/m3 57.68 µg/m3 7.87 µg/m3 2.9 µg/m3 0.11 mg/m3 21.17 °C 64.44 % 1,019.93 mbar 2.52 m/s 278.48 Deg 9.25 µg/m3 0.58 µg/m3
2022-11-08 14:00 18.83 µg/m3 0.4 µg/m3 57.24 µg/m3 8.88 µg/m3 2.82 µg/m3 0.11 mg/m3 21.29 °C 62.07 % 1,020.26 mbar 3.09 m/s 263.5 Deg 7.73 µg/m3 1.21 µg/m3
2022-11-08 13:00 15.26 µg/m3 0.43 µg/m3 58.77 µg/m3 7.55 µg/m3 2.82 µg/m3 0.11 mg/m3 21.36 °C 63.4 % 1,020.71 mbar 3.14 m/s 253.38 Deg 5.34 µg/m3 0.79 µg/m3
2022-11-08 12:00 17.09 µg/m3 0.46 µg/m3 58.99 µg/m3 7.8 µg/m3 2.9 µg/m3 0.1 mg/m3 21.25 °C 64.19 % 1,021.20 mbar 2.65 m/s 262.2 Deg 6.57 µg/m3 0.89 µg/m3
2022-11-08 11:00 19.02 µg/m3 0.63 µg/m3 52.75 µg/m3 10.5 µg/m3 3.28 µg/m3 0.07 mg/m3 21.08 °C 65.5 % 1,021.44 mbar 2.31 m/s 258.81 Deg 6.89 µg/m3 0.81 µg/m3
2022-11-08 10:00 24.21 µg/m3 0.84 µg/m3 44.26 µg/m3 14.26 µg/m3 4.14 µg/m3 0.14 mg/m3 20.91 °C 66.68 % 1,021.17 mbar 1.86 m/s 272.8 Deg 9.99 µg/m3 1.15 µg/m3
2022-11-08 09:00 59.89 µg/m3 2.19 µg/m3 10.29 µg/m3 44.21 µg/m3 11.54 µg/m3 0.29 mg/m3 19.96 °C 73.77 % 1,020.86 mbar 0.52 m/s 211.24 Deg 102.99 µg/m3 4.57 µg/m3
2022-11-08 08:00 54.63 µg/m3 2.38 µg/m3 3.25 µg/m3 47.54 µg/m3 11.95 µg/m3 0.39 mg/m3 16.47 °C 85.98 % 1,020.46 mbar 0.7 m/s 224.42 Deg 145.24 µg/m3 5.37 µg/m3
2022-11-08 07:00 52.33 µg/m3 2.04 µg/m3 3.28 µg/m3 34.62 µg/m3 9.07 µg/m3 0.34 mg/m3 15.21 °C 88.58 % 1,020.14 mbar 0.96 m/s 239.93 Deg 141.5 µg/m3 3.41 µg/m3
2022-11-08 06:00 38.38 µg/m3 1.18 µg/m3 5.59 µg/m3 22.39 µg/m3 6.07 µg/m3 0.18 mg/m3 15.42 °C 87.08 % 1,020.16 mbar 0.81 m/s 233.34 Deg 49.92 µg/m3 1.5 µg/m3
2022-11-08 05:00 27.28 µg/m3 0.5 µg/m3 22.26 µg/m3 9.39 µg/m3 3.92 µg/m3 0.12 mg/m3 17.46 °C 79.25 % 1,020.22 mbar 0.9 m/s 218.63 Deg 17.42 µg/m3 1 µg/m3
2022-11-08 04:00 17.08 µg/m3 0.28 µg/m3 30.72 µg/m3 7.22 µg/m3 2.85 µg/m3 0.09 mg/m3 17.03 °C 80.77 % 1,020.20 mbar 0.76 m/s 223.45 Deg 2.88 µg/m3 0.52 µg/m3
2022-11-08 03:00 27.75 µg/m3 0.28 µg/m3 33.58 µg/m3 7.09 µg/m3 2.78 µg/m3 0.07 mg/m3 16.62 °C 83.27 % 1,020.46 mbar 0.5 m/s 235.79 Deg 0.71 µg/m3 0.61 µg/m3
2022-11-08 02:00 17.51 µg/m3 0.49 µg/m3 23.67 µg/m3 9.49 µg/m3 3.42 µg/m3 0.15 mg/m3 16.99 °C 82.89 % 1,020.71 mbar 0.5 m/s 239.34 Deg 4.64 µg/m3 0.73 µg/m3
2022-11-08 01:00 24.99 µg/m3 0.66 µg/m3 23.12 µg/m3 19.52 µg/m3 4.97 µg/m3 0.19 mg/m3 17.74 °C 79.42 % 1,020.79 mbar 0.18 m/s 206 Deg 14.49 µg/m3 1.1 µg/m3
2022-11-08 00:00 20.6 µg/m3 0.46 µg/m3 26.13 µg/m3 11.28 µg/m3 3.86 µg/m3 0.19 mg/m3 17.72 °C 78.02 % 1,020.93 mbar 0.7 m/s 218.38 Deg 5.46 µg/m3 1.84 µg/m3
2022-11-07 23:00 20.04 µg/m3 0.36 µg/m3 43.25 µg/m3 9.34 µg/m3 3.75 µg/m3 0.2 mg/m3 18.39 °C 75.13 % 1,021.02 mbar 1.09 m/s 215.95 Deg 7.47 µg/m3 0.89 µg/m3
2022-11-07 22:00 10.15 µg/m3 0.36 µg/m3 54.88 µg/m3 9.07 µg/m3 3.56 µg/m3 0.17 mg/m3 18.6 °C 72.21 % 1,020.94 mbar 1.05 m/s 231.89 Deg 1.23 µg/m3 0.71 µg/m3
2022-11-07 21:00 10.88 µg/m3 0.31 µg/m3 54.38 µg/m3 9.03 µg/m3 3.12 µg/m3 0.16 mg/m3 18.79 °C 69.1 % 1,020.75 mbar 1.31 m/s 249.54 Deg 1.93 µg/m3 0.63 µg/m3
2022-11-07 20:00 11.82 µg/m3 0.47 µg/m3 54.81 µg/m3 9.48 µg/m3 3.19 µg/m3 0.16 mg/m3 19.06 °C 69.27 % 1,020.57 mbar 1.28 m/s 263.4 Deg 0.4 µg/m3 0.76 µg/m3
2022-11-07 19:00 21.82 µg/m3 0.44 µg/m3 47.6 µg/m3 10.8 µg/m3 3.53 µg/m3 0.18 mg/m3 19.28 °C 69.73 % 1,020.23 mbar 1.06 m/s 296.05 Deg 2.04 µg/m3 1.15 µg/m3
2022-11-07 18:00 26.41 µg/m3 0.71 µg/m3 46.42 µg/m3 12.72 µg/m3 3.85 µg/m3 0.2 mg/m3 19.58 °C 68.59 % 1,019.82 mbar 1.45 m/s 295.34 Deg 9.18 µg/m3 1.02 µg/m3
2022-11-07 17:00 21.78 µg/m3 0.38 µg/m3 53.03 µg/m3 15.63 µg/m3 4.32 µg/m3 0.18 mg/m3 20.48 °C 63.54 % 1,019.51 mbar 2.17 m/s 298.14 Deg 8.21 µg/m3 1.15 µg/m3
2022-11-07 16:00 15.13 µg/m3 0.37 µg/m3 56.28 µg/m3 12.7 µg/m3 3.83 µg/m3 0.17 mg/m3 21.13 °C 60.85 % 1,019.40 mbar 2.75 m/s 298.83 Deg 4.4 µg/m3 2.36 µg/m3
2022-11-07 15:00 15.85 µg/m3 0.27 µg/m3 57.16 µg/m3 10.02 µg/m3 3.42 µg/m3 0.16 mg/m3 21.38 °C 60 % 1,019.39 mbar 3.31 m/s 271.73 Deg 6.28 µg/m3 0.84 µg/m3
2022-11-07 14:00 13.95 µg/m3 0.17 µg/m3 58.34 µg/m3 10.63 µg/m3 3.48 µg/m3 0.16 mg/m3 21.43 °C 60.89 % 1,019.44 mbar 3.14 m/s 293.7 Deg 6 µg/m3 0.65 µg/m3
2022-11-07 13:00 9.56 µg/m3 0.34 µg/m3 60.89 µg/m3 10.64 µg/m3 3.58 µg/m3 0.15 mg/m3 20.86 °C 64.01 % 1,019.60 mbar 3.05 m/s 28.96 Deg 3.67 µg/m3 0.61 µg/m3
2022-11-07 12:00 11.22 µg/m3 0.26 µg/m3 57.09 µg/m3 11.18 µg/m3 3.77 µg/m3 0.14 mg/m3 20.61 °C 66.15 % 1,019.94 mbar 3.1 m/s 25.56 Deg 3.83 µg/m3 0.86 µg/m3
2022-11-07 11:00 12.62 µg/m3 0.53 µg/m3 56.12 µg/m3 11.86 µg/m3 4.48 µg/m3 0.12 mg/m3 20.68 °C 68.84 % 1,020.08 mbar 2.44 m/s 105.18 Deg 16.39 µg/m3 1.57 µg/m3
2022-11-07 10:00 13.39 µg/m3 0.44 µg/m3 52.63 µg/m3 15.5 µg/m3 5.06 µg/m3 0.11 mg/m3 20.58 °C 68.24 % 1,019.73 mbar 2.2 m/s 175.95 Deg 4.39 µg/m3 0.84 µg/m3
2022-11-07 09:00 29 µg/m3 0.95 µg/m3 33.24 µg/m3 18.91 µg/m3 5.87 µg/m3 0.15 mg/m3 20.1 °C 71.62 % 1,019.34 mbar 1.49 m/s 291.03 Deg 15.71 µg/m3 1.26 µg/m3
2022-11-07 08:00 35.82 µg/m3 0.69 µg/m3 25.53 µg/m3 19.23 µg/m3 6.24 µg/m3 0.17 mg/m3 18.44 °C 78.54 % 1,018.91 mbar 1.34 m/s 225.05 Deg 23.58 µg/m3 1.86 µg/m3
2022-11-07 07:00 44.4 µg/m3 0.8 µg/m3 19.78 µg/m3 16.33 µg/m3 6.07 µg/m3 0.21 mg/m3 18.01 °C 79.42 % 1,018.46 mbar 1.14 m/s 240.7 Deg 42.81 µg/m3 1.54 µg/m3
2022-11-07 06:00 23.17 µg/m3 0.35 µg/m3 37.51 µg/m3 13.72 µg/m3 5.36 µg/m3 0.12 mg/m3 18.47 °C 78.96 % 1,018.06 mbar 1.35 m/s 257.93 Deg 5.23 µg/m3 1.23 µg/m3
2022-11-07 05:00 13.39 µg/m3 0.23 µg/m3 45.42 µg/m3 10.87 µg/m3 4.08 µg/m3 0.1 mg/m3 18.76 °C 76.92 % 1,017.64 mbar 1.28 m/s 286.87 Deg 1.16 µg/m3 0.63 µg/m3
2022-11-07 04:00 13.09 µg/m3 0.18 µg/m3 54.84 µg/m3 9.59 µg/m3 4.11 µg/m3 0.1 mg/m3 19.03 °C 76.31 % 1,017.43 mbar 1.19 m/s 318.98 Deg -0.3 µg/m3 0.63 µg/m3
2022-11-07 03:00 25.33 µg/m3 0.18 µg/m3 55.62 µg/m3 11.58 µg/m3 4.41 µg/m3 0.03 mg/m3 19.17 °C 76.9 % 1,017.33 mbar 1.24 m/s 336.09 Deg -0.26 µg/m3 0.65 µg/m3
2022-11-07 02:00 5.53 µg/m3 0.2 µg/m3 53.19 µg/m3 11.45 µg/m3 4.47 µg/m3 -0 mg/m3 19.45 °C 76.23 % 1,017.25 mbar 2.19 m/s 339.55 Deg -0.31 µg/m3 0.68 µg/m3
2022-11-07 01:00 4.48 µg/m3 0.17 µg/m3 56.66 µg/m3 11.27 µg/m3 4.48 µg/m3 0 mg/m3 19.61 °C 74.91 % 1,017.12 mbar 2.74 m/s 339.18 Deg -0.14 µg/m3 0.84 µg/m3
2022-11-07 00:00 5.33 µg/m3 0.23 µg/m3 56.08 µg/m3 10.99 µg/m3 4.46 µg/m3 0.03 mg/m3 19.71 °C 73.35 % 1,017.00 mbar 2.64 m/s 172.63 Deg 0.29 µg/m3 0.65 µg/m3
2022-11-06 23:00 6.67 µg/m3 0.33 µg/m3 53.08 µg/m3 12.45 µg/m3 4.87 µg/m3 0.04 mg/m3 19.81 °C 73.38 % 1,016.70 mbar 2.81 m/s 331.58 Deg 0.34 µg/m3 0.68 µg/m3
2022-11-06 22:00 8.93 µg/m3 0.23 µg/m3 54.52 µg/m3 13.48 µg/m3 5.24 µg/m3 0.05 mg/m3 19.87 °C 72.66 % 1,016.26 mbar 2.06 m/s 317.18 Deg 0.78 µg/m3 0.86 µg/m3
2022-11-06 21:00 6.46 µg/m3 0.15 µg/m3 57.27 µg/m3 13.84 µg/m3 5.62 µg/m3 0.06 mg/m3 20.11 °C 71.09 % 1,015.59 mbar 2.41 m/s 252.34 Deg 0.54 µg/m3 0.73 µg/m3
2022-11-06 20:00 6.87 µg/m3 0.17 µg/m3 56.64 µg/m3 15.11 µg/m3 6.04 µg/m3 0.06 mg/m3 20.07 °C 70.6 % 1,014.99 mbar 2.94 m/s 334.85 Deg 1.09 µg/m3 0.68 µg/m3
2022-11-06 19:00 6.36 µg/m3 0.31 µg/m3 56.98 µg/m3 16.23 µg/m3 6.59 µg/m3 0.06 mg/m3 20.08 °C 69.4 % 1,014.26 mbar 4.23 m/s 350.45 Deg 1.18 µg/m3 0.65 µg/m3
2022-11-06 18:00 12.33 µg/m3 0.36 µg/m3 54.18 µg/m3 18.82 µg/m3 7.47 µg/m3 0.09 mg/m3 19.86 °C 68.41 % 1,013.59 mbar 3.69 m/s 330.88 Deg 3.15 µg/m3 1.08 µg/m3
2022-11-06 17:00 10.53 µg/m3 0.22 µg/m3 57.26 µg/m3 19.57 µg/m3 7.44 µg/m3 0.08 mg/m3 19.93 °C 66.44 % 1,012.99 mbar 4.14 m/s 320.38 Deg 2.85 µg/m3 0.87 µg/m3
2022-11-06 16:00 8.64 µg/m3 0.2 µg/m3 58.81 µg/m3 18.49 µg/m3 7.41 µg/m3 0.09 mg/m3 20.39 °C 62.84 % 1,012.57 mbar 4.89 m/s 319.93 Deg 2.81 µg/m3 0.79 µg/m3
2022-11-06 15:00 6.4 µg/m3 0.14 µg/m3 63.09 µg/m3 16.98 µg/m3 7.28 µg/m3 0.08 mg/m3 20.67 °C 59.83 % 1,012.03 mbar 5.76 m/s 321.11 Deg 1.46 µg/m3 0.56 µg/m3
2022-11-06 14:00 6.81 µg/m3 0.21 µg/m3 61.91 µg/m3 14.52 µg/m3 6.56 µg/m3 0.08 mg/m3 20.72 °C 57.8 % 1,011.78 mbar 5.86 m/s 322.86 Deg 2.6 µg/m3 0.91 µg/m3
2022-11-06 13:00 6.98 µg/m3 0.27 µg/m3 60.42 µg/m3 16.14 µg/m3 6.18 µg/m3 0.09 mg/m3 20.79 °C 54.85 % 1,011.88 mbar 5.67 m/s 304.36 Deg 1.74 µg/m3 0.84 µg/m3
2022-11-06 12:00 7.66 µg/m3 0.38 µg/m3 61.73 µg/m3 16.99 µg/m3 6.29 µg/m3 0.1 mg/m3 20.76 °C 53.8 % 1,011.85 mbar 5.48 m/s 311.08 Deg 2.5 µg/m3 0.91 µg/m3
2022-11-06 11:00 6.85 µg/m3 0.1 µg/m3 61.95 µg/m3 15.69 µg/m3 6.07 µg/m3 0.09 mg/m3 20.5 °C 54.98 % 1,011.68 mbar 5.79 m/s 317.98 Deg 1.9 µg/m3 0.63 µg/m3
2022-11-06 10:00 7.52 µg/m3 0.16 µg/m3 59.85 µg/m3 16.38 µg/m3 6.07 µg/m3 0.08 mg/m3 20.37 °C 54.34 % 1,011.31 mbar 5.23 m/s 323.06 Deg 2.16 µg/m3 0.7 µg/m3
2022-11-06 09:00 7.34 µg/m3 0.23 µg/m3 60.98 µg/m3 15.72 µg/m3 6.29 µg/m3 0.1 mg/m3 19.95 °C 57 % 1,010.94 mbar 4.74 m/s 317.54 Deg 1.21 µg/m3 0.61 µg/m3
2022-11-06 08:00 6.98 µg/m3 0.13 µg/m3 60.57 µg/m3 16.99 µg/m3 6.59 µg/m3 0.09 mg/m3 19.44 °C 60.97 % 1,010.22 mbar 4.67 m/s 340.94 Deg 0.61 µg/m3 0.61 µg/m3
2022-11-06 07:00 6.45 µg/m3 -0 µg/m3 59.43 µg/m3 17.41 µg/m3 6.93 µg/m3 0.09 mg/m3 19.3 °C 63.1 % 1,009.43 mbar 4.15 m/s 331.89 Deg 0.42 µg/m3 0.44 µg/m3
2022-11-06 06:00 6.56 µg/m3 0.22 µg/m3 61.39 µg/m3 16.48 µg/m3 6.73 µg/m3 0.09 mg/m3 19.13 °C 65.37 % 1,008.84 mbar 3.93 m/s 310.98 Deg -0.03 µg/m3 0.44 µg/m3
2022-11-06 05:00 7.7 µg/m3 0.11 µg/m3 63.76 µg/m3 11.69 µg/m3 4.63 µg/m3 0.09 mg/m3 18.78 °C 69.25 % 1,008.29 mbar 3.42 m/s 295.69 Deg -0.25 µg/m3 0.42 µg/m3
2022-11-06 04:00 10.57 µg/m3 0.24 µg/m3 68.68 µg/m3 9.55 µg/m3 3.74 µg/m3 0.09 mg/m3 18.56 °C 69.9 % 1,007.96 mbar 3.02 m/s 294.75 Deg -0.38 µg/m3 0.31 µg/m3
2022-11-06 03:00 23.35 µg/m3 0.1 µg/m3 68.2 µg/m3 10.63 µg/m3 3.93 µg/m3 0.05 mg/m3 18.43 °C 70.14 % 1,007.76 mbar 3.42 m/s 303.98 Deg -0.29 µg/m3 0.37 µg/m3
2022-11-06 02:00 4.56 µg/m3 0.16 µg/m3 64.59 µg/m3 11.72 µg/m3 4.54 µg/m3 0.07 mg/m3 18.51 °C 67.59 % 1,007.65 mbar 3.23 m/s 298.79 Deg -0.18 µg/m3 0.42 µg/m3
2022-11-06 01:00 3.81 µg/m3 0.2 µg/m3 70.28 µg/m3 12.55 µg/m3 4.86 µg/m3 0.07 mg/m3 18.29 °C 69.61 % 1,007.38 mbar 3.65 m/s 295.2 Deg -0.34 µg/m3 0.39 µg/m3
2022-11-06 00:00 5.57 µg/m3 0.15 µg/m3 64.43 µg/m3 10.07 µg/m3 4.06 µg/m3 0.08 mg/m3 18.16 °C 67.61 % 1,007.61 mbar 3.38 m/s 309.33 Deg 0.17 µg/m3 0.44 µg/m3
2022-11-05 23:00 4.64 µg/m3 0.1 µg/m3 68.41 µg/m3 9.07 µg/m3 3.51 µg/m3 0.08 mg/m3 17.91 °C 68.33 % 1,007.40 mbar 3.97 m/s 303.66 Deg 0.48 µg/m3 0.44 µg/m3
2022-11-05 22:00 4.47 µg/m3 0.07 µg/m3 68.96 µg/m3 10.83 µg/m3 4.06 µg/m3 0.08 mg/m3 17.99 °C 69.95 % 1,006.89 mbar 3.78 m/s 298.38 Deg 0.31 µg/m3 0.44 µg/m3
2022-11-05 21:00 6.16 µg/m3 0.01 µg/m3 65.34 µg/m3 12.42 µg/m3 4.68 µg/m3 0.08 mg/m3 17.83 °C 70.8 % 1,006.45 mbar 3.18 m/s 284.66 Deg 0.46 µg/m3 0.76 µg/m3
2022-11-05 20:00 8.43 µg/m3 0.05 µg/m3 64.91 µg/m3 10.76 µg/m3 4.44 µg/m3 0.09 mg/m3 16.84 °C 74.87 % 1,006.19 mbar 3.19 m/s 283.38 Deg 1.39 µg/m3 0.76 µg/m3
2022-11-05 19:00 9.24 µg/m3 0.23 µg/m3 63.31 µg/m3 12.17 µg/m3 5 µg/m3 0.09 mg/m3 16.28 °C 77.77 % 1,005.94 mbar 2.83 m/s 304.08 Deg 1.36 µg/m3 0.61 µg/m3
2022-11-05 18:00 9.33 µg/m3 0.17 µg/m3 61.06 µg/m3 14.52 µg/m3 5.36 µg/m3 0.09 mg/m3 16.47 °C 74.67 % 1,005.64 mbar 3.04 m/s 300.86 Deg 1.61 µg/m3 0.56 µg/m3
2022-11-05 17:00 10.19 µg/m3 0.19 µg/m3 60.96 µg/m3 14.51 µg/m3 6.47 µg/m3 0.1 mg/m3 14.37 °C 90.63 % 1,005.63 mbar 3.38 m/s 315.73 Deg 2.14 µg/m3 0.73 µg/m3
2022-11-05 16:00 7.2 µg/m3 0.07 µg/m3 64.43 µg/m3 15.34 µg/m3 6.87 µg/m3 0.09 mg/m3 14.09 °C 93.75 % 1,005.68 mbar 6.02 m/s 288.34 Deg 2.01 µg/m3 0.5 µg/m3
2022-11-05 15:00 5.75 µg/m3 0.05 µg/m3 65.72 µg/m3 12.86 µg/m3 6.12 µg/m3 0.08 mg/m3 17.52 °C 74.24 % 1,005.47 mbar 8.05 m/s 269.83 Deg 1.27 µg/m3 0.58 µg/m3
2022-11-05 14:00 7.14 µg/m3 0.03 µg/m3 65.78 µg/m3 10.12 µg/m3 3.96 µg/m3 0.09 mg/m3 18.52 °C 63.88 % 1,006.13 mbar 6.43 m/s 271.93 Deg 1.71 µg/m3 0.65 µg/m3
2022-11-05 13:00 8.81 µg/m3 0.06 µg/m3 63.29 µg/m3 15.22 µg/m3 5.99 µg/m3 0.08 mg/m3 17.87 °C 66.74 % 1,007.07 mbar 6.51 m/s 282.48 Deg 2.44 µg/m3 0.61 µg/m3
2022-11-05 12:00 9.43 µg/m3 0.18 µg/m3 60.54 µg/m3 12.55 µg/m3 4.32 µg/m3 0.08 mg/m3 20.04 °C 55 % 1,007.21 mbar 6.88 m/s 270.79 Deg 3.17 µg/m3 0.47 µg/m3
2022-11-05 11:00 8.98 µg/m3 0.1 µg/m3 63.62 µg/m3 11.53 µg/m3 3.97 µg/m3 0.08 mg/m3 19.55 °C 59.86 % 1,007.91 mbar 5.01 m/s 284.47 Deg 2.93 µg/m3 0.5 µg/m3
2022-11-05 10:00 7.96 µg/m3 0.07 µg/m3 65.03 µg/m3 12.14 µg/m3 4.22 µg/m3 0.09 mg/m3 18.81 °C 61.67 % 1,007.98 mbar 5.13 m/s 300.46 Deg 2.05 µg/m3 0.6 µg/m3
2022-11-05 09:00 12.53 µg/m3 0.03 µg/m3 56.24 µg/m3 12.14 µg/m3 4.53 µg/m3 0.1 mg/m3 18.28 °C 72.13 % 1,007.59 mbar 3.64 m/s 291.88 Deg 2.91 µg/m3 0.58 µg/m3
2022-11-05 08:00 13.25 µg/m3 0.06 µg/m3 55.64 µg/m3 12.92 µg/m3 5.18 µg/m3 0.1 mg/m3 16.89 °C 80.6 % 1,007.51 mbar 4.4 m/s 255.02 Deg 2.19 µg/m3 0.52 µg/m3
2022-11-05 07:00 16.8 µg/m3 0.05 µg/m3 55.3 µg/m3 12.06 µg/m3 4.72 µg/m3 0.11 mg/m3 15.93 °C 82.96 % 1,007.38 mbar 3 m/s 256.3 Deg 3.48 µg/m3 0.58 µg/m3
2022-11-05 06:00 5.66 µg/m3 -0.01 µg/m3 69.5 µg/m3 8.36 µg/m3 3.33 µg/m3 0.09 mg/m3 17.86 °C 69.8 % 1,008.70 mbar 6.51 m/s 277.98 Deg 0.33 µg/m3 0.42 µg/m3
2022-11-05 05:00 6.34 µg/m3 0.16 µg/m3 69.79 µg/m3 10.67 µg/m3 4.24 µg/m3 0.09 mg/m3 19.43 °C 66.5 % 1,007.71 mbar 5.52 m/s 287.8 Deg -0.22 µg/m3 0.34 µg/m3
2022-11-05 04:00 11.27 µg/m3 0.14 µg/m3 56.25 µg/m3 17.95 µg/m3 7.09 µg/m3 0.1 mg/m3 18.25 °C 87.03 % 1,006.71 mbar 3.43 m/s 289.16 Deg -0.31 µg/m3 0.42 µg/m3
2022-11-05 03:00 28.74 µg/m3 0.06 µg/m3 48.09 µg/m3 22.9 µg/m3 8.75 µg/m3 0.1 mg/m3 19.86 °C 78.58 % 1,007.36 mbar 0.98 m/s 277.18 Deg 0.35 µg/m3 0.47 µg/m3
2022-11-05 02:00 6.4 µg/m3 0.47 µg/m3 60.85 µg/m3 37.7 µg/m3 13.51 µg/m3 0.19 mg/m3 20.12 °C 80.72 % 1,007.72 mbar 2.77 m/s 304.56 Deg 0.2 µg/m3 0.52 µg/m3
2022-11-05 01:00 5.83 µg/m3 0.68 µg/m3 65.51 µg/m3 58.25 µg/m3 18.56 µg/m3 0.2 mg/m3 23.62 °C 68.63 % 1,007.52 mbar 5.51 m/s 247.01 Deg 0.65 µg/m3 0.63 µg/m3
2022-11-05 00:00 5.43 µg/m3 0.51 µg/m3 67.29 µg/m3 47.93 µg/m3 16.13 µg/m3 0.2 mg/m3 23.63 °C 66.31 % 1,008.50 mbar 5.13 m/s 231.48 Deg 0.63 µg/m3 0.73 µg/m3
2022-11-04 23:00 5.67 µg/m3 0.33 µg/m3 67.55 µg/m3 39.75 µg/m3 15.17 µg/m3 0.2 mg/m3 23.36 °C 65.83 % 1,009.38 mbar 4.62 m/s 234.85 Deg 0.54 µg/m3 0.7 µg/m3
2022-11-04 22:00 5.62 µg/m3 0.26 µg/m3 67.65 µg/m3 32.94 µg/m3 13.43 µg/m3 0.19 mg/m3 23.35 °C 62.48 % 1,009.72 mbar 5.04 m/s 236.12 Deg 0.53 µg/m3 3.44 µg/m3
2022-11-04 21:00 6.68 µg/m3 0.59 µg/m3 66.68 µg/m3 31.91 µg/m3 12.85 µg/m3 0.2 mg/m3 23.34 °C 66.1 % 1,009.89 mbar 5.4 m/s 242.65 Deg 0.73 µg/m3 0.73 µg/m3
2022-11-04 20:00 10.56 µg/m3 0.72 µg/m3 62.53 µg/m3 29.84 µg/m3 12.15 µg/m3 0.2 mg/m3 23.23 °C 66.49 % 1,010.27 mbar 5.4 m/s 245.49 Deg 2.16 µg/m3 0.97 µg/m3
2022-11-04 19:00 22.7 µg/m3 1.03 µg/m3 62.02 µg/m3 34.77 µg/m3 14.13 µg/m3 0.24 mg/m3 22.74 °C 71.67 % 1,010.50 mbar 2.89 m/s 227.53 Deg 3.88 µg/m3 1.84 µg/m3
2022-11-04 18:00 31.48 µg/m3 2.27 µg/m3 62.76 µg/m3 61.15 µg/m3 41.81 µg/m3 0.32 mg/m3 22.54 °C 74.07 % 1,010.95 mbar 3.02 m/s 223.23 Deg 6.05 µg/m3 3.28 µg/m3
2022-11-04 17:00 22.82 µg/m3 0.72 µg/m3 70.73 µg/m3 37.47 µg/m3 14.76 µg/m3 0.23 mg/m3 23.17 °C 69.76 % 1,011.44 mbar 4.17 m/s 238.3 Deg 5.68 µg/m3 1.63 µg/m3
2022-11-04 16:00 24.23 µg/m3 1.25 µg/m3 72.13 µg/m3 43.22 µg/m3 19.5 µg/m3 0.22 mg/m3 23.94 °C 67.02 % 1,011.85 mbar 4.31 m/s 230.91 Deg 5.54 µg/m3 1.57 µg/m3
2022-11-04 15:00 20.16 µg/m3 0.84 µg/m3 64.81 µg/m3 48.21 µg/m3 16.21 µg/m3 0.21 mg/m3 24.27 °C 66.89 % 1,012.45 mbar 5.97 m/s 240.37 Deg 6.07 µg/m3 1.92 µg/m3
2022-11-04 14:00 21.55 µg/m3 0.66 µg/m3 58.55 µg/m3 33.15 µg/m3 12.24 µg/m3 0.2 mg/m3 24.65 °C 64.8 % 1,013.12 mbar 5.71 m/s 245.82 Deg 8.78 µg/m3 1.15 µg/m3
2022-11-04 13:00 13.34 µg/m3 0.52 µg/m3 60.09 µg/m3 28.98 µg/m3 11 µg/m3 0.19 mg/m3 24.69 °C 63.28 % 1,013.93 mbar 5.6 m/s 250.64 Deg 4.84 µg/m3 1.03 µg/m3
2022-11-04 12:00 12.67 µg/m3 0.85 µg/m3 56.15 µg/m3 31.64 µg/m3 11.1 µg/m3 0.2 mg/m3 24.47 °C 63.82 % 1,014.98 mbar 5.5 m/s 248.77 Deg 3.77 µg/m3 0.84 µg/m3
2022-11-04 11:00 16.82 µg/m3 0.84 µg/m3 50.74 µg/m3 26.91 µg/m3 10.23 µg/m3 0.2 mg/m3 24.06 °C 65.85 % 1,015.77 mbar 5.16 m/s 246.83 Deg 9.08 µg/m3 0.68 µg/m3
2022-11-04 10:00 14.78 µg/m3 0.55 µg/m3 50.03 µg/m3 26.29 µg/m3 9.73 µg/m3 0.2 mg/m3 23.66 °C 66.96 % 1,016.15 mbar 4.91 m/s 245.11 Deg 5.91 µg/m3 0.89 µg/m3
2022-11-04 09:00 17.63 µg/m3 0.71 µg/m3 46.79 µg/m3 29.36 µg/m3 10.22 µg/m3 0.18 mg/m3 23.01 °C 68.05 % 1,016.40 mbar 4.02 m/s 246.53 Deg 5.84 µg/m3 0.98 µg/m3
2022-11-04 08:00 27.73 µg/m3 0.65 µg/m3 37.41 µg/m3 26.27 µg/m3 9.85 µg/m3 0.17 mg/m3 21.84 °C 72.38 % 1,016.33 mbar 2.94 m/s 235.34 Deg 8.46 µg/m3 1.4 µg/m3
2022-11-04 07:00 33.82 µg/m3 0.73 µg/m3 36.12 µg/m3 25.77 µg/m3 9.46 µg/m3 0.18 mg/m3 21.27 °C 74.6 % 1,016.34 mbar 2.66 m/s 234.23 Deg 13.18 µg/m3 0.82 µg/m3
2022-11-04 06:00 23.82 µg/m3 0.27 µg/m3 40.72 µg/m3 23.27 µg/m3 9.33 µg/m3 0.15 mg/m3 21.04 °C 76.63 % 1,016.48 mbar 2.19 m/s 236.05 Deg 5.13 µg/m3 1.15 µg/m3
2022-11-04 05:00 14.99 µg/m3 0.3 µg/m3 43.31 µg/m3 18.27 µg/m3 8.99 µg/m3 0.13 mg/m3 20.52 °C 80.13 % 1,016.51 mbar 1.48 m/s 241.55 Deg 0.88 µg/m3 0.52 µg/m3
2022-11-04 04:00 17.7 µg/m3 0.28 µg/m3 48.03 µg/m3 15.95 µg/m3 8.66 µg/m3 0.12 mg/m3 20.55 °C 78.63 % 1,016.45 mbar 1.55 m/s 216.84 Deg 1.06 µg/m3 0.58 µg/m3
2022-11-04 03:00 25.23 µg/m3 0.26 µg/m3 49.84 µg/m3 14.79 µg/m3 8.56 µg/m3 0.07 mg/m3 20.16 °C 79.81 % 1,017.09 mbar 1.26 m/s 243.94 Deg 0 µg/m3 0.6 µg/m3
2022-11-04 02:00 8.44 µg/m3 0.21 µg/m3 48.11 µg/m3 14.1 µg/m3 8.19 µg/m3 0.08 mg/m3 20.07 °C 80.81 % 1,017.63 mbar 1.36 m/s 245.23 Deg 0.01 µg/m3 0.6 µg/m3
2022-11-04 01:00 8.42 µg/m3 0.46 µg/m3 47.39 µg/m3 14.67 µg/m3 8.62 µg/m3 0.14 mg/m3 20.09 °C 80.64 % 1,018.17 mbar 1.55 m/s 251.87 Deg 0.5 µg/m3 0.76 µg/m3
2022-11-04 00:00 20.25 µg/m3 0.44 µg/m3 37.44 µg/m3 17.39 µg/m3 9.64 µg/m3 0.17 mg/m3 20.02 °C 80.47 % 1,018.50 mbar 1.25 m/s 243.07 Deg 2.39 µg/m3 0.92 µg/m3
2022-11-03 23:00 23.7 µg/m3 0.48 µg/m3 33.46 µg/m3 17.97 µg/m3 9.82 µg/m3 0.17 mg/m3 20.25 °C 78.91 % 1,018.76 mbar 1.08 m/s 226.35 Deg 3.83 µg/m3 1.24 µg/m3
2022-11-03 22:00 31.16 µg/m3 0.59 µg/m3 34.49 µg/m3 18.23 µg/m3 9.83 µg/m3 0.24 mg/m3 20.36 °C 78.41 % 1,019.03 mbar 0.79 m/s 214.18 Deg 7.29 µg/m3 2.26 µg/m3
2022-11-03 21:00 24.34 µg/m3 0.52 µg/m3 41.24 µg/m3 19.14 µg/m3 10.45 µg/m3 0.16 mg/m3 20.66 °C 76.92 % 1,019.10 mbar 0.81 m/s 222.68 Deg 5.57 µg/m3 1.94 µg/m3
2022-11-03 20:00 27.36 µg/m3 0.73 µg/m3 39.63 µg/m3 18.9 µg/m3 10.93 µg/m3 0.17 mg/m3 20.94 °C 76.57 % 1,019.09 mbar 0.92 m/s 219.58 Deg 8.18 µg/m3 1.05 µg/m3
2022-11-03 19:00 27.71 µg/m3 0.5 µg/m3 37.86 µg/m3 24.92 µg/m3 12.29 µg/m3 0.16 mg/m3 21.25 °C 75.8 % 1,019.20 mbar 1.14 m/s 233.12 Deg 6.32 µg/m3 1.26 µg/m3
2022-11-03 18:00 38.17 µg/m3 0.64 µg/m3 34.36 µg/m3 34 µg/m3 16.85 µg/m3 0.17 mg/m3 21.63 °C 75.02 % 1,019.09 mbar 1.29 m/s 247.52 Deg 15.47 µg/m3 1.52 µg/m3
2022-11-03 17:00 28.35 µg/m3 0.82 µg/m3 44.44 µg/m3 19.21 µg/m3 10.85 µg/m3 0.15 mg/m3 22.55 °C 72.12 % 1,019.22 mbar 2.23 m/s 277.98 Deg 12.56 µg/m3 1.12 µg/m3
2022-11-03 16:00 15.59 µg/m3 0.53 µg/m3 57.8 µg/m3 17.54 µg/m3 9.68 µg/m3 0.11 mg/m3 23.1 °C 70.43 % 1,019.44 mbar 3.22 m/s 278.11 Deg 6.72 µg/m3 0.65 µg/m3
2022-11-03 15:00 12.67 µg/m3 0.56 µg/m3 56.08 µg/m3 15.15 µg/m3 8.65 µg/m3 0.1 mg/m3 23.38 °C 70.14 % 1,019.62 mbar 3.42 m/s 286.43 Deg 5.8 µg/m3 0.7 µg/m3
2022-11-03 14:00 12.86 µg/m3 0.56 µg/m3 56.33 µg/m3 14.27 µg/m3 8.31 µg/m3 0.1 mg/m3 23.43 °C 69.12 % 1,020.07 mbar 3.25 m/s 282.79 Deg 6.09 µg/m3 0.61 µg/m3
2022-11-03 13:00 14.03 µg/m3 0.38 µg/m3 55.77 µg/m3 14.08 µg/m3 7.71 µg/m3 0.11 mg/m3 23.27 °C 69.89 % 1,020.73 mbar 3.22 m/s 279.83 Deg 6.63 µg/m3 0.61 µg/m3
2022-11-03 12:00 13.69 µg/m3 0.51 µg/m3 54.48 µg/m3 14.58 µg/m3 7.71 µg/m3 0.1 mg/m3 23.15 °C 71.03 % 1,021.46 mbar 3.08 m/s 283.29 Deg 6.04 µg/m3 0.55 µg/m3
2022-11-03 11:00 11.88 µg/m3 0.49 µg/m3 55.81 µg/m3 13.97 µg/m3 7.6 µg/m3 0.1 mg/m3 23 °C 72.42 % 1,022.04 mbar 3.13 m/s 285.53 Deg 4.95 µg/m3 0.47 µg/m3
2022-11-03 10:00 14.5 µg/m3 0.6 µg/m3 52.5 µg/m3 14.87 µg/m3 7.88 µg/m3 0.06 mg/m3 22.75 °C 72.08 % 1,022.09 mbar 2.68 m/s 288.23 Deg 4.4 µg/m3 0.66 µg/m3
2022-11-03 09:00 32.19 µg/m3 1.02 µg/m3 29.85 µg/m3 27.41 µg/m3 11.26 µg/m3 0.1 mg/m3 21.98 °C 77.27 % 1,022.06 mbar 1.5 m/s 270.08 Deg 22.13 µg/m3 1.87 µg/m3
2022-11-03 08:00 54.74 µg/m3 1.95 µg/m3 8.9 µg/m3 178.71 µg/m3 28.82 µg/m3 0.25 mg/m3 19.93 °C 87.04 % 1,021.65 mbar 0.88 m/s 211.13 Deg 101.43 µg/m3 4.04 µg/m3
2022-11-03 07:00 51.37 µg/m3 1.77 µg/m3 3.4 µg/m3 50.76 µg/m3 19.13 µg/m3 0.27 mg/m3 18.72 °C 91.51 % 1,021.19 mbar 0.84 m/s 212.73 Deg 114.47 µg/m3 3.73 µg/m3
2022-11-03 06:00 34.79 µg/m3 1.02 µg/m3 16.69 µg/m3 27.92 µg/m3 12.37 µg/m3 0.12 mg/m3 19.03 °C 90.85 % 1,021.01 mbar 0.96 m/s 206.62 Deg 40.25 µg/m3 1.42 µg/m3
2022-11-03 05:00 23.58 µg/m3 0.54 µg/m3 15.11 µg/m3 22.2 µg/m3 10.83 µg/m3 0.05 mg/m3 18.99 °C 91.29 % 1,021.07 mbar 0.87 m/s 199.84 Deg 15.83 µg/m3 1.57 µg/m3
2022-11-03 04:00 22.11 µg/m3 0.3 µg/m3 23.58 µg/m3 24.79 µg/m3 10.78 µg/m3 0.03 mg/m3 19.18 °C 90.54 % 1,021.20 mbar 0.87 m/s 209.03 Deg 16.28 µg/m3 0.6 µg/m3
2022-11-03 03:00 29.79 µg/m3 0.55 µg/m3 23.72 µg/m3 17.15 µg/m3 9.71 µg/m3 0.04 mg/m3 19.27 °C 89.79 % 1,021.57 mbar 0.84 m/s 208.33 Deg 1.69 µg/m3 0.6 µg/m3
2022-11-03 02:00 9.78 µg/m3 0.41 µg/m3 24.08 µg/m3 16.47 µg/m3 9.42 µg/m3 0.15 mg/m3 19.1 °C 89.22 % 1,021.72 mbar 0.83 m/s 217.68 Deg 0.96 µg/m3 0.63 µg/m3
2022-11-03 01:00 14.65 µg/m3 0.44 µg/m3 27.7 µg/m3 21.2 µg/m3 9.57 µg/m3 0.15 mg/m3 19.51 °C 86.76 % 1,021.78 mbar 0.93 m/s 215.45 Deg 2.83 µg/m3 1.75 µg/m3
2022-11-03 00:00 23.58 µg/m3 0.62 µg/m3 27.94 µg/m3 19.67 µg/m3 10 µg/m3 0.2 mg/m3 19.69 °C 85.18 % 1,021.92 mbar 0.88 m/s 216.16 Deg 7.87 µg/m3 1.36 µg/m3
2022-11-02 23:00 18.87 µg/m3 0.45 µg/m3 42.91 µg/m3 15.98 µg/m3 9.37 µg/m3 0.16 mg/m3 20.77 °C 79.64 % 1,022.01 mbar 1.04 m/s 224.14 Deg 5.64 µg/m3 1.08 µg/m3
2022-11-02 22:00 19.81 µg/m3 0.47 µg/m3 45.37 µg/m3 19.11 µg/m3 9.59 µg/m3 0.16 mg/m3 20.71 °C 78.91 % 1,021.95 mbar 0.98 m/s 207.54 Deg 5.82 µg/m3 1.45 µg/m3
2022-11-02 21:00 14.13 µg/m3 0.44 µg/m3 48.22 µg/m3 17.56 µg/m3 9.31 µg/m3 0.14 mg/m3 20.54 °C 79.01 % 1,021.97 mbar 1 m/s 206.43 Deg 2.94 µg/m3 0.68 µg/m3
2022-11-02 20:00 21.17 µg/m3 0.49 µg/m3 43.82 µg/m3 19.95 µg/m3 10.17 µg/m3 0.14 mg/m3 20.76 °C 80.97 % 1,021.91 mbar 1.04 m/s 245.42 Deg 5.82 µg/m3 0.94 µg/m3
2022-11-02 19:00 26.89 µg/m3 -0.06 µg/m3 35.73 µg/m3 46.41 µg/m3 14.02 µg/m3 0.16 mg/m3 20.8 °C 80.79 % 1,021.70 mbar 1.13 m/s 238.67 Deg 7.07 µg/m3 1.23 µg/m3
2022-11-02 18:00 31.77 µg/m3 0 µg/m3 38.96 µg/m3 38.5 µg/m3 12.33 µg/m3 0.16 mg/m3 21.5 °C 78.17 % 1,021.48 mbar 1.55 m/s 261.53 Deg 10.44 µg/m3 0.89 µg/m3
2022-11-02 17:00 19.09 µg/m3 0 µg/m3 54.03 µg/m3 18.65 µg/m3 9.65 µg/m3 0.15 mg/m3 22.66 °C 73.54 % 1,021.44 mbar 2.41 m/s 278.12 Deg 4.54 µg/m3 0.86 µg/m3
2022-11-02 16:00 14.69 µg/m3 0 µg/m3 57.27 µg/m3 19.7 µg/m3 9.57 µg/m3 0.14 mg/m3 23.31 °C 71.01 % 1,021.48 mbar 2.93 m/s 281.98 Deg 4.86 µg/m3 1.26 µg/m3
2022-11-02 15:00 14.57 µg/m3 0 µg/m3 55.74 µg/m3 18.49 µg/m3 9.34 µg/m3 0.13 mg/m3 23.62 °C 69.06 % 1,021.58 mbar 3.18 m/s 279.98 Deg 4.64 µg/m3 0.56 µg/m3
2022-11-02 14:00 14.64 µg/m3 0 µg/m3 58.83 µg/m3 20.65 µg/m3 10.13 µg/m3 0.12 mg/m3 23.7 °C 68.8 % 1,021.94 mbar 3.35 m/s 288.83 Deg 6.72 µg/m3 1.1 µg/m3
2022-11-02 13:00 15.94 µg/m3 0.18 µg/m3 60.25 µg/m3 24.12 µg/m3 10.69 µg/m3 0.12 mg/m3 23.8 °C 69.06 % 1,022.51 mbar 3.27 m/s 282.22 Deg 4.86 µg/m3 1.1 µg/m3
2022-11-02 12:00 0 µg/m3 0.31 µg/m3 0 µg/m3 20.41 µg/m3 10.27 µg/m3 0.12 mg/m3 23.3 °C 72.53 % 1,022.97 mbar 2.59 m/s 333.14 Deg 0 µg/m3 0.6 µg/m3
2022-11-02 11:00 0 µg/m3 0.29 µg/m3 0 µg/m3 20.16 µg/m3 10.61 µg/m3 0.1 mg/m3 22.99 °C 73.28 % 1,023.27 mbar 2.42 m/s 169.11 Deg 0 µg/m3 0.82 µg/m3
2022-11-02 10:00 0 µg/m3 94.94 µg/m3 0 µg/m3 18.8 µg/m3 10.22 µg/m3 0.07 mg/m3 22.82 °C 73.96 % 1,023.31 mbar 2.15 m/s 259.51 Deg 0 µg/m3 1 µg/m3
2022-11-02 09:00 45.66 µg/m3 0.66 µg/m3 21.29 µg/m3 33.72 µg/m3 13.71 µg/m3 0.18 mg/m3 22.27 °C 78.94 % 1,023.35 mbar 1.23 m/s 149.6 Deg 30.53 µg/m3 2.2 µg/m3
2022-11-02 08:00 51.03 µg/m3 0.66 µg/m3 15.88 µg/m3 41.15 µg/m3 16.8 µg/m3 0.33 mg/m3 20.47 °C 86.63 % 1,022.95 mbar 1.05 m/s 227.75 Deg 54.71 µg/m3 3.99 µg/m3
2022-11-02 07:00 50.21 µg/m3 1.09 µg/m3 8.63 µg/m3 28.13 µg/m3 15.02 µg/m3 0.38 mg/m3 19.46 °C 90.15 % 1,022.38 mbar 1.09 m/s 222.48 Deg 99.5 µg/m3 3.6 µg/m3
2022-11-02 06:00 43.45 µg/m3 0.35 µg/m3 13.72 µg/m3 23.57 µg/m3 13.93 µg/m3 0.25 mg/m3 19.51 °C 88.62 % 1,022.10 mbar 1.09 m/s 210.69 Deg 58.36 µg/m3 1.45 µg/m3
2022-11-02 05:00 26.27 µg/m3 -0.2 µg/m3 17.52 µg/m3 20.69 µg/m3 11.77 µg/m3 0.14 mg/m3 19.19 °C 88.22 % 1,021.84 mbar 0.95 m/s 223.93 Deg 11.62 µg/m3 0.68 µg/m3
2022-11-02 04:00 23.61 µg/m3 -0.43 µg/m3 24.82 µg/m3 18.9 µg/m3 10.98 µg/m3 0.13 mg/m3 19.48 °C 86.64 % 1,021.85 mbar 0.88 m/s 216.96 Deg 11.82 µg/m3 0.65 µg/m3
2022-11-02 03:00 30.2 µg/m3 -0.05 µg/m3 29.81 µg/m3 19.26 µg/m3 11.04 µg/m3 0.09 mg/m3 19.36 °C 87.03 % 1,022.12 mbar 0.94 m/s 221.8 Deg 7.21 µg/m3 0.52 µg/m3
2022-11-02 02:00 16.55 µg/m3 -0.21 µg/m3 32.62 µg/m3 18 µg/m3 11.03 µg/m3 0.18 mg/m3 19.86 °C 84.98 % 1,022.50 mbar 1.06 m/s 227.97 Deg 5.62 µg/m3 0.86 µg/m3
2022-11-02 01:00 18.61 µg/m3 -0.09 µg/m3 27.61 µg/m3 19.7 µg/m3 11.61 µg/m3 0.17 mg/m3 19.92 °C 83.85 % 1,022.62 mbar 1.08 m/s 225.88 Deg 3.65 µg/m3 1 µg/m3
2022-11-02 00:00 26.74 µg/m3 -0.07 µg/m3 26.83 µg/m3 21.43 µg/m3 12.38 µg/m3 0.19 mg/m3 20 °C 83.37 % 1,022.92 mbar 0.95 m/s 228.84 Deg 8.82 µg/m3 1.42 µg/m3
2022-11-01 23:00 27.04 µg/m3 -0 µg/m3 33.32 µg/m3 21.23 µg/m3 11.95 µg/m3 0.21 mg/m3 20.8 °C 80.03 % 1,023.08 mbar 0.9 m/s 207.14 Deg 10.36 µg/m3 1.42 µg/m3
2022-11-01 22:00 20.54 µg/m3 -0.24 µg/m3 50.06 µg/m3 20.95 µg/m3 11.93 µg/m3 0.2 mg/m3 21.26 °C 78.56 % 1,023.23 mbar 1.1 m/s 223.38 Deg 6.96 µg/m3 0.92 µg/m3
2022-11-01 21:00 17.62 µg/m3 -0.14 µg/m3 51.51 µg/m3 22.97 µg/m3 12.57 µg/m3 0.2 mg/m3 21.19 °C 79.06 % 1,023.16 mbar 1.26 m/s 232.03 Deg 4.4 µg/m3 1.12 µg/m3
2022-11-01 20:00 33.01 µg/m3 0.25 µg/m3 40.5 µg/m3 26.7 µg/m3 13.54 µg/m3 0.21 mg/m3 21.39 °C 78.6 % 1,022.95 mbar 1.1 m/s 240.38 Deg 10.67 µg/m3 2.07 µg/m3
2022-11-01 19:00 35.78 µg/m3 0.06 µg/m3 40.9 µg/m3 36.7 µg/m3 15.02 µg/m3 0.2 mg/m3 21.77 °C 75.98 % 1,022.63 mbar 1.05 m/s 261.23 Deg 10.3 µg/m3 1.99 µg/m3
2022-11-01 18:00 44.66 µg/m3 0.32 µg/m3 36.61 µg/m3 67.71 µg/m3 20.43 µg/m3 0.21 mg/m3 22.08 °C 73.51 % 1,022.09 mbar 1.09 m/s 288 Deg 10.08 µg/m3 1.99 µg/m3
2022-11-01 17:00 13.88 µg/m3 -0.15 µg/m3 66.72 µg/m3 23.89 µg/m3 12.42 µg/m3 0.15 mg/m3 22.86 °C 71.41 % 1,021.66 mbar 2.17 m/s 101.27 Deg 3.08 µg/m3 0.68 µg/m3
2022-11-01 16:00 7.9 µg/m3 0.01 µg/m3 69.59 µg/m3 22.93 µg/m3 12.33 µg/m3 0.13 mg/m3 23.1 °C 69.47 % 1,021.48 mbar 3.06 m/s 20.28 Deg 2.29 µg/m3 0.66 µg/m3
2022-11-01 15:00 5.41 µg/m3 -0.13 µg/m3 77 µg/m3 21.67 µg/m3 11.96 µg/m3 0.12 mg/m3 23.16 °C 67.85 % 1,021.45 mbar 3.92 m/s 19.81 Deg 0.38 µg/m3 0.47 µg/m3
2022-11-01 14:00 5.76 µg/m3 -0.09 µg/m3 72.41 µg/m3 21.64 µg/m3 11.43 µg/m3 0.11 mg/m3 23.31 °C 66.62 % 1,021.58 mbar 4 m/s 22.23 Deg 0.25 µg/m3 0.58 µg/m3
2022-11-01 13:00 8.96 µg/m3 0.04 µg/m3 73.67 µg/m3 20.41 µg/m3 10.74 µg/m3 0.1 mg/m3 23.4 °C 65.08 % 1,022.04 mbar 3.8 m/s 20.9 Deg 2.09 µg/m3 1.29 µg/m3
2022-11-01 12:00 11.71 µg/m3 -0.06 µg/m3 69.32 µg/m3 20.19 µg/m3 10.35 µg/m3 0.08 mg/m3 23.49 °C 63.56 % 1,022.55 mbar 3.01 m/s 257.73 Deg 3.03 µg/m3 0.86 µg/m3
2022-11-01 11:00 12.08 µg/m3 -0.01 µg/m3 69.56 µg/m3 19.8 µg/m3 10.41 µg/m3 0.11 mg/m3 23.12 °C 66.59 % 1,022.83 mbar 3.04 m/s 95.46 Deg 4.7 µg/m3 0.7 µg/m3
2022-11-01 10:00 13.81 µg/m3 0.06 µg/m3 65.29 µg/m3 20.14 µg/m3 10.96 µg/m3 0.14 mg/m3 22.84 °C 68.79 % 1,022.76 mbar 2.85 m/s 254.11 Deg 3.74 µg/m3 0.82 µg/m3
2022-11-01 09:00 27.14 µg/m3 0.09 µg/m3 46.5 µg/m3 26.87 µg/m3 12.44 µg/m3 0.14 mg/m3 22.46 °C 72.84 % 1,022.54 mbar 1.82 m/s 330.19 Deg 8.55 µg/m3 1.1 µg/m3
2022-11-01 08:00 35.92 µg/m3 0.21 µg/m3 38.87 µg/m3 23.92 µg/m3 12.73 µg/m3 0.2 mg/m3 21.25 °C 77.92 % 1,022.21 mbar 1.24 m/s 260.86 Deg 15.13 µg/m3 1.29 µg/m3
2022-11-01 07:00 48.28 µg/m3 0.2 µg/m3 36.21 µg/m3 22.15 µg/m3 12.47 µg/m3 0.25 mg/m3 20.64 °C 79.1 % 1,021.75 mbar 1.23 m/s 233.54 Deg 39.27 µg/m3 1.63 µg/m3
2022-11-01 06:00 21.71 µg/m3 -0.29 µg/m3 57.09 µg/m3 18.53 µg/m3 10.49 µg/m3 0.12 mg/m3 20.66 °C 79.38 % 1,021.41 mbar 1.47 m/s 245.04 Deg 9.03 µg/m3 0.58 µg/m3
2022-11-01 05:00 11.3 µg/m3 -0.38 µg/m3 65.81 µg/m3 17.9 µg/m3 9.87 µg/m3 0.1 mg/m3 20.66 °C 79.13 % 1,021.36 mbar 1.63 m/s 250.98 Deg 2.55 µg/m3 0.42 µg/m3
2022-11-01 04:00 12.68 µg/m3 -0.38 µg/m3 66.67 µg/m3 17.49 µg/m3 9.7 µg/m3 0.1 mg/m3 20.48 °C 80.31 % 1,021.21 mbar 1.47 m/s 238.79 Deg 0.77 µg/m3 0.42 µg/m3
2022-11-01 03:00 24.03 µg/m3 -0.35 µg/m3 67.65 µg/m3 16.74 µg/m3 9.8 µg/m3 0.09 mg/m3 20.65 °C 80.32 % 1,021.16 mbar 1.79 m/s 248.18 Deg -0.04 µg/m3 0.42 µg/m3
2022-11-01 02:00 5 µg/m3 -0.5 µg/m3 68.13 µg/m3 17.76 µg/m3 10.06 µg/m3 0.16 mg/m3 20.81 °C 79.67 % 1,021.31 mbar 1.75 m/s 256.88 Deg -0.06 µg/m3 0.44 µg/m3
2022-11-01 01:00 5.46 µg/m3 -0.44 µg/m3 66.84 µg/m3 18.78 µg/m3 10.48 µg/m3 0.16 mg/m3 20.89 °C 79.47 % 1,021.44 mbar 2.12 m/s 260.05 Deg 0.05 µg/m3 0.58 µg/m3
2022-11-01 00:00 6.99 µg/m3 -0.3 µg/m3 66.81 µg/m3 19.47 µg/m3 10.99 µg/m3 0.17 mg/m3 20.84 °C 79.21 % 1,021.60 mbar 2.14 m/s 256.43 Deg 0.15 µg/m3 0.58 µg/m3
2022-10-31 23:00 10.56 µg/m3 -0.19 µg/m3 61.69 µg/m3 21.76 µg/m3 11.46 µg/m3 0.18 mg/m3 20.82 °C 78.12 % 1,021.67 mbar 1.96 m/s 249.74 Deg 1.41 µg/m3 1.42 µg/m3
2022-10-31 22:00 14.48 µg/m3 -0.28 µg/m3 60.61 µg/m3 23.02 µg/m3 11.79 µg/m3 0.2 mg/m3 20.89 °C 76.58 % 1,021.62 mbar 1.56 m/s 242.73 Deg 2.77 µg/m3 1.63 µg/m3
2022-10-31 21:00 16.15 µg/m3 -0.21 µg/m3 57.9 µg/m3 23 µg/m3 11.37 µg/m3 0.2 mg/m3 21.01 °C 74.21 % 1,021.45 mbar 1.53 m/s 240.66 Deg 3.78 µg/m3 0.84 µg/m3
2022-10-31 20:00 22.66 µg/m3 0.02 µg/m3 52.75 µg/m3 22.51 µg/m3 10.52 µg/m3 0.21 mg/m3 20.87 °C 71.1 % 1,021.41 mbar 1.62 m/s 243.83 Deg 6.18 µg/m3 1.05 µg/m3
2022-10-31 19:00 30.02 µg/m3 0.15 µg/m3 43.39 µg/m3 20.06 µg/m3 9.3 µg/m3 0.2 mg/m3 21 °C 62.4 % 1,021.22 mbar 1.42 m/s 246.97 Deg 11.33 µg/m3 1.29 µg/m3
2022-10-31 18:00 40.04 µg/m3 -0.02 µg/m3 46.74 µg/m3 25.33 µg/m3 12.3 µg/m3 0.22 mg/m3 21.83 °C 59.7 % 1,020.70 mbar 1.24 m/s 306.96 Deg 10.46 µg/m3 1.68 µg/m3
2022-10-31 17:00 18.72 µg/m3 0.07 µg/m3 68.69 µg/m3 23.04 µg/m3 10.97 µg/m3 0.17 mg/m3 22.67 °C 64.7 % 1,020.34 mbar 2.36 m/s 271.43 Deg 3.29 µg/m3 0.76 µg/m3
2022-10-31 16:00 15.55 µg/m3 0.12 µg/m3 75.16 µg/m3 24.68 µg/m3 12.01 µg/m3 0.16 mg/m3 22.61 °C 71.22 % 1,020.22 mbar 2.9 m/s 32.31 Deg 7.68 µg/m3 0.73 µg/m3
2022-10-31 15:00 11.66 µg/m3 -0.09 µg/m3 77.35 µg/m3 23.46 µg/m3 11.6 µg/m3 0.17 mg/m3 22.75 °C 69.99 % 1,020.12 mbar 3.99 m/s 46.13 Deg 3.16 µg/m3 0.76 µg/m3
2022-10-31 14:00 9.93 µg/m3 0.14 µg/m3 76.63 µg/m3 20.54 µg/m3 10 µg/m3 0.15 mg/m3 22.86 °C 65.85 % 1,020.25 mbar 3.91 m/s 39.71 Deg 3.65 µg/m3 0.76 µg/m3
2022-10-31 13:00 12.27 µg/m3 0.14 µg/m3 73.65 µg/m3 22.15 µg/m3 10.31 µg/m3 0.15 mg/m3 23.09 °C 63.06 % 1,020.68 mbar 2.84 m/s 106.04 Deg 2.38 µg/m3 0.65 µg/m3
2022-10-31 12:00 12.89 µg/m3 0.08 µg/m3 72.48 µg/m3 24.17 µg/m3 11.22 µg/m3 0.16 mg/m3 22.97 °C 65.59 % 1,021.09 mbar 3.15 m/s 109.09 Deg 3.34 µg/m3 0.73 µg/m3
2022-10-31 11:00 11.8 µg/m3 -0.02 µg/m3 71.13 µg/m3 24.33 µg/m3 11.6 µg/m3 0.16 mg/m3 22.73 °C 68.55 % 1,021.39 mbar 2.74 m/s 12.84 Deg 2.89 µg/m3 0.66 µg/m3
2022-10-31 10:00 14.77 µg/m3 0.22 µg/m3 65.07 µg/m3 25.06 µg/m3 11.54 µg/m3 0.15 mg/m3 22.5 °C 69.06 % 1,021.46 mbar 2.48 m/s 99.23 Deg 5.81 µg/m3 0.68 µg/m3
2022-10-31 09:00 31.03 µg/m3 0.47 µg/m3 42.63 µg/m3 33.11 µg/m3 13.98 µg/m3 0.18 mg/m3 21.96 °C 73.55 % 1,021.20 mbar 1.33 m/s 314.9 Deg 14.75 µg/m3 1.81 µg/m3
2022-10-31 08:00 58.75 µg/m3 0.9 µg/m3 14.47 µg/m3 41.48 µg/m3 17 µg/m3 0.3 mg/m3 20.69 °C 79.43 % 1,020.82 mbar 0.71 m/s 223.19 Deg 62.24 µg/m3 3.49 µg/m3
2022-10-31 07:00 51.25 µg/m3 0.35 µg/m3 37.19 µg/m3 33.06 µg/m3 15.55 µg/m3 0.27 mg/m3 20.79 °C 78.07 % 1,020.28 mbar 1.23 m/s 139.03 Deg 56 µg/m3 2.89 µg/m3
2022-10-31 06:00 13.21 µg/m3 -0.21 µg/m3 70.16 µg/m3 24.69 µg/m3 12.45 µg/m3 0.1 mg/m3 21.71 °C 75.68 % 1,019.84 mbar 3.22 m/s 38.88 Deg 1.67 µg/m3 0.52 µg/m3
2022-10-31 05:00 30.69 µg/m3 -0.26 µg/m3 43.65 µg/m3 23.77 µg/m3 13.1 µg/m3 0.1 mg/m3 20.84 °C 78.69 % 1,019.76 mbar 1 m/s 170.02 Deg 9.07 µg/m3 1.28 µg/m3
2022-10-31 04:00 22.33 µg/m3 -0.34 µg/m3 38.97 µg/m3 19.92 µg/m3 10.86 µg/m3 0.12 mg/m3 20.18 °C 76.99 % 1,019.75 mbar 0.49 m/s 178.5 Deg 2.35 µg/m3 0.92 µg/m3
2022-10-31 03:00 28.55 µg/m3 -0.19 µg/m3 44.62 µg/m3 18.06 µg/m3 10.56 µg/m3 0.06 mg/m3 19.88 °C 77.19 % 1,020.02 mbar 0.91 m/s 215.68 Deg 2.82 µg/m3 0.68 µg/m3
2022-10-31 02:00 12.19 µg/m3 -0.26 µg/m3 44.44 µg/m3 18.93 µg/m3 10.84 µg/m3 0.14 mg/m3 19.78 °C 77.71 % 1,020.27 mbar 0.98 m/s 209.78 Deg 2.14 µg/m3 1.12 µg/m3
2022-10-31 01:00 14.55 µg/m3 0.13 µg/m3 56.3 µg/m3 18.57 µg/m3 11.1 µg/m3 0.18 mg/m3 19.83 °C 77.56 % 1,020.49 mbar 1.07 m/s 211.42 Deg 2.71 µg/m3 0.92 µg/m3
2022-10-31 00:00 20.36 µg/m3 0.04 µg/m3 55.6 µg/m3 18.98 µg/m3 11.54 µg/m3 0.22 mg/m3 19.91 °C 76.48 % 1,020.62 mbar 1.12 m/s 218.08 Deg 4.82 µg/m3 1.13 µg/m3
2022-10-30 23:00 26.13 µg/m3 0.19 µg/m3 49.99 µg/m3 20.46 µg/m3 12.15 µg/m3 0.23 mg/m3 19.93 °C 76.25 % 1,020.74 mbar 1.11 m/s 218.48 Deg 8.5 µg/m3 2.26 µg/m3
2022-10-30 22:00 45.94 µg/m3 0.36 µg/m3 36.77 µg/m3 23.13 µg/m3 13.63 µg/m3 0.33 mg/m3 20.2 °C 76.01 % 1,020.76 mbar 0.99 m/s 212.46 Deg 20.91 µg/m3 4.38 µg/m3
2022-10-30 21:00 53.59 µg/m3 0.47 µg/m3 30.13 µg/m3 26.42 µg/m3 15.08 µg/m3 0.31 mg/m3 20.12 °C 77.08 % 1,020.72 mbar 0.92 m/s 215.11 Deg 19.9 µg/m3 2.99 µg/m3
2022-10-30 20:00 62.35 µg/m3 0.3 µg/m3 27.78 µg/m3 32.37 µg/m3 17.92 µg/m3 0.32 mg/m3 20.54 °C 76 % 1,020.56 mbar 0.67 m/s 242.14 Deg 31.99 µg/m3 2.57 µg/m3
2022-10-30 19:00 59.88 µg/m3 0.17 µg/m3 29.11 µg/m3 34.57 µg/m3 17.47 µg/m3 0.36 mg/m3 20.93 °C 75.32 % 1,020.22 mbar 0.78 m/s 177.59 Deg 29.47 µg/m3 2.76 µg/m3
2022-10-30 18:00 23.58 µg/m3 -0.05 µg/m3 69.23 µg/m3 32.13 µg/m3 15.53 µg/m3 0.21 mg/m3 21.8 °C 74.49 % 1,019.68 mbar 1.82 m/s 33.33 Deg 4.33 µg/m3 1.05 µg/m3
2022-10-30 17:00 18.46 µg/m3 0.1 µg/m3 71.17 µg/m3 27.56 µg/m3 13.81 µg/m3 0.17 mg/m3 22.12 °C 66.2 % 1,019.59 mbar 1.86 m/s 48.1 Deg 3.11 µg/m3 0.94 µg/m3
2022-10-30 16:00 15.92 µg/m3 0.62 µg/m3 73.47 µg/m3 27.34 µg/m3 10.22 µg/m3 0.15 mg/m3 22.74 °C 53.23 % 1,019.64 mbar 1.96 m/s 47.65 Deg 3.22 µg/m3 1.45 µg/m3
2022-10-30 15:00 15.12 µg/m3 0.87 µg/m3 77.76 µg/m3 20.14 µg/m3 9.8 µg/m3 0.16 mg/m3 22.67 °C 57.27 % 1,019.84 mbar 2.38 m/s 64.25 Deg 3.39 µg/m3 1.71 µg/m3
2022-10-30 14:00 15.18 µg/m3 0.64 µg/m3 74.54 µg/m3 18.89 µg/m3 10.16 µg/m3 0.16 mg/m3 22.34 °C 63.81 % 1,019.90 mbar 2.86 m/s 48.78 Deg 3.09 µg/m3 1.18 µg/m3

It is to be noted that the data is provisional and subject to quality assurance procedures. For validated data kindly refer your request to contact.air@era.org.mt